<?xml version="1.0" encoding="UTF-8" standalone="no" ?>
<gpx xmlns="http://www.topografix.com/GPX/1/1" xmlns:xsi="http://www.w3.org/2001/XMLSchema-instance" xsi:schemaLocation="http://www.topografix.com/GPX/1/1 http://www.topografix.com/GPX/1/1/gpx.xsd" version="1.1" creator="VisuGPX - https://www.visugpx.com">
  <metadata>
    <name>TV LEVENS St MICHEL</name>
    <desc><![CDATA[TRACE ETUDE
XXXXXXXXXXXXXXXXXXXXXXXXXXXXXXXXXXXXXXXXXXXXXXXXXXXXXXXXXXXXXXXXXXXXXXXXXXXXXXXXXXXXXXXXXXXXXXXXXXXXXXXXXX]]></desc>
  </metadata>
  <trk>
    <name><![CDATA[20180512095649-sKTlZ]]></name>
    <trkseg>
      <trkpt lat="43.84622" lon="7.23968">
        <ele>542</ele>
        <time>2016-05-15T11:32:37.000Z</time>
      </trkpt>
      <trkpt lat="43.84593" lon="7.23991">
        <ele>541</ele>
        <time>2016-05-15T11:32:44.000Z</time>
      </trkpt>
      <trkpt lat="43.84583" lon="7.23993">
        <ele>541</ele>
        <time>2016-05-15T11:32:47.000Z</time>
      </trkpt>
      <trkpt lat="43.84578" lon="7.2399">
        <ele>541</ele>
        <time>2016-05-15T11:32:48.000Z</time>
      </trkpt>
      <trkpt lat="43.84562" lon="7.23979">
        <ele>541</ele>
        <time>2016-05-15T11:32:52.000Z</time>
      </trkpt>
      <trkpt lat="43.84544" lon="7.2397">
        <ele>540</ele>
        <time>2016-05-15T11:32:56.000Z</time>
      </trkpt>
      <trkpt lat="43.8451" lon="7.23955">
        <ele>541</ele>
        <time>2016-05-15T11:33:04.000Z</time>
      </trkpt>
      <trkpt lat="43.84502" lon="7.23948">
        <ele>541</ele>
        <time>2016-05-15T11:33:06.000Z</time>
      </trkpt>
      <trkpt lat="43.84499" lon="7.23945">
        <ele>543</ele>
        <time>2016-05-15T11:33:07.000Z</time>
      </trkpt>
      <trkpt lat="43.84494" lon="7.23939">
        <ele>543</ele>
        <time>2016-05-15T11:33:09.000Z</time>
      </trkpt>
      <trkpt lat="43.8447" lon="7.23915">
        <ele>546</ele>
        <time>2016-05-15T11:33:19.000Z</time>
      </trkpt>
      <trkpt lat="43.84456" lon="7.23907">
        <ele>547</ele>
        <time>2016-05-15T11:33:24.000Z</time>
      </trkpt>
      <trkpt lat="43.84454" lon="7.23906">
        <ele>547</ele>
        <time>2016-05-15T11:33:25.000Z</time>
      </trkpt>
      <trkpt lat="43.84441" lon="7.23905">
        <ele>548</ele>
        <time>2016-05-15T11:33:30.000Z</time>
      </trkpt>
      <trkpt lat="43.84439" lon="7.23905">
        <ele>548</ele>
        <time>2016-05-15T11:33:31.000Z</time>
      </trkpt>
      <trkpt lat="43.84434" lon="7.23906">
        <ele>548</ele>
        <time>2016-05-15T11:33:35.000Z</time>
      </trkpt>
      <trkpt lat="43.84433" lon="7.23905">
        <ele>548</ele>
        <time>2016-05-15T11:33:39.000Z</time>
      </trkpt>
      <trkpt lat="43.84431" lon="7.23903">
        <ele>549</ele>
        <time>2016-05-15T11:33:43.000Z</time>
      </trkpt>
      <trkpt lat="43.8443" lon="7.23901">
        <ele>549</ele>
        <time>2016-05-15T11:33:46.000Z</time>
      </trkpt>
      <trkpt lat="43.84429" lon="7.23897">
        <ele>548</ele>
        <time>2016-05-15T11:33:49.000Z</time>
      </trkpt>
      <trkpt lat="43.84428" lon="7.23895">
        <ele>548</ele>
        <time>2016-05-15T11:33:51.000Z</time>
      </trkpt>
      <trkpt lat="43.84426" lon="7.23893">
        <ele>549</ele>
        <time>2016-05-15T11:33:53.000Z</time>
      </trkpt>
      <trkpt lat="43.84422" lon="7.23888">
        <ele>549</ele>
        <time>2016-05-15T11:33:57.000Z</time>
      </trkpt>
      <trkpt lat="43.8442" lon="7.23885">
        <ele>549</ele>
        <time>2016-05-15T11:34:01.000Z</time>
      </trkpt>
      <trkpt lat="43.84419" lon="7.23883">
        <ele>549</ele>
        <time>2016-05-15T11:34:03.000Z</time>
      </trkpt>
      <trkpt lat="43.84419" lon="7.23882">
        <ele>549</ele>
        <time>2016-05-15T11:34:04.000Z</time>
      </trkpt>
      <trkpt lat="43.84418" lon="7.23877">
        <ele>549</ele>
        <time>2016-05-15T11:34:08.000Z</time>
      </trkpt>
      <trkpt lat="43.84418" lon="7.23876">
        <ele>549</ele>
        <time>2016-05-15T11:34:09.000Z</time>
      </trkpt>
      <trkpt lat="43.84416" lon="7.23873">
        <ele>556</ele>
        <time>2016-05-15T11:34:13.000Z</time>
      </trkpt>
      <trkpt lat="43.84415" lon="7.23872">
        <ele>556</ele>
        <time>2016-05-15T11:34:16.000Z</time>
      </trkpt>
      <trkpt lat="43.84414" lon="7.2387">
        <ele>556</ele>
        <time>2016-05-15T11:34:19.000Z</time>
      </trkpt>
      <trkpt lat="43.84411" lon="7.23866">
        <ele>556</ele>
        <time>2016-05-15T11:34:24.000Z</time>
      </trkpt>
      <trkpt lat="43.84409" lon="7.23866">
        <ele>556</ele>
        <time>2016-05-15T11:34:28.000Z</time>
      </trkpt>
      <trkpt lat="43.84407" lon="7.23866">
        <ele>556</ele>
        <time>2016-05-15T11:34:29.000Z</time>
      </trkpt>
      <trkpt lat="43.84407" lon="7.23866">
        <ele>556</ele>
        <time>2016-05-15T11:34:30.000Z</time>
      </trkpt>
      <trkpt lat="43.84407" lon="7.23866">
        <ele>556</ele>
        <time>2016-05-15T11:34:32.000Z</time>
      </trkpt>
      <trkpt lat="43.84403" lon="7.23865">
        <ele>557</ele>
        <time>2016-05-15T11:34:37.000Z</time>
      </trkpt>
      <trkpt lat="43.84403" lon="7.23864">
        <ele>557</ele>
        <time>2016-05-15T11:34:38.000Z</time>
      </trkpt>
      <trkpt lat="43.844" lon="7.23862">
        <ele>557</ele>
        <time>2016-05-15T11:34:43.000Z</time>
      </trkpt>
      <trkpt lat="43.84399" lon="7.23861">
        <ele>557</ele>
        <time>2016-05-15T11:34:45.000Z</time>
      </trkpt>
      <trkpt lat="43.84396" lon="7.23862">
        <ele>557</ele>
        <time>2016-05-15T11:34:48.000Z</time>
      </trkpt>
      <trkpt lat="43.84395" lon="7.23859">
        <ele>557</ele>
        <time>2016-05-15T11:34:50.000Z</time>
      </trkpt>
      <trkpt lat="43.84394" lon="7.23858">
        <ele>557</ele>
        <time>2016-05-15T11:34:51.000Z</time>
      </trkpt>
      <trkpt lat="43.84394" lon="7.23855">
        <ele>557</ele>
        <time>2016-05-15T11:34:56.000Z</time>
      </trkpt>
      <trkpt lat="43.84394" lon="7.23853">
        <ele>557</ele>
        <time>2016-05-15T11:34:57.000Z</time>
      </trkpt>
      <trkpt lat="43.84394" lon="7.23843">
        <ele>557</ele>
        <time>2016-05-15T11:35:01.000Z</time>
      </trkpt>
      <trkpt lat="43.84397" lon="7.23834">
        <ele>556</ele>
        <time>2016-05-15T11:35:04.000Z</time>
      </trkpt>
      <trkpt lat="43.84398" lon="7.23827">
        <ele>559</ele>
        <time>2016-05-15T11:35:06.000Z</time>
      </trkpt>
      <trkpt lat="43.84396" lon="7.23824">
        <ele>559</ele>
        <time>2016-05-15T11:35:08.000Z</time>
      </trkpt>
      <trkpt lat="43.84394" lon="7.2382">
        <ele>560</ele>
        <time>2016-05-15T11:35:10.000Z</time>
      </trkpt>
      <trkpt lat="43.84393" lon="7.23808">
        <ele>561</ele>
        <time>2016-05-15T11:35:15.000Z</time>
      </trkpt>
      <trkpt lat="43.84391" lon="7.23801">
        <ele>562</ele>
        <time>2016-05-15T11:35:18.000Z</time>
      </trkpt>
      <trkpt lat="43.84388" lon="7.23799">
        <ele>562</ele>
        <time>2016-05-15T11:35:21.000Z</time>
      </trkpt>
      <trkpt lat="43.84386" lon="7.23798">
        <ele>562</ele>
        <time>2016-05-15T11:35:24.000Z</time>
      </trkpt>
      <trkpt lat="43.84383" lon="7.23798">
        <ele>563</ele>
        <time>2016-05-15T11:35:27.000Z</time>
      </trkpt>
      <trkpt lat="43.84379" lon="7.23797">
        <ele>563</ele>
        <time>2016-05-15T11:35:31.000Z</time>
      </trkpt>
      <trkpt lat="43.84375" lon="7.23797">
        <ele>563</ele>
        <time>2016-05-15T11:35:35.000Z</time>
      </trkpt>
      <trkpt lat="43.84374" lon="7.23797">
        <ele>563</ele>
        <time>2016-05-15T11:35:36.000Z</time>
      </trkpt>
      <trkpt lat="43.84368" lon="7.23797">
        <ele>564</ele>
        <time>2016-05-15T11:35:42.000Z</time>
      </trkpt>
      <trkpt lat="43.8436" lon="7.23798">
        <ele>565</ele>
        <time>2016-05-15T11:35:50.000Z</time>
      </trkpt>
      <trkpt lat="43.84357" lon="7.23797">
        <ele>565</ele>
        <time>2016-05-15T11:35:53.000Z</time>
      </trkpt>
      <trkpt lat="43.84354" lon="7.23796">
        <ele>565</ele>
        <time>2016-05-15T11:35:56.000Z</time>
      </trkpt>
      <trkpt lat="43.84353" lon="7.23796">
        <ele>565</ele>
        <time>2016-05-15T11:35:57.000Z</time>
      </trkpt>
      <trkpt lat="43.84347" lon="7.23795">
        <ele>566</ele>
        <time>2016-05-15T11:36:02.000Z</time>
      </trkpt>
      <trkpt lat="43.84344" lon="7.23796">
        <ele>566</ele>
        <time>2016-05-15T11:36:04.000Z</time>
      </trkpt>
      <trkpt lat="43.84343" lon="7.23795">
        <ele>566</ele>
        <time>2016-05-15T11:36:05.000Z</time>
      </trkpt>
      <trkpt lat="43.84338" lon="7.23793">
        <ele>566</ele>
        <time>2016-05-15T11:36:09.000Z</time>
      </trkpt>
      <trkpt lat="43.84336" lon="7.23792">
        <ele>566</ele>
        <time>2016-05-15T11:36:11.000Z</time>
      </trkpt>
      <trkpt lat="43.84332" lon="7.23792">
        <ele>569</ele>
        <time>2016-05-15T11:36:14.000Z</time>
      </trkpt>
      <trkpt lat="43.8433" lon="7.23792">
        <ele>569</ele>
        <time>2016-05-15T11:36:15.000Z</time>
      </trkpt>
      <trkpt lat="43.84329" lon="7.23791">
        <ele>569</ele>
        <time>2016-05-15T11:36:16.000Z</time>
      </trkpt>
      <trkpt lat="43.84323" lon="7.23788">
        <ele>569</ele>
        <time>2016-05-15T11:36:20.000Z</time>
      </trkpt>
      <trkpt lat="43.84314" lon="7.23785">
        <ele>569</ele>
        <time>2016-05-15T11:36:25.000Z</time>
      </trkpt>
      <trkpt lat="43.84313" lon="7.23787">
        <ele>569</ele>
        <time>2016-05-15T11:36:26.000Z</time>
      </trkpt>
      <trkpt lat="43.84306" lon="7.23788">
        <ele>569</ele>
        <time>2016-05-15T11:36:30.000Z</time>
      </trkpt>
      <trkpt lat="43.8429" lon="7.23776">
        <ele>568</ele>
        <time>2016-05-15T11:36:35.000Z</time>
      </trkpt>
      <trkpt lat="43.84272" lon="7.23765">
        <ele>567</ele>
        <time>2016-05-15T11:36:40.000Z</time>
      </trkpt>
      <trkpt lat="43.84268" lon="7.23763">
        <ele>567</ele>
        <time>2016-05-15T11:36:41.000Z</time>
      </trkpt>
      <trkpt lat="43.84265" lon="7.23759">
        <ele>567</ele>
        <time>2016-05-15T11:36:42.000Z</time>
      </trkpt>
      <trkpt lat="43.84257" lon="7.23752">
        <ele>566</ele>
        <time>2016-05-15T11:36:44.000Z</time>
      </trkpt>
      <trkpt lat="43.84246" lon="7.23743">
        <ele>564</ele>
        <time>2016-05-15T11:36:47.000Z</time>
      </trkpt>
      <trkpt lat="43.84243" lon="7.23741">
        <ele>564</ele>
        <time>2016-05-15T11:36:48.000Z</time>
      </trkpt>
      <trkpt lat="43.84235" lon="7.23731">
        <ele>563</ele>
        <time>2016-05-15T11:36:51.000Z</time>
      </trkpt>
      <trkpt lat="43.84233" lon="7.23727">
        <ele>563</ele>
        <time>2016-05-15T11:36:52.000Z</time>
      </trkpt>
      <trkpt lat="43.84222" lon="7.23718">
        <ele>563</ele>
        <time>2016-05-15T11:36:55.000Z</time>
      </trkpt>
      <trkpt lat="43.84218" lon="7.23714">
        <ele>563</ele>
        <time>2016-05-15T11:36:56.000Z</time>
      </trkpt>
      <trkpt lat="43.84214" lon="7.23711">
        <ele>562</ele>
        <time>2016-05-15T11:36:57.000Z</time>
      </trkpt>
      <trkpt lat="43.84201" lon="7.23702">
        <ele>562</ele>
        <time>2016-05-15T11:37:00.000Z</time>
      </trkpt>
      <trkpt lat="43.84195" lon="7.23698">
        <ele>561</ele>
        <time>2016-05-15T11:37:01.000Z</time>
      </trkpt>
      <trkpt lat="43.8419" lon="7.23692">
        <ele>561</ele>
        <time>2016-05-15T11:37:02.000Z</time>
      </trkpt>
      <trkpt lat="43.84178" lon="7.23686">
        <ele>560</ele>
        <time>2016-05-15T11:37:04.000Z</time>
      </trkpt>
      <trkpt lat="43.84172" lon="7.23682">
        <ele>560</ele>
        <time>2016-05-15T11:37:05.000Z</time>
      </trkpt>
      <trkpt lat="43.84165" lon="7.23677">
        <ele>559</ele>
        <time>2016-05-15T11:37:06.000Z</time>
      </trkpt>
      <trkpt lat="43.84159" lon="7.23674">
        <ele>559</ele>
        <time>2016-05-15T11:37:07.000Z</time>
      </trkpt>
      <trkpt lat="43.84154" lon="7.23671">
        <ele>560</ele>
        <time>2016-05-15T11:37:08.000Z</time>
      </trkpt>
      <trkpt lat="43.84151" lon="7.2367">
        <ele>560</ele>
        <time>2016-05-15T11:37:09.000Z</time>
      </trkpt>
      <trkpt lat="43.84146" lon="7.23667">
        <ele>561</ele>
        <time>2016-05-15T11:37:11.000Z</time>
      </trkpt>
      <trkpt lat="43.84142" lon="7.23663">
        <ele>563</ele>
        <time>2016-05-15T11:37:13.000Z</time>
      </trkpt>
      <trkpt lat="43.84133" lon="7.23663">
        <ele>564</ele>
        <time>2016-05-15T11:37:16.000Z</time>
      </trkpt>
      <trkpt lat="43.8413" lon="7.23663">
        <ele>564</ele>
        <time>2016-05-15T11:37:17.000Z</time>
      </trkpt>
      <trkpt lat="43.84117" lon="7.23657">
        <ele>566</ele>
        <time>2016-05-15T11:37:21.000Z</time>
      </trkpt>
      <trkpt lat="43.84111" lon="7.23655">
        <ele>566</ele>
        <time>2016-05-15T11:37:23.000Z</time>
      </trkpt>
      <trkpt lat="43.84108" lon="7.23657">
        <ele>566</ele>
        <time>2016-05-15T11:37:24.000Z</time>
      </trkpt>
      <trkpt lat="43.84106" lon="7.2366">
        <ele>566</ele>
        <time>2016-05-15T11:37:25.000Z</time>
      </trkpt>
      <trkpt lat="43.84103" lon="7.2367">
        <ele>565</ele>
        <time>2016-05-15T11:37:28.000Z</time>
      </trkpt>
      <trkpt lat="43.84101" lon="7.23677">
        <ele>565</ele>
        <time>2016-05-15T11:37:30.000Z</time>
      </trkpt>
      <trkpt lat="43.84102" lon="7.2369">
        <ele>564</ele>
        <time>2016-05-15T11:37:35.000Z</time>
      </trkpt>
      <trkpt lat="43.84102" lon="7.23698">
        <ele>564</ele>
        <time>2016-05-15T11:37:39.000Z</time>
      </trkpt>
      <trkpt lat="43.84102" lon="7.23702">
        <ele>564</ele>
        <time>2016-05-15T11:37:41.000Z</time>
      </trkpt>
      <trkpt lat="43.84101" lon="7.23706">
        <ele>564</ele>
        <time>2016-05-15T11:37:43.000Z</time>
      </trkpt>
      <trkpt lat="43.84102" lon="7.23712">
        <ele>564</ele>
        <time>2016-05-15T11:37:46.000Z</time>
      </trkpt>
      <trkpt lat="43.84101" lon="7.23713">
        <ele>564</ele>
        <time>2016-05-15T11:37:47.000Z</time>
      </trkpt>
      <trkpt lat="43.84101" lon="7.23715">
        <ele>564</ele>
        <time>2016-05-15T11:37:49.000Z</time>
      </trkpt>
      <trkpt lat="43.84101" lon="7.23716">
        <ele>564</ele>
        <time>2016-05-15T11:37:51.000Z</time>
      </trkpt>
      <trkpt lat="43.84101" lon="7.23716">
        <ele>564</ele>
        <time>2016-05-15T11:37:52.000Z</time>
      </trkpt>
      <trkpt lat="43.841" lon="7.23719">
        <ele>564</ele>
        <time>2016-05-15T11:37:57.000Z</time>
      </trkpt>
      <trkpt lat="43.84098" lon="7.23723">
        <ele>564</ele>
        <time>2016-05-15T11:38:03.000Z</time>
      </trkpt>
      <trkpt lat="43.84095" lon="7.23725">
        <ele>565</ele>
        <time>2016-05-15T11:38:08.000Z</time>
      </trkpt>
      <trkpt lat="43.84094" lon="7.23726">
        <ele>565</ele>
        <time>2016-05-15T11:38:10.000Z</time>
      </trkpt>
      <trkpt lat="43.84093" lon="7.23729">
        <ele>565</ele>
        <time>2016-05-15T11:38:15.000Z</time>
      </trkpt>
      <trkpt lat="43.84091" lon="7.23732">
        <ele>565</ele>
        <time>2016-05-15T11:38:20.000Z</time>
      </trkpt>
      <trkpt lat="43.84091" lon="7.23733">
        <ele>566</ele>
        <time>2016-05-15T11:38:21.000Z</time>
      </trkpt>
      <trkpt lat="43.84088" lon="7.23736">
        <ele>566</ele>
        <time>2016-05-15T11:38:27.000Z</time>
      </trkpt>
      <trkpt lat="43.84088" lon="7.23737">
        <ele>566</ele>
        <time>2016-05-15T11:38:29.000Z</time>
      </trkpt>
      <trkpt lat="43.84086" lon="7.2374">
        <ele>567</ele>
        <time>2016-05-15T11:38:35.000Z</time>
      </trkpt>
      <trkpt lat="43.84085" lon="7.23741">
        <ele>567</ele>
        <time>2016-05-15T11:38:36.000Z</time>
      </trkpt>
      <trkpt lat="43.84083" lon="7.23745">
        <ele>571</ele>
        <time>2016-05-15T11:38:42.000Z</time>
      </trkpt>
      <trkpt lat="43.84082" lon="7.23747">
        <ele>570</ele>
        <time>2016-05-15T11:38:45.000Z</time>
      </trkpt>
      <trkpt lat="43.8408" lon="7.23748">
        <ele>570</ele>
        <time>2016-05-15T11:38:48.000Z</time>
      </trkpt>
      <trkpt lat="43.84077" lon="7.23749">
        <ele>571</ele>
        <time>2016-05-15T11:38:52.000Z</time>
      </trkpt>
      <trkpt lat="43.84077" lon="7.23749">
        <ele>571</ele>
        <time>2016-05-15T11:38:53.000Z</time>
      </trkpt>
      <trkpt lat="43.84074" lon="7.23751">
        <ele>571</ele>
        <time>2016-05-15T11:38:58.000Z</time>
      </trkpt>
      <trkpt lat="43.84072" lon="7.23751">
        <ele>571</ele>
        <time>2016-05-15T11:39:00.000Z</time>
      </trkpt>
      <trkpt lat="43.84069" lon="7.23751">
        <ele>571</ele>
        <time>2016-05-15T11:39:04.000Z</time>
      </trkpt>
      <trkpt lat="43.84066" lon="7.23752">
        <ele>572</ele>
        <time>2016-05-15T11:39:08.000Z</time>
      </trkpt>
      <trkpt lat="43.84065" lon="7.23753">
        <ele>572</ele>
        <time>2016-05-15T11:39:09.000Z</time>
      </trkpt>
      <trkpt lat="43.84063" lon="7.23755">
        <ele>572</ele>
        <time>2016-05-15T11:39:13.000Z</time>
      </trkpt>
      <trkpt lat="43.84059" lon="7.23754">
        <ele>573</ele>
        <time>2016-05-15T11:39:18.000Z</time>
      </trkpt>
      <trkpt lat="43.84056" lon="7.23752">
        <ele>573</ele>
        <time>2016-05-15T11:39:23.000Z</time>
      </trkpt>
      <trkpt lat="43.84053" lon="7.23748">
        <ele>576</ele>
        <time>2016-05-15T11:39:27.000Z</time>
      </trkpt>
      <trkpt lat="43.84051" lon="7.23743">
        <ele>576</ele>
        <time>2016-05-15T11:39:32.000Z</time>
      </trkpt>
      <trkpt lat="43.8405" lon="7.23742">
        <ele>576</ele>
        <time>2016-05-15T11:39:33.000Z</time>
      </trkpt>
      <trkpt lat="43.8405" lon="7.23741">
        <ele>576</ele>
        <time>2016-05-15T11:39:34.000Z</time>
      </trkpt>
      <trkpt lat="43.84048" lon="7.23735">
        <ele>577</ele>
        <time>2016-05-15T11:39:38.000Z</time>
      </trkpt>
      <trkpt lat="43.84047" lon="7.23733">
        <ele>577</ele>
        <time>2016-05-15T11:39:40.000Z</time>
      </trkpt>
      <trkpt lat="43.84047" lon="7.23731">
        <ele>577</ele>
        <time>2016-05-15T11:39:41.000Z</time>
      </trkpt>
      <trkpt lat="43.84047" lon="7.23729">
        <ele>577</ele>
        <time>2016-05-15T11:39:43.000Z</time>
      </trkpt>
      <trkpt lat="43.84045" lon="7.23725">
        <ele>577</ele>
        <time>2016-05-15T11:39:46.000Z</time>
      </trkpt>
      <trkpt lat="43.84043" lon="7.23723">
        <ele>577</ele>
        <time>2016-05-15T11:39:48.000Z</time>
      </trkpt>
      <trkpt lat="43.84042" lon="7.23723">
        <ele>578</ele>
        <time>2016-05-15T11:39:54.000Z</time>
      </trkpt>
      <trkpt lat="43.84041" lon="7.23723">
        <ele>578</ele>
        <time>2016-05-15T11:39:55.000Z</time>
      </trkpt>
      <trkpt lat="43.84036" lon="7.23722">
        <ele>578</ele>
        <time>2016-05-15T11:40:02.000Z</time>
      </trkpt>
      <trkpt lat="43.84033" lon="7.23722">
        <ele>579</ele>
        <time>2016-05-15T11:40:06.000Z</time>
      </trkpt>
      <trkpt lat="43.84032" lon="7.23722">
        <ele>579</ele>
        <time>2016-05-15T11:40:08.000Z</time>
      </trkpt>
      <trkpt lat="43.84029" lon="7.23721">
        <ele>579</ele>
        <time>2016-05-15T11:40:13.000Z</time>
      </trkpt>
      <trkpt lat="43.84026" lon="7.23722">
        <ele>579</ele>
        <time>2016-05-15T11:40:16.000Z</time>
      </trkpt>
      <trkpt lat="43.84024" lon="7.23724">
        <ele>580</ele>
        <time>2016-05-15T11:40:19.000Z</time>
      </trkpt>
      <trkpt lat="43.84019" lon="7.23725">
        <ele>580</ele>
        <time>2016-05-15T11:40:24.000Z</time>
      </trkpt>
      <trkpt lat="43.84017" lon="7.23725">
        <ele>580</ele>
        <time>2016-05-15T11:40:26.000Z</time>
      </trkpt>
      <trkpt lat="43.84012" lon="7.23722">
        <ele>581</ele>
        <time>2016-05-15T11:40:31.000Z</time>
      </trkpt>
      <trkpt lat="43.84009" lon="7.23721">
        <ele>581</ele>
        <time>2016-05-15T11:40:34.000Z</time>
      </trkpt>
      <trkpt lat="43.84004" lon="7.2372">
        <ele>581</ele>
        <time>2016-05-15T11:40:38.000Z</time>
      </trkpt>
      <trkpt lat="43.84004" lon="7.2372">
        <ele>581</ele>
        <time>2016-05-15T11:40:39.000Z</time>
      </trkpt>
      <trkpt lat="43.83997" lon="7.23719">
        <ele>585</ele>
        <time>2016-05-15T11:40:45.000Z</time>
      </trkpt>
      <trkpt lat="43.83993" lon="7.23718">
        <ele>585</ele>
        <time>2016-05-15T11:40:51.000Z</time>
      </trkpt>
      <trkpt lat="43.83991" lon="7.23718">
        <ele>585</ele>
        <time>2016-05-15T11:40:53.000Z</time>
      </trkpt>
      <trkpt lat="43.83986" lon="7.23719">
        <ele>584</ele>
        <time>2016-05-15T11:40:57.000Z</time>
      </trkpt>
      <trkpt lat="43.83981" lon="7.2372">
        <ele>584</ele>
        <time>2016-05-15T11:41:00.000Z</time>
      </trkpt>
      <trkpt lat="43.83976" lon="7.23722">
        <ele>584</ele>
        <time>2016-05-15T11:41:03.000Z</time>
      </trkpt>
      <trkpt lat="43.83961" lon="7.23728">
        <ele>584</ele>
        <time>2016-05-15T11:41:08.000Z</time>
      </trkpt>
      <trkpt lat="43.83947" lon="7.23733">
        <ele>583</ele>
        <time>2016-05-15T11:41:12.000Z</time>
      </trkpt>
      <trkpt lat="43.83943" lon="7.23735">
        <ele>583</ele>
        <time>2016-05-15T11:41:13.000Z</time>
      </trkpt>
      <trkpt lat="43.83936" lon="7.23739">
        <ele>583</ele>
        <time>2016-05-15T11:41:16.000Z</time>
      </trkpt>
      <trkpt lat="43.83933" lon="7.2374">
        <ele>582</ele>
        <time>2016-05-15T11:41:17.000Z</time>
      </trkpt>
      <trkpt lat="43.8393" lon="7.23742">
        <ele>582</ele>
        <time>2016-05-15T11:41:18.000Z</time>
      </trkpt>
      <trkpt lat="43.83924" lon="7.23743">
        <ele>582</ele>
        <time>2016-05-15T11:41:20.000Z</time>
      </trkpt>
      <trkpt lat="43.83918" lon="7.23742">
        <ele>582</ele>
        <time>2016-05-15T11:41:22.000Z</time>
      </trkpt>
      <trkpt lat="43.83917" lon="7.23737">
        <ele>582</ele>
        <time>2016-05-15T11:41:23.000Z</time>
      </trkpt>
      <trkpt lat="43.83913" lon="7.23729">
        <ele>573</ele>
        <time>2016-05-15T11:41:25.000Z</time>
      </trkpt>
      <trkpt lat="43.83911" lon="7.23726">
        <ele>572</ele>
        <time>2016-05-15T11:41:27.000Z</time>
      </trkpt>
      <trkpt lat="43.83908" lon="7.23727">
        <ele>572</ele>
        <time>2016-05-15T11:41:28.000Z</time>
      </trkpt>
      <trkpt lat="43.83906" lon="7.23728">
        <ele>572</ele>
        <time>2016-05-15T11:41:29.000Z</time>
      </trkpt>
      <trkpt lat="43.83903" lon="7.23729">
        <ele>572</ele>
        <time>2016-05-15T11:41:30.000Z</time>
      </trkpt>
      <trkpt lat="43.839" lon="7.23729">
        <ele>571</ele>
        <time>2016-05-15T11:41:31.000Z</time>
      </trkpt>
      <trkpt lat="43.83898" lon="7.23731">
        <ele>571</ele>
        <time>2016-05-15T11:41:32.000Z</time>
      </trkpt>
      <trkpt lat="43.83893" lon="7.23732">
        <ele>570</ele>
        <time>2016-05-15T11:41:35.000Z</time>
      </trkpt>
      <trkpt lat="43.83891" lon="7.23734">
        <ele>569</ele>
        <time>2016-05-15T11:41:37.000Z</time>
      </trkpt>
      <trkpt lat="43.83887" lon="7.23736">
        <ele>569</ele>
        <time>2016-05-15T11:41:39.000Z</time>
      </trkpt>
      <trkpt lat="43.83881" lon="7.23737">
        <ele>567</ele>
        <time>2016-05-15T11:41:42.000Z</time>
      </trkpt>
      <trkpt lat="43.83881" lon="7.23737">
        <ele>567</ele>
        <time>2016-05-15T11:41:43.000Z</time>
      </trkpt>
      <trkpt lat="43.83878" lon="7.23738">
        <ele>566</ele>
        <time>2016-05-15T11:41:45.000Z</time>
      </trkpt>
      <trkpt lat="43.83876" lon="7.23738">
        <ele>566</ele>
        <time>2016-05-15T11:41:46.000Z</time>
      </trkpt>
      <trkpt lat="43.83871" lon="7.23736">
        <ele>565</ele>
        <time>2016-05-15T11:41:48.000Z</time>
      </trkpt>
      <trkpt lat="43.83867" lon="7.23737">
        <ele>564</ele>
        <time>2016-05-15T11:41:50.000Z</time>
      </trkpt>
      <trkpt lat="43.83865" lon="7.23738">
        <ele>563</ele>
        <time>2016-05-15T11:41:51.000Z</time>
      </trkpt>
      <trkpt lat="43.8386" lon="7.23741">
        <ele>562</ele>
        <time>2016-05-15T11:41:53.000Z</time>
      </trkpt>
      <trkpt lat="43.83854" lon="7.23741">
        <ele>560</ele>
        <time>2016-05-15T11:41:55.000Z</time>
      </trkpt>
      <trkpt lat="43.83848" lon="7.23742">
        <ele>558</ele>
        <time>2016-05-15T11:41:57.000Z</time>
      </trkpt>
      <trkpt lat="43.83846" lon="7.23744">
        <ele>557</ele>
        <time>2016-05-15T11:41:58.000Z</time>
      </trkpt>
      <trkpt lat="43.8384" lon="7.23747">
        <ele>555</ele>
        <time>2016-05-15T11:42:00.000Z</time>
      </trkpt>
      <trkpt lat="43.83833" lon="7.23751">
        <ele>551</ele>
        <time>2016-05-15T11:42:02.000Z</time>
      </trkpt>
      <trkpt lat="43.8383" lon="7.23755">
        <ele>550</ele>
        <time>2016-05-15T11:42:03.000Z</time>
      </trkpt>
      <trkpt lat="43.83826" lon="7.23759">
        <ele>549</ele>
        <time>2016-05-15T11:42:04.000Z</time>
      </trkpt>
      <trkpt lat="43.83816" lon="7.23768">
        <ele>547</ele>
        <time>2016-05-15T11:42:06.000Z</time>
      </trkpt>
      <trkpt lat="43.83812" lon="7.23774">
        <ele>547</ele>
        <time>2016-05-15T11:42:07.000Z</time>
      </trkpt>
      <trkpt lat="43.83808" lon="7.23779">
        <ele>547</ele>
        <time>2016-05-15T11:42:08.000Z</time>
      </trkpt>
      <trkpt lat="43.83805" lon="7.23783">
        <ele>546</ele>
        <time>2016-05-15T11:42:09.000Z</time>
      </trkpt>
      <trkpt lat="43.83803" lon="7.23789">
        <ele>547</ele>
        <time>2016-05-15T11:42:10.000Z</time>
      </trkpt>
      <trkpt lat="43.83801" lon="7.23797">
        <ele>547</ele>
        <time>2016-05-15T11:42:12.000Z</time>
      </trkpt>
      <trkpt lat="43.83798" lon="7.23799">
        <ele>547</ele>
        <time>2016-05-15T11:42:13.000Z</time>
      </trkpt>
      <trkpt lat="43.83796" lon="7.23801">
        <ele>547</ele>
        <time>2016-05-15T11:42:14.000Z</time>
      </trkpt>
      <trkpt lat="43.83794" lon="7.23804">
        <ele>547</ele>
        <time>2016-05-15T11:42:15.000Z</time>
      </trkpt>
      <trkpt lat="43.83793" lon="7.23805">
        <ele>547</ele>
        <time>2016-05-15T11:42:16.000Z</time>
      </trkpt>
      <trkpt lat="43.83793" lon="7.23809">
        <ele>547</ele>
        <time>2016-05-15T11:42:17.000Z</time>
      </trkpt>
      <trkpt lat="43.83792" lon="7.23814">
        <ele>547</ele>
        <time>2016-05-15T11:42:18.000Z</time>
      </trkpt>
      <trkpt lat="43.83791" lon="7.23819">
        <ele>547</ele>
        <time>2016-05-15T11:42:19.000Z</time>
      </trkpt>
      <trkpt lat="43.83789" lon="7.23827">
        <ele>548</ele>
        <time>2016-05-15T11:42:20.000Z</time>
      </trkpt>
      <trkpt lat="43.83787" lon="7.23831">
        <ele>547</ele>
        <time>2016-05-15T11:42:21.000Z</time>
      </trkpt>
      <trkpt lat="43.83782" lon="7.23834">
        <ele>559</ele>
        <time>2016-05-15T11:42:22.000Z</time>
      </trkpt>
      <trkpt lat="43.83773" lon="7.23838">
        <ele>556</ele>
        <time>2016-05-15T11:42:24.000Z</time>
      </trkpt>
      <trkpt lat="43.83763" lon="7.23839">
        <ele>551</ele>
        <time>2016-05-15T11:42:26.000Z</time>
      </trkpt>
      <trkpt lat="43.83754" lon="7.23838">
        <ele>546</ele>
        <time>2016-05-15T11:42:28.000Z</time>
      </trkpt>
      <trkpt lat="43.83741" lon="7.23838">
        <ele>541</ele>
        <time>2016-05-15T11:42:31.000Z</time>
      </trkpt>
      <trkpt lat="43.83738" lon="7.23838">
        <ele>541</ele>
        <time>2016-05-15T11:42:32.000Z</time>
      </trkpt>
      <trkpt lat="43.83734" lon="7.23837">
        <ele>541</ele>
        <time>2016-05-15T11:42:33.000Z</time>
      </trkpt>
      <trkpt lat="43.83731" lon="7.23837">
        <ele>541</ele>
        <time>2016-05-15T11:42:34.000Z</time>
      </trkpt>
      <trkpt lat="43.83727" lon="7.23839">
        <ele>541</ele>
        <time>2016-05-15T11:42:35.000Z</time>
      </trkpt>
      <trkpt lat="43.83722" lon="7.23837">
        <ele>540</ele>
        <time>2016-05-15T11:42:36.000Z</time>
      </trkpt>
      <trkpt lat="43.8372" lon="7.23837">
        <ele>540</ele>
        <time>2016-05-15T11:42:37.000Z</time>
      </trkpt>
      <trkpt lat="43.83719" lon="7.23839">
        <ele>540</ele>
        <time>2016-05-15T11:42:38.000Z</time>
      </trkpt>
      <trkpt lat="43.83719" lon="7.23839">
        <ele>540</ele>
        <time>2016-05-15T11:42:40.000Z</time>
      </trkpt>
      <trkpt lat="43.83719" lon="7.23839">
        <ele>540</ele>
        <time>2016-05-15T11:42:41.000Z</time>
      </trkpt>
      <trkpt lat="43.83719" lon="7.2384">
        <ele>540</ele>
        <time>2016-05-15T11:42:42.000Z</time>
      </trkpt>
      <trkpt lat="43.83717" lon="7.23841">
        <ele>540</ele>
        <time>2016-05-15T11:42:47.000Z</time>
      </trkpt>
      <trkpt lat="43.83716" lon="7.23838">
        <ele>539</ele>
        <time>2016-05-15T11:42:50.000Z</time>
      </trkpt>
      <trkpt lat="43.83715" lon="7.23837">
        <ele>539</ele>
        <time>2016-05-15T11:42:52.000Z</time>
      </trkpt>
      <trkpt lat="43.83715" lon="7.23836">
        <ele>539</ele>
        <time>2016-05-15T11:42:53.000Z</time>
      </trkpt>
      <trkpt lat="43.83716" lon="7.23836">
        <ele>539</ele>
        <time>2016-05-15T11:42:54.000Z</time>
      </trkpt>
      <trkpt lat="43.83715" lon="7.23834">
        <ele>539</ele>
        <time>2016-05-15T11:42:55.000Z</time>
      </trkpt>
      <trkpt lat="43.83715" lon="7.23834">
        <ele>539</ele>
        <time>2016-05-15T11:42:56.000Z</time>
      </trkpt>
      <trkpt lat="43.83715" lon="7.23833">
        <ele>524</ele>
        <time>2016-05-15T11:42:57.000Z</time>
      </trkpt>
      <trkpt lat="43.83714" lon="7.23831">
        <ele>524</ele>
        <time>2016-05-15T11:42:59.000Z</time>
      </trkpt>
      <trkpt lat="43.83712" lon="7.23831">
        <ele>524</ele>
        <time>2016-05-15T11:43:01.000Z</time>
      </trkpt>
      <trkpt lat="43.83708" lon="7.23831">
        <ele>523</ele>
        <time>2016-05-15T11:43:04.000Z</time>
      </trkpt>
      <trkpt lat="43.83706" lon="7.23832">
        <ele>522</ele>
        <time>2016-05-15T11:43:07.000Z</time>
      </trkpt>
      <trkpt lat="43.83705" lon="7.2383">
        <ele>522</ele>
        <time>2016-05-15T11:43:11.000Z</time>
      </trkpt>
      <trkpt lat="43.83705" lon="7.2383">
        <ele>522</ele>
        <time>2016-05-15T11:43:13.000Z</time>
      </trkpt>
      <trkpt lat="43.83704" lon="7.23826">
        <ele>522</ele>
        <time>2016-05-15T11:43:15.000Z</time>
      </trkpt>
      <trkpt lat="43.83706" lon="7.23822">
        <ele>522</ele>
        <time>2016-05-15T11:43:17.000Z</time>
      </trkpt>
      <trkpt lat="43.83703" lon="7.23819">
        <ele>521</ele>
        <time>2016-05-15T11:43:20.000Z</time>
      </trkpt>
      <trkpt lat="43.83701" lon="7.2382">
        <ele>521</ele>
        <time>2016-05-15T11:43:21.000Z</time>
      </trkpt>
      <trkpt lat="43.83697" lon="7.23822">
        <ele>520</ele>
        <time>2016-05-15T11:43:23.000Z</time>
      </trkpt>
      <trkpt lat="43.83695" lon="7.23815">
        <ele>520</ele>
        <time>2016-05-15T11:43:25.000Z</time>
      </trkpt>
      <trkpt lat="43.83694" lon="7.23811">
        <ele>519</ele>
        <time>2016-05-15T11:43:26.000Z</time>
      </trkpt>
      <trkpt lat="43.83693" lon="7.23806">
        <ele>519</ele>
        <time>2016-05-15T11:43:28.000Z</time>
      </trkpt>
      <trkpt lat="43.83692" lon="7.23803">
        <ele>519</ele>
        <time>2016-05-15T11:43:30.000Z</time>
      </trkpt>
      <trkpt lat="43.83694" lon="7.238">
        <ele>519</ele>
        <time>2016-05-15T11:43:31.000Z</time>
      </trkpt>
      <trkpt lat="43.83698" lon="7.23799">
        <ele>519</ele>
        <time>2016-05-15T11:43:33.000Z</time>
      </trkpt>
      <trkpt lat="43.83699" lon="7.23798">
        <ele>519</ele>
        <time>2016-05-15T11:43:34.000Z</time>
      </trkpt>
      <trkpt lat="43.837" lon="7.23797">
        <ele>519</ele>
        <time>2016-05-15T11:43:37.000Z</time>
      </trkpt>
      <trkpt lat="43.83699" lon="7.23797">
        <ele>519</ele>
        <time>2016-05-15T11:43:45.000Z</time>
      </trkpt>
      <trkpt lat="43.83697" lon="7.23793">
        <ele>518</ele>
        <time>2016-05-15T11:43:50.000Z</time>
      </trkpt>
      <trkpt lat="43.83697" lon="7.23793">
        <ele>518</ele>
        <time>2016-05-15T11:43:52.000Z</time>
      </trkpt>
      <trkpt lat="43.83697" lon="7.23793">
        <ele>518</ele>
        <time>2016-05-15T11:43:53.000Z</time>
      </trkpt>
      <trkpt lat="43.83695" lon="7.23793">
        <ele>518</ele>
        <time>2016-05-15T11:43:57.000Z</time>
      </trkpt>
      <trkpt lat="43.83691" lon="7.23792">
        <ele>517</ele>
        <time>2016-05-15T11:43:59.000Z</time>
      </trkpt>
      <trkpt lat="43.83685" lon="7.2379">
        <ele>516</ele>
        <time>2016-05-15T11:44:02.000Z</time>
      </trkpt>
      <trkpt lat="43.83682" lon="7.23792">
        <ele>516</ele>
        <time>2016-05-15T11:44:03.000Z</time>
      </trkpt>
      <trkpt lat="43.83679" lon="7.23796">
        <ele>517</ele>
        <time>2016-05-15T11:44:04.000Z</time>
      </trkpt>
      <trkpt lat="43.83676" lon="7.23801">
        <ele>517</ele>
        <time>2016-05-15T11:44:05.000Z</time>
      </trkpt>
      <trkpt lat="43.83674" lon="7.23803">
        <ele>517</ele>
        <time>2016-05-15T11:44:06.000Z</time>
      </trkpt>
      <trkpt lat="43.83671" lon="7.23801">
        <ele>517</ele>
        <time>2016-05-15T11:44:07.000Z</time>
      </trkpt>
      <trkpt lat="43.83669" lon="7.23802">
        <ele>517</ele>
        <time>2016-05-15T11:44:08.000Z</time>
      </trkpt>
      <trkpt lat="43.83664" lon="7.23799">
        <ele>501</ele>
        <time>2016-05-15T11:44:10.000Z</time>
      </trkpt>
      <trkpt lat="43.83663" lon="7.23797">
        <ele>501</ele>
        <time>2016-05-15T11:44:11.000Z</time>
      </trkpt>
      <trkpt lat="43.83663" lon="7.23795">
        <ele>500</ele>
        <time>2016-05-15T11:44:12.000Z</time>
      </trkpt>
      <trkpt lat="43.83662" lon="7.23794">
        <ele>500</ele>
        <time>2016-05-15T11:44:13.000Z</time>
      </trkpt>
      <trkpt lat="43.83662" lon="7.2379">
        <ele>499</ele>
        <time>2016-05-15T11:44:14.000Z</time>
      </trkpt>
      <trkpt lat="43.83659" lon="7.23784">
        <ele>498</ele>
        <time>2016-05-15T11:44:16.000Z</time>
      </trkpt>
      <trkpt lat="43.83656" lon="7.23775">
        <ele>498</ele>
        <time>2016-05-15T11:44:18.000Z</time>
      </trkpt>
      <trkpt lat="43.83654" lon="7.23772">
        <ele>497</ele>
        <time>2016-05-15T11:44:19.000Z</time>
      </trkpt>
      <trkpt lat="43.83652" lon="7.2377">
        <ele>497</ele>
        <time>2016-05-15T11:44:20.000Z</time>
      </trkpt>
      <trkpt lat="43.83649" lon="7.23766">
        <ele>497</ele>
        <time>2016-05-15T11:44:22.000Z</time>
      </trkpt>
      <trkpt lat="43.83648" lon="7.23762">
        <ele>496</ele>
        <time>2016-05-15T11:44:23.000Z</time>
      </trkpt>
      <trkpt lat="43.83648" lon="7.23758">
        <ele>496</ele>
        <time>2016-05-15T11:44:24.000Z</time>
      </trkpt>
      <trkpt lat="43.83647" lon="7.23756">
        <ele>496</ele>
        <time>2016-05-15T11:44:25.000Z</time>
      </trkpt>
      <trkpt lat="43.83643" lon="7.23757">
        <ele>495</ele>
        <time>2016-05-15T11:44:27.000Z</time>
      </trkpt>
      <trkpt lat="43.83639" lon="7.23762">
        <ele>495</ele>
        <time>2016-05-15T11:44:29.000Z</time>
      </trkpt>
      <trkpt lat="43.83633" lon="7.23767">
        <ele>494</ele>
        <time>2016-05-15T11:44:31.000Z</time>
      </trkpt>
      <trkpt lat="43.83628" lon="7.2377">
        <ele>493</ele>
        <time>2016-05-15T11:44:32.000Z</time>
      </trkpt>
      <trkpt lat="43.83624" lon="7.23773">
        <ele>493</ele>
        <time>2016-05-15T11:44:33.000Z</time>
      </trkpt>
      <trkpt lat="43.83618" lon="7.23776">
        <ele>492</ele>
        <time>2016-05-15T11:44:34.000Z</time>
      </trkpt>
      <trkpt lat="43.83602" lon="7.23786">
        <ele>490</ele>
        <time>2016-05-15T11:44:37.000Z</time>
      </trkpt>
      <trkpt lat="43.83597" lon="7.2379">
        <ele>490</ele>
        <time>2016-05-15T11:44:38.000Z</time>
      </trkpt>
      <trkpt lat="43.83593" lon="7.23795">
        <ele>491</ele>
        <time>2016-05-15T11:44:39.000Z</time>
      </trkpt>
      <trkpt lat="43.83585" lon="7.23803">
        <ele>491</ele>
        <time>2016-05-15T11:44:41.000Z</time>
      </trkpt>
      <trkpt lat="43.83583" lon="7.23808">
        <ele>475</ele>
        <time>2016-05-15T11:44:42.000Z</time>
      </trkpt>
      <trkpt lat="43.83566" lon="7.23836">
        <ele>487</ele>
        <time>2016-05-15T11:44:50.000Z</time>
      </trkpt>
      <trkpt lat="43.8356" lon="7.23848">
        <ele>486</ele>
        <time>2016-05-15T11:44:54.000Z</time>
      </trkpt>
      <trkpt lat="43.83557" lon="7.23853">
        <ele>485</ele>
        <time>2016-05-15T11:44:56.000Z</time>
      </trkpt>
      <trkpt lat="43.83554" lon="7.23863">
        <ele>486</ele>
        <time>2016-05-15T11:45:00.000Z</time>
      </trkpt>
      <trkpt lat="43.83552" lon="7.23869">
        <ele>486</ele>
        <time>2016-05-15T11:45:02.000Z</time>
      </trkpt>
      <trkpt lat="43.83547" lon="7.23883">
        <ele>488</ele>
        <time>2016-05-15T11:45:07.000Z</time>
      </trkpt>
      <trkpt lat="43.83547" lon="7.23886">
        <ele>488</ele>
        <time>2016-05-15T11:45:08.000Z</time>
      </trkpt>
      <trkpt lat="43.83545" lon="7.23891">
        <ele>488</ele>
        <time>2016-05-15T11:45:10.000Z</time>
      </trkpt>
      <trkpt lat="43.83543" lon="7.23894">
        <ele>488</ele>
        <time>2016-05-15T11:45:11.000Z</time>
      </trkpt>
      <trkpt lat="43.83539" lon="7.23901">
        <ele>488</ele>
        <time>2016-05-15T11:45:14.000Z</time>
      </trkpt>
      <trkpt lat="43.83535" lon="7.23909">
        <ele>488</ele>
        <time>2016-05-15T11:45:17.000Z</time>
      </trkpt>
      <trkpt lat="43.83532" lon="7.23921">
        <ele>502</ele>
        <time>2016-05-15T11:45:22.000Z</time>
      </trkpt>
      <trkpt lat="43.83532" lon="7.23923">
        <ele>502</ele>
        <time>2016-05-15T11:45:23.000Z</time>
      </trkpt>
      <trkpt lat="43.83531" lon="7.2393">
        <ele>503</ele>
        <time>2016-05-15T11:45:26.000Z</time>
      </trkpt>
      <trkpt lat="43.83526" lon="7.23938">
        <ele>503</ele>
        <time>2016-05-15T11:45:30.000Z</time>
      </trkpt>
      <trkpt lat="43.83524" lon="7.23941">
        <ele>503</ele>
        <time>2016-05-15T11:45:31.000Z</time>
      </trkpt>
      <trkpt lat="43.83512" lon="7.23957">
        <ele>503</ele>
        <time>2016-05-15T11:45:36.000Z</time>
      </trkpt>
      <trkpt lat="43.83503" lon="7.23968">
        <ele>504</ele>
        <time>2016-05-15T11:45:40.000Z</time>
      </trkpt>
      <trkpt lat="43.83498" lon="7.23974">
        <ele>484</ele>
        <time>2016-05-15T11:45:42.000Z</time>
      </trkpt>
      <trkpt lat="43.83483" lon="7.2399">
        <ele>486</ele>
        <time>2016-05-15T11:45:49.000Z</time>
      </trkpt>
      <trkpt lat="43.83481" lon="7.23994">
        <ele>485</ele>
        <time>2016-05-15T11:45:50.000Z</time>
      </trkpt>
      <trkpt lat="43.83472" lon="7.2401">
        <ele>489</ele>
        <time>2016-05-15T11:45:54.000Z</time>
      </trkpt>
      <trkpt lat="43.83471" lon="7.24033">
        <ele>487</ele>
        <time>2016-05-15T11:45:58.000Z</time>
      </trkpt>
      <trkpt lat="43.83476" lon="7.24057">
        <ele>490</ele>
        <time>2016-05-15T11:46:03.000Z</time>
      </trkpt>
      <trkpt lat="43.83481" lon="7.24072">
        <ele>494</ele>
        <time>2016-05-15T11:46:08.000Z</time>
      </trkpt>
      <trkpt lat="43.83484" lon="7.24078">
        <ele>496</ele>
        <time>2016-05-15T11:46:11.000Z</time>
      </trkpt>
      <trkpt lat="43.83488" lon="7.24083">
        <ele>499</ele>
        <time>2016-05-15T11:46:14.000Z</time>
      </trkpt>
      <trkpt lat="43.83488" lon="7.24084">
        <ele>496</ele>
        <time>2016-05-15T11:46:15.000Z</time>
      </trkpt>
      <trkpt lat="43.83489" lon="7.24088">
        <ele>496</ele>
        <time>2016-05-15T11:46:18.000Z</time>
      </trkpt>
      <trkpt lat="43.83489" lon="7.2409">
        <ele>495</ele>
        <time>2016-05-15T11:46:19.000Z</time>
      </trkpt>
      <trkpt lat="43.8349" lon="7.24091">
        <ele>495</ele>
        <time>2016-05-15T11:46:20.000Z</time>
      </trkpt>
      <trkpt lat="43.8349" lon="7.24092">
        <ele>495</ele>
        <time>2016-05-15T11:46:21.000Z</time>
      </trkpt>
      <trkpt lat="43.83491" lon="7.24094">
        <ele>495</ele>
        <time>2016-05-15T11:46:22.000Z</time>
      </trkpt>
      <trkpt lat="43.83492" lon="7.24096">
        <ele>494</ele>
        <time>2016-05-15T11:46:24.000Z</time>
      </trkpt>
      <trkpt lat="43.83493" lon="7.24097">
        <ele>494</ele>
        <time>2016-05-15T11:46:27.000Z</time>
      </trkpt>
      <trkpt lat="43.83493" lon="7.24097">
        <ele>494</ele>
        <time>2016-05-15T11:46:29.000Z</time>
      </trkpt>
      <trkpt lat="43.83495" lon="7.24102">
        <ele>492</ele>
        <time>2016-05-15T11:46:35.000Z</time>
      </trkpt>
      <trkpt lat="43.83498" lon="7.24108">
        <ele>489</ele>
        <time>2016-05-15T11:46:41.000Z</time>
      </trkpt>
      <trkpt lat="43.835" lon="7.24112">
        <ele>513</ele>
        <time>2016-05-15T11:46:45.000Z</time>
      </trkpt>
      <trkpt lat="43.83502" lon="7.24116">
        <ele>513</ele>
        <time>2016-05-15T11:46:50.000Z</time>
      </trkpt>
      <trkpt lat="43.83504" lon="7.24117">
        <ele>513</ele>
        <time>2016-05-15T11:46:53.000Z</time>
      </trkpt>
      <trkpt lat="43.83506" lon="7.24121">
        <ele>513</ele>
        <time>2016-05-15T11:46:57.000Z</time>
      </trkpt>
      <trkpt lat="43.83508" lon="7.24123">
        <ele>513</ele>
        <time>2016-05-15T11:47:00.000Z</time>
      </trkpt>
      <trkpt lat="43.83512" lon="7.24129">
        <ele>512</ele>
        <time>2016-05-15T11:47:07.000Z</time>
      </trkpt>
      <trkpt lat="43.83512" lon="7.2413">
        <ele>512</ele>
        <time>2016-05-15T11:47:08.000Z</time>
      </trkpt>
      <trkpt lat="43.83514" lon="7.24133">
        <ele>512</ele>
        <time>2016-05-15T11:47:12.000Z</time>
      </trkpt>
      <trkpt lat="43.83514" lon="7.24135">
        <ele>511</ele>
        <time>2016-05-15T11:47:16.000Z</time>
      </trkpt>
      <trkpt lat="43.83515" lon="7.24135">
        <ele>512</ele>
        <time>2016-05-15T11:47:18.000Z</time>
      </trkpt>
      <trkpt lat="43.83517" lon="7.24138">
        <ele>511</ele>
        <time>2016-05-15T11:47:22.000Z</time>
      </trkpt>
      <trkpt lat="43.83522" lon="7.24148">
        <ele>510</ele>
        <time>2016-05-15T11:47:28.000Z</time>
      </trkpt>
      <trkpt lat="43.83524" lon="7.24151">
        <ele>511</ele>
        <time>2016-05-15T11:47:30.000Z</time>
      </trkpt>
      <trkpt lat="43.83531" lon="7.24158">
        <ele>512</ele>
        <time>2016-05-15T11:47:35.000Z</time>
      </trkpt>
      <trkpt lat="43.83534" lon="7.24161">
        <ele>513</ele>
        <time>2016-05-15T11:47:37.000Z</time>
      </trkpt>
      <trkpt lat="43.83538" lon="7.24166">
        <ele>515</ele>
        <time>2016-05-15T11:47:40.000Z</time>
      </trkpt>
      <trkpt lat="43.8354" lon="7.24167">
        <ele>507</ele>
        <time>2016-05-15T11:47:42.000Z</time>
      </trkpt>
      <trkpt lat="43.83542" lon="7.24168">
        <ele>508</ele>
        <time>2016-05-15T11:47:43.000Z</time>
      </trkpt>
      <trkpt lat="43.83545" lon="7.24169">
        <ele>509</ele>
        <time>2016-05-15T11:47:45.000Z</time>
      </trkpt>
      <trkpt lat="43.83549" lon="7.24172">
        <ele>510</ele>
        <time>2016-05-15T11:47:49.000Z</time>
      </trkpt>
      <trkpt lat="43.8355" lon="7.24173">
        <ele>511</ele>
        <time>2016-05-15T11:47:50.000Z</time>
      </trkpt>
      <trkpt lat="43.83554" lon="7.24175">
        <ele>512</ele>
        <time>2016-05-15T11:47:55.000Z</time>
      </trkpt>
      <trkpt lat="43.83555" lon="7.24175">
        <ele>513</ele>
        <time>2016-05-15T11:47:56.000Z</time>
      </trkpt>
      <trkpt lat="43.83558" lon="7.24176">
        <ele>514</ele>
        <time>2016-05-15T11:48:00.000Z</time>
      </trkpt>
      <trkpt lat="43.83559" lon="7.24177">
        <ele>514</ele>
        <time>2016-05-15T11:48:01.000Z</time>
      </trkpt>
      <trkpt lat="43.83562" lon="7.24178">
        <ele>515</ele>
        <time>2016-05-15T11:48:03.000Z</time>
      </trkpt>
      <trkpt lat="43.83567" lon="7.24178">
        <ele>518</ele>
        <time>2016-05-15T11:48:08.000Z</time>
      </trkpt>
      <trkpt lat="43.83568" lon="7.24178">
        <ele>518</ele>
        <time>2016-05-15T11:48:09.000Z</time>
      </trkpt>
      <trkpt lat="43.83575" lon="7.24177">
        <ele>521</ele>
        <time>2016-05-15T11:48:14.000Z</time>
      </trkpt>
      <trkpt lat="43.83578" lon="7.24179">
        <ele>521</ele>
        <time>2016-05-15T11:48:17.000Z</time>
      </trkpt>
      <trkpt lat="43.83585" lon="7.24181">
        <ele>539</ele>
        <time>2016-05-15T11:48:23.000Z</time>
      </trkpt>
      <trkpt lat="43.8359" lon="7.24189">
        <ele>542</ele>
        <time>2016-05-15T11:48:28.000Z</time>
      </trkpt>
      <trkpt lat="43.83589" lon="7.24191">
        <ele>542</ele>
        <time>2016-05-15T11:48:29.000Z</time>
      </trkpt>
      <trkpt lat="43.83588" lon="7.24196">
        <ele>543</ele>
        <time>2016-05-15T11:48:32.000Z</time>
      </trkpt>
      <trkpt lat="43.83588" lon="7.24198">
        <ele>543</ele>
        <time>2016-05-15T11:48:33.000Z</time>
      </trkpt>
      <trkpt lat="43.83586" lon="7.242">
        <ele>543</ele>
        <time>2016-05-15T11:48:34.000Z</time>
      </trkpt>
      <trkpt lat="43.83584" lon="7.24203">
        <ele>542</ele>
        <time>2016-05-15T11:48:37.000Z</time>
      </trkpt>
      <trkpt lat="43.83581" lon="7.24209">
        <ele>514</ele>
        <time>2016-05-15T11:48:41.000Z</time>
      </trkpt>
      <trkpt lat="43.8358" lon="7.24214">
        <ele>514</ele>
        <time>2016-05-15T11:48:44.000Z</time>
      </trkpt>
      <trkpt lat="43.8358" lon="7.24216">
        <ele>514</ele>
        <time>2016-05-15T11:48:45.000Z</time>
      </trkpt>
      <trkpt lat="43.83579" lon="7.2422">
        <ele>514</ele>
        <time>2016-05-15T11:48:47.000Z</time>
      </trkpt>
      <trkpt lat="43.8358" lon="7.24224">
        <ele>514</ele>
        <time>2016-05-15T11:48:49.000Z</time>
      </trkpt>
      <trkpt lat="43.83581" lon="7.24242">
        <ele>519</ele>
        <time>2016-05-15T11:48:57.000Z</time>
      </trkpt>
      <trkpt lat="43.83581" lon="7.24246">
        <ele>521</ele>
        <time>2016-05-15T11:48:59.000Z</time>
      </trkpt>
      <trkpt lat="43.83582" lon="7.24257">
        <ele>519</ele>
        <time>2016-05-15T11:49:04.000Z</time>
      </trkpt>
      <trkpt lat="43.83583" lon="7.24261">
        <ele>517</ele>
        <time>2016-05-15T11:49:06.000Z</time>
      </trkpt>
      <trkpt lat="43.83583" lon="7.24267">
        <ele>515</ele>
        <time>2016-05-15T11:49:10.000Z</time>
      </trkpt>
      <trkpt lat="43.83583" lon="7.24268">
        <ele>515</ele>
        <time>2016-05-15T11:49:11.000Z</time>
      </trkpt>
      <trkpt lat="43.83584" lon="7.2427">
        <ele>537</ele>
        <time>2016-05-15T11:49:16.000Z</time>
      </trkpt>
      <trkpt lat="43.83584" lon="7.24271">
        <ele>537</ele>
        <time>2016-05-15T11:49:17.000Z</time>
      </trkpt>
      <trkpt lat="43.83584" lon="7.24276">
        <ele>539</ele>
        <time>2016-05-15T11:49:23.000Z</time>
      </trkpt>
      <trkpt lat="43.83584" lon="7.24279">
        <ele>539</ele>
        <time>2016-05-15T11:49:26.000Z</time>
      </trkpt>
      <trkpt lat="43.83583" lon="7.24282">
        <ele>512</ele>
        <time>2016-05-15T11:49:28.000Z</time>
      </trkpt>
      <trkpt lat="43.83583" lon="7.24283">
        <ele>512</ele>
        <time>2016-05-15T11:49:29.000Z</time>
      </trkpt>
      <trkpt lat="43.83585" lon="7.24287">
        <ele>540</ele>
        <time>2016-05-15T11:49:34.000Z</time>
      </trkpt>
      <trkpt lat="43.83585" lon="7.24288">
        <ele>540</ele>
        <time>2016-05-15T11:49:35.000Z</time>
      </trkpt>
      <trkpt lat="43.83586" lon="7.24295">
        <ele>541</ele>
        <time>2016-05-15T11:49:42.000Z</time>
      </trkpt>
      <trkpt lat="43.83587" lon="7.24297">
        <ele>541</ele>
        <time>2016-05-15T11:49:43.000Z</time>
      </trkpt>
      <trkpt lat="43.83588" lon="7.24304">
        <ele>541</ele>
        <time>2016-05-15T11:49:49.000Z</time>
      </trkpt>
      <trkpt lat="43.83588" lon="7.24304">
        <ele>541</ele>
        <time>2016-05-15T11:49:50.000Z</time>
      </trkpt>
      <trkpt lat="43.83587" lon="7.24307">
        <ele>540</ele>
        <time>2016-05-15T11:49:53.000Z</time>
      </trkpt>
      <trkpt lat="43.83588" lon="7.24308">
        <ele>540</ele>
        <time>2016-05-15T11:49:54.000Z</time>
      </trkpt>
      <trkpt lat="43.83594" lon="7.24321">
        <ele>538</ele>
        <time>2016-05-15T11:50:01.000Z</time>
      </trkpt>
      <trkpt lat="43.83596" lon="7.24327">
        <ele>537</ele>
        <time>2016-05-15T11:50:05.000Z</time>
      </trkpt>
      <trkpt lat="43.83598" lon="7.24329">
        <ele>538</ele>
        <time>2016-05-15T11:50:07.000Z</time>
      </trkpt>
      <trkpt lat="43.83599" lon="7.24341">
        <ele>539</ele>
        <time>2016-05-15T11:50:12.000Z</time>
      </trkpt>
      <trkpt lat="43.83598" lon="7.24343">
        <ele>539</ele>
        <time>2016-05-15T11:50:13.000Z</time>
      </trkpt>
      <trkpt lat="43.83596" lon="7.24351">
        <ele>541</ele>
        <time>2016-05-15T11:50:18.000Z</time>
      </trkpt>
      <trkpt lat="43.83596" lon="7.24352">
        <ele>541</ele>
        <time>2016-05-15T11:50:19.000Z</time>
      </trkpt>
      <trkpt lat="43.83593" lon="7.24358">
        <ele>542</ele>
        <time>2016-05-15T11:50:22.000Z</time>
      </trkpt>
      <trkpt lat="43.83594" lon="7.24364">
        <ele>543</ele>
        <time>2016-05-15T11:50:26.000Z</time>
      </trkpt>
      <trkpt lat="43.83594" lon="7.24369">
        <ele>543</ele>
        <time>2016-05-15T11:50:28.000Z</time>
      </trkpt>
      <trkpt lat="43.83592" lon="7.24374">
        <ele>543</ele>
        <time>2016-05-15T11:50:30.000Z</time>
      </trkpt>
      <trkpt lat="43.83591" lon="7.24379">
        <ele>543</ele>
        <time>2016-05-15T11:50:32.000Z</time>
      </trkpt>
      <trkpt lat="43.83589" lon="7.24383">
        <ele>543</ele>
        <time>2016-05-15T11:50:34.000Z</time>
      </trkpt>
      <trkpt lat="43.83589" lon="7.24385">
        <ele>543</ele>
        <time>2016-05-15T11:50:35.000Z</time>
      </trkpt>
      <trkpt lat="43.83588" lon="7.24387">
        <ele>543</ele>
        <time>2016-05-15T11:50:36.000Z</time>
      </trkpt>
      <trkpt lat="43.83585" lon="7.24398">
        <ele>541</ele>
        <time>2016-05-15T11:50:41.000Z</time>
      </trkpt>
      <trkpt lat="43.83585" lon="7.24404">
        <ele>540</ele>
        <time>2016-05-15T11:50:43.000Z</time>
      </trkpt>
      <trkpt lat="43.83584" lon="7.24408">
        <ele>538</ele>
        <time>2016-05-15T11:50:45.000Z</time>
      </trkpt>
      <trkpt lat="43.83584" lon="7.24415">
        <ele>535</ele>
        <time>2016-05-15T11:50:48.000Z</time>
      </trkpt>
      <trkpt lat="43.83585" lon="7.24421">
        <ele>536</ele>
        <time>2016-05-15T11:50:51.000Z</time>
      </trkpt>
      <trkpt lat="43.83591" lon="7.24437">
        <ele>540</ele>
        <time>2016-05-15T11:50:57.000Z</time>
      </trkpt>
      <trkpt lat="43.83593" lon="7.24445">
        <ele>541</ele>
        <time>2016-05-15T11:51:00.000Z</time>
      </trkpt>
      <trkpt lat="43.83595" lon="7.2445">
        <ele>541</ele>
        <time>2016-05-15T11:51:03.000Z</time>
      </trkpt>
      <trkpt lat="43.83598" lon="7.24467">
        <ele>541</ele>
        <time>2016-05-15T11:51:07.000Z</time>
      </trkpt>
      <trkpt lat="43.83594" lon="7.24488">
        <ele>539</ele>
        <time>2016-05-15T11:51:10.000Z</time>
      </trkpt>
      <trkpt lat="43.83592" lon="7.24493">
        <ele>538</ele>
        <time>2016-05-15T11:51:11.000Z</time>
      </trkpt>
      <trkpt lat="43.83591" lon="7.24499">
        <ele>537</ele>
        <time>2016-05-15T11:51:12.000Z</time>
      </trkpt>
      <trkpt lat="43.8359" lon="7.24505">
        <ele>534</ele>
        <time>2016-05-15T11:51:13.000Z</time>
      </trkpt>
      <trkpt lat="43.8359" lon="7.24512">
        <ele>534</ele>
        <time>2016-05-15T11:51:14.000Z</time>
      </trkpt>
      <trkpt lat="43.8359" lon="7.24519">
        <ele>533</ele>
        <time>2016-05-15T11:51:15.000Z</time>
      </trkpt>
      <trkpt lat="43.83589" lon="7.24527">
        <ele>533</ele>
        <time>2016-05-15T11:51:16.000Z</time>
      </trkpt>
      <trkpt lat="43.83588" lon="7.24541">
        <ele>532</ele>
        <time>2016-05-15T11:51:18.000Z</time>
      </trkpt>
      <trkpt lat="43.83586" lon="7.24546">
        <ele>532</ele>
        <time>2016-05-15T11:51:19.000Z</time>
      </trkpt>
      <trkpt lat="43.8358" lon="7.2456">
        <ele>527</ele>
        <time>2016-05-15T11:51:22.000Z</time>
      </trkpt>
      <trkpt lat="43.8358" lon="7.24563">
        <ele>527</ele>
        <time>2016-05-15T11:51:23.000Z</time>
      </trkpt>
      <trkpt lat="43.83579" lon="7.24568">
        <ele>527</ele>
        <time>2016-05-15T11:51:24.000Z</time>
      </trkpt>
      <trkpt lat="43.83577" lon="7.24577">
        <ele>528</ele>
        <time>2016-05-15T11:51:26.000Z</time>
      </trkpt>
      <trkpt lat="43.83575" lon="7.24589">
        <ele>526</ele>
        <time>2016-05-15T11:51:28.000Z</time>
      </trkpt>
      <trkpt lat="43.83569" lon="7.24605">
        <ele>524</ele>
        <time>2016-05-15T11:51:31.000Z</time>
      </trkpt>
      <trkpt lat="43.83566" lon="7.24609">
        <ele>523</ele>
        <time>2016-05-15T11:51:32.000Z</time>
      </trkpt>
      <trkpt lat="43.83564" lon="7.24612">
        <ele>523</ele>
        <time>2016-05-15T11:51:33.000Z</time>
      </trkpt>
      <trkpt lat="43.83563" lon="7.24614">
        <ele>523</ele>
        <time>2016-05-15T11:51:34.000Z</time>
      </trkpt>
      <trkpt lat="43.83562" lon="7.24615">
        <ele>523</ele>
        <time>2016-05-15T11:51:35.000Z</time>
      </trkpt>
      <trkpt lat="43.83562" lon="7.24616">
        <ele>523</ele>
        <time>2016-05-15T11:51:36.000Z</time>
      </trkpt>
      <trkpt lat="43.83562" lon="7.24615">
        <ele>523</ele>
        <time>2016-05-15T11:51:37.000Z</time>
      </trkpt>
      <trkpt lat="43.83562" lon="7.24617">
        <ele>523</ele>
        <time>2016-05-15T11:51:39.000Z</time>
      </trkpt>
      <trkpt lat="43.83562" lon="7.24618">
        <ele>522</ele>
        <time>2016-05-15T11:51:41.000Z</time>
      </trkpt>
      <trkpt lat="43.83561" lon="7.2462">
        <ele>522</ele>
        <time>2016-05-15T11:51:44.000Z</time>
      </trkpt>
      <trkpt lat="43.8356" lon="7.24622">
        <ele>522</ele>
        <time>2016-05-15T11:51:47.000Z</time>
      </trkpt>
      <trkpt lat="43.8356" lon="7.24623">
        <ele>522</ele>
        <time>2016-05-15T11:51:48.000Z</time>
      </trkpt>
      <trkpt lat="43.8356" lon="7.24629">
        <ele>522</ele>
        <time>2016-05-15T11:51:53.000Z</time>
      </trkpt>
      <trkpt lat="43.83559" lon="7.24632">
        <ele>521</ele>
        <time>2016-05-15T11:51:55.000Z</time>
      </trkpt>
      <trkpt lat="43.83557" lon="7.24636">
        <ele>521</ele>
        <time>2016-05-15T11:51:58.000Z</time>
      </trkpt>
      <trkpt lat="43.83556" lon="7.24636">
        <ele>521</ele>
        <time>2016-05-15T11:51:59.000Z</time>
      </trkpt>
      <trkpt lat="43.83556" lon="7.24638">
        <ele>521</ele>
        <time>2016-05-15T11:52:00.000Z</time>
      </trkpt>
      <trkpt lat="43.83554" lon="7.2464">
        <ele>521</ele>
        <time>2016-05-15T11:52:02.000Z</time>
      </trkpt>
      <trkpt lat="43.83547" lon="7.24645">
        <ele>520</ele>
        <time>2016-05-15T11:52:05.000Z</time>
      </trkpt>
      <trkpt lat="43.83529" lon="7.24654">
        <ele>520</ele>
        <time>2016-05-15T11:52:12.000Z</time>
      </trkpt>
      <trkpt lat="43.83511" lon="7.24665">
        <ele>518</ele>
        <time>2016-05-15T11:52:17.000Z</time>
      </trkpt>
      <trkpt lat="43.83488" lon="7.24679">
        <ele>515</ele>
        <time>2016-05-15T11:52:21.000Z</time>
      </trkpt>
      <trkpt lat="43.83477" lon="7.24688">
        <ele>514</ele>
        <time>2016-05-15T11:52:23.000Z</time>
      </trkpt>
      <trkpt lat="43.83463" lon="7.24698">
        <ele>514</ele>
        <time>2016-05-15T11:52:26.000Z</time>
      </trkpt>
      <trkpt lat="43.83457" lon="7.24701">
        <ele>514</ele>
        <time>2016-05-15T11:52:27.000Z</time>
      </trkpt>
      <trkpt lat="43.83434" lon="7.24712">
        <ele>515</ele>
        <time>2016-05-15T11:52:31.000Z</time>
      </trkpt>
      <trkpt lat="43.83422" lon="7.24717">
        <ele>516</ele>
        <time>2016-05-15T11:52:33.000Z</time>
      </trkpt>
      <trkpt lat="43.83398" lon="7.24724">
        <ele>510</ele>
        <time>2016-05-15T11:52:37.000Z</time>
      </trkpt>
      <trkpt lat="43.83381" lon="7.24724">
        <ele>508</ele>
        <time>2016-05-15T11:52:40.000Z</time>
      </trkpt>
      <trkpt lat="43.83371" lon="7.24725">
        <ele>507</ele>
        <time>2016-05-15T11:52:42.000Z</time>
      </trkpt>
      <trkpt lat="43.83348" lon="7.24732">
        <ele>507</ele>
        <time>2016-05-15T11:52:48.000Z</time>
      </trkpt>
      <trkpt lat="43.83341" lon="7.24735">
        <ele>508</ele>
        <time>2016-05-15T11:52:50.000Z</time>
      </trkpt>
      <trkpt lat="43.83316" lon="7.24748">
        <ele>504</ele>
        <time>2016-05-15T11:52:57.000Z</time>
      </trkpt>
      <trkpt lat="43.8329" lon="7.24759">
        <ele>521</ele>
        <time>2016-05-15T11:53:04.000Z</time>
      </trkpt>
      <trkpt lat="43.83279" lon="7.24762">
        <ele>521</ele>
        <time>2016-05-15T11:53:07.000Z</time>
      </trkpt>
      <trkpt lat="43.83264" lon="7.24766">
        <ele>519</ele>
        <time>2016-05-15T11:53:12.000Z</time>
      </trkpt>
      <trkpt lat="43.83258" lon="7.24768">
        <ele>519</ele>
        <time>2016-05-15T11:53:14.000Z</time>
      </trkpt>
      <trkpt lat="43.83245" lon="7.24771">
        <ele>517</ele>
        <time>2016-05-15T11:53:19.000Z</time>
      </trkpt>
      <trkpt lat="43.8324" lon="7.24771">
        <ele>517</ele>
        <time>2016-05-15T11:53:21.000Z</time>
      </trkpt>
      <trkpt lat="43.83233" lon="7.24774">
        <ele>518</ele>
        <time>2016-05-15T11:53:24.000Z</time>
      </trkpt>
      <trkpt lat="43.83223" lon="7.24776">
        <ele>519</ele>
        <time>2016-05-15T11:53:28.000Z</time>
      </trkpt>
      <trkpt lat="43.83215" lon="7.24778">
        <ele>519</ele>
        <time>2016-05-15T11:53:31.000Z</time>
      </trkpt>
      <trkpt lat="43.83203" lon="7.24781">
        <ele>519</ele>
        <time>2016-05-15T11:53:36.000Z</time>
      </trkpt>
      <trkpt lat="43.83196" lon="7.24783">
        <ele>519</ele>
        <time>2016-05-15T11:53:39.000Z</time>
      </trkpt>
      <trkpt lat="43.83187" lon="7.24787">
        <ele>520</ele>
        <time>2016-05-15T11:53:43.000Z</time>
      </trkpt>
      <trkpt lat="43.83185" lon="7.24789">
        <ele>520</ele>
        <time>2016-05-15T11:53:45.000Z</time>
      </trkpt>
      <trkpt lat="43.83178" lon="7.24793">
        <ele>521</ele>
        <time>2016-05-15T11:53:48.000Z</time>
      </trkpt>
      <trkpt lat="43.83173" lon="7.24798">
        <ele>523</ele>
        <time>2016-05-15T11:53:51.000Z</time>
      </trkpt>
      <trkpt lat="43.83166" lon="7.24805">
        <ele>521</ele>
        <time>2016-05-15T11:53:55.000Z</time>
      </trkpt>
      <trkpt lat="43.83164" lon="7.24807">
        <ele>521</ele>
        <time>2016-05-15T11:53:56.000Z</time>
      </trkpt>
      <trkpt lat="43.83153" lon="7.24818">
        <ele>524</ele>
        <time>2016-05-15T11:54:02.000Z</time>
      </trkpt>
      <trkpt lat="43.83151" lon="7.2482">
        <ele>524</ele>
        <time>2016-05-15T11:54:03.000Z</time>
      </trkpt>
      <trkpt lat="43.83143" lon="7.24826">
        <ele>523</ele>
        <time>2016-05-15T11:54:07.000Z</time>
      </trkpt>
      <trkpt lat="43.8314" lon="7.2483">
        <ele>523</ele>
        <time>2016-05-15T11:54:09.000Z</time>
      </trkpt>
      <trkpt lat="43.83133" lon="7.24835">
        <ele>538</ele>
        <time>2016-05-15T11:54:12.000Z</time>
      </trkpt>
      <trkpt lat="43.83121" lon="7.24839">
        <ele>537</ele>
        <time>2016-05-15T11:54:17.000Z</time>
      </trkpt>
      <trkpt lat="43.83119" lon="7.2484">
        <ele>537</ele>
        <time>2016-05-15T11:54:18.000Z</time>
      </trkpt>
      <trkpt lat="43.83104" lon="7.24844">
        <ele>535</ele>
        <time>2016-05-15T11:54:24.000Z</time>
      </trkpt>
      <trkpt lat="43.83091" lon="7.24847">
        <ele>533</ele>
        <time>2016-05-15T11:54:28.000Z</time>
      </trkpt>
      <trkpt lat="43.83077" lon="7.24849">
        <ele>529</ele>
        <time>2016-05-15T11:54:32.000Z</time>
      </trkpt>
      <trkpt lat="43.83059" lon="7.24857">
        <ele>531</ele>
        <time>2016-05-15T11:54:37.000Z</time>
      </trkpt>
      <trkpt lat="43.83055" lon="7.24862">
        <ele>531</ele>
        <time>2016-05-15T11:54:38.000Z</time>
      </trkpt>
      <trkpt lat="43.83037" lon="7.24886">
        <ele>534</ele>
        <time>2016-05-15T11:54:42.000Z</time>
      </trkpt>
      <trkpt lat="43.83031" lon="7.2489">
        <ele>534</ele>
        <time>2016-05-15T11:54:43.000Z</time>
      </trkpt>
      <trkpt lat="43.83024" lon="7.24888">
        <ele>533</ele>
        <time>2016-05-15T11:54:44.000Z</time>
      </trkpt>
      <trkpt lat="43.83017" lon="7.24885">
        <ele>533</ele>
        <time>2016-05-15T11:54:45.000Z</time>
      </trkpt>
      <trkpt lat="43.83013" lon="7.2488">
        <ele>532</ele>
        <time>2016-05-15T11:54:46.000Z</time>
      </trkpt>
      <trkpt lat="43.83005" lon="7.24874">
        <ele>531</ele>
        <time>2016-05-15T11:54:48.000Z</time>
      </trkpt>
      <trkpt lat="43.82992" lon="7.24865">
        <ele>525</ele>
        <time>2016-05-15T11:54:52.000Z</time>
      </trkpt>
      <trkpt lat="43.82984" lon="7.24862">
        <ele>525</ele>
        <time>2016-05-15T11:54:55.000Z</time>
      </trkpt>
      <trkpt lat="43.82976" lon="7.2486">
        <ele>524</ele>
        <time>2016-05-15T11:54:58.000Z</time>
      </trkpt>
      <trkpt lat="43.8297" lon="7.24861">
        <ele>525</ele>
        <time>2016-05-15T11:55:00.000Z</time>
      </trkpt>
      <trkpt lat="43.82957" lon="7.24861">
        <ele>524</ele>
        <time>2016-05-15T11:55:04.000Z</time>
      </trkpt>
      <trkpt lat="43.82951" lon="7.24863">
        <ele>524</ele>
        <time>2016-05-15T11:55:06.000Z</time>
      </trkpt>
      <trkpt lat="43.8293" lon="7.24868">
        <ele>524</ele>
        <time>2016-05-15T11:55:12.000Z</time>
      </trkpt>
      <trkpt lat="43.82919" lon="7.24878">
        <ele>526</ele>
        <time>2016-05-15T11:55:16.000Z</time>
      </trkpt>
      <trkpt lat="43.82901" lon="7.24894">
        <ele>522</ele>
        <time>2016-05-15T11:55:21.000Z</time>
      </trkpt>
      <trkpt lat="43.82875" lon="7.24923">
        <ele>531</ele>
        <time>2016-05-15T11:55:28.000Z</time>
      </trkpt>
      <trkpt lat="43.82872" lon="7.24929">
        <ele>531</ele>
        <time>2016-05-15T11:55:29.000Z</time>
      </trkpt>
      <trkpt lat="43.82861" lon="7.24958">
        <ele>532</ele>
        <time>2016-05-15T11:55:33.000Z</time>
      </trkpt>
      <trkpt lat="43.82857" lon="7.24964">
        <ele>532</ele>
        <time>2016-05-15T11:55:34.000Z</time>
      </trkpt>
      <trkpt lat="43.82852" lon="7.24969">
        <ele>532</ele>
        <time>2016-05-15T11:55:35.000Z</time>
      </trkpt>
      <trkpt lat="43.82841" lon="7.24974">
        <ele>532</ele>
        <time>2016-05-15T11:55:37.000Z</time>
      </trkpt>
      <trkpt lat="43.8283" lon="7.24973">
        <ele>527</ele>
        <time>2016-05-15T11:55:39.000Z</time>
      </trkpt>
      <trkpt lat="43.82821" lon="7.24968">
        <ele>526</ele>
        <time>2016-05-15T11:55:41.000Z</time>
      </trkpt>
      <trkpt lat="43.82805" lon="7.24962">
        <ele>525</ele>
        <time>2016-05-15T11:55:44.000Z</time>
      </trkpt>
      <trkpt lat="43.82786" lon="7.24959">
        <ele>524</ele>
        <time>2016-05-15T11:55:47.000Z</time>
      </trkpt>
      <trkpt lat="43.82757" lon="7.24963">
        <ele>525</ele>
        <time>2016-05-15T11:55:51.000Z</time>
      </trkpt>
      <trkpt lat="43.8275" lon="7.24967">
        <ele>525</ele>
        <time>2016-05-15T11:55:52.000Z</time>
      </trkpt>
      <trkpt lat="43.82746" lon="7.24973">
        <ele>522</ele>
        <time>2016-05-15T11:55:53.000Z</time>
      </trkpt>
      <trkpt lat="43.82742" lon="7.24977">
        <ele>523</ele>
        <time>2016-05-15T11:55:55.000Z</time>
      </trkpt>
      <trkpt lat="43.8274" lon="7.24978">
        <ele>523</ele>
        <time>2016-05-15T11:55:56.000Z</time>
      </trkpt>
      <trkpt lat="43.82732" lon="7.24984">
        <ele>523</ele>
        <time>2016-05-15T11:56:00.000Z</time>
      </trkpt>
      <trkpt lat="43.82726" lon="7.24988">
        <ele>522</ele>
        <time>2016-05-15T11:56:03.000Z</time>
      </trkpt>
      <trkpt lat="43.82722" lon="7.24993">
        <ele>522</ele>
        <time>2016-05-15T11:56:06.000Z</time>
      </trkpt>
      <trkpt lat="43.8272" lon="7.24994">
        <ele>522</ele>
        <time>2016-05-15T11:56:07.000Z</time>
      </trkpt>
      <trkpt lat="43.82712" lon="7.25002">
        <ele>534</ele>
        <time>2016-05-15T11:56:12.000Z</time>
      </trkpt>
      <trkpt lat="43.82709" lon="7.25004">
        <ele>534</ele>
        <time>2016-05-15T11:56:14.000Z</time>
      </trkpt>
      <trkpt lat="43.82704" lon="7.25008">
        <ele>533</ele>
        <time>2016-05-15T11:56:17.000Z</time>
      </trkpt>
      <trkpt lat="43.82698" lon="7.25014">
        <ele>533</ele>
        <time>2016-05-15T11:56:22.000Z</time>
      </trkpt>
      <trkpt lat="43.82697" lon="7.25015">
        <ele>533</ele>
        <time>2016-05-15T11:56:23.000Z</time>
      </trkpt>
      <trkpt lat="43.8269" lon="7.25021">
        <ele>533</ele>
        <time>2016-05-15T11:56:28.000Z</time>
      </trkpt>
      <trkpt lat="43.82687" lon="7.25023">
        <ele>533</ele>
        <time>2016-05-15T11:56:30.000Z</time>
      </trkpt>
      <trkpt lat="43.82683" lon="7.25026">
        <ele>533</ele>
        <time>2016-05-15T11:56:33.000Z</time>
      </trkpt>
      <trkpt lat="43.82677" lon="7.25031">
        <ele>534</ele>
        <time>2016-05-15T11:56:37.000Z</time>
      </trkpt>
      <trkpt lat="43.82674" lon="7.25034">
        <ele>534</ele>
        <time>2016-05-15T11:56:39.000Z</time>
      </trkpt>
      <trkpt lat="43.82665" lon="7.25042">
        <ele>529</ele>
        <time>2016-05-15T11:56:45.000Z</time>
      </trkpt>
      <trkpt lat="43.82664" lon="7.25044">
        <ele>529</ele>
        <time>2016-05-15T11:56:46.000Z</time>
      </trkpt>
      <trkpt lat="43.82659" lon="7.25049">
        <ele>530</ele>
        <time>2016-05-15T11:56:50.000Z</time>
      </trkpt>
      <trkpt lat="43.82652" lon="7.25058">
        <ele>532</ele>
        <time>2016-05-15T11:56:56.000Z</time>
      </trkpt>
      <trkpt lat="43.82651" lon="7.25059">
        <ele>532</ele>
        <time>2016-05-15T11:56:57.000Z</time>
      </trkpt>
      <trkpt lat="43.82644" lon="7.25066">
        <ele>532</ele>
        <time>2016-05-15T11:57:03.000Z</time>
      </trkpt>
      <trkpt lat="43.82642" lon="7.25069">
        <ele>532</ele>
        <time>2016-05-15T11:57:05.000Z</time>
      </trkpt>
      <trkpt lat="43.82636" lon="7.25075">
        <ele>532</ele>
        <time>2016-05-15T11:57:09.000Z</time>
      </trkpt>
      <trkpt lat="43.8263" lon="7.25081">
        <ele>531</ele>
        <time>2016-05-15T11:57:14.000Z</time>
      </trkpt>
      <trkpt lat="43.82629" lon="7.25082">
        <ele>531</ele>
        <time>2016-05-15T11:57:16.000Z</time>
      </trkpt>
      <trkpt lat="43.82623" lon="7.25087">
        <ele>546</ele>
        <time>2016-05-15T11:57:20.000Z</time>
      </trkpt>
      <trkpt lat="43.82622" lon="7.25088">
        <ele>546</ele>
        <time>2016-05-15T11:57:21.000Z</time>
      </trkpt>
      <trkpt lat="43.82622" lon="7.25089">
        <ele>546</ele>
        <time>2016-05-15T11:57:22.000Z</time>
      </trkpt>
      <trkpt lat="43.82619" lon="7.25091">
        <ele>546</ele>
        <time>2016-05-15T11:57:24.000Z</time>
      </trkpt>
      <trkpt lat="43.82613" lon="7.25096">
        <ele>545</ele>
        <time>2016-05-15T11:57:28.000Z</time>
      </trkpt>
      <trkpt lat="43.82612" lon="7.25096">
        <ele>545</ele>
        <time>2016-05-15T11:57:29.000Z</time>
      </trkpt>
      <trkpt lat="43.82606" lon="7.25101">
        <ele>545</ele>
        <time>2016-05-15T11:57:34.000Z</time>
      </trkpt>
      <trkpt lat="43.82603" lon="7.25103">
        <ele>545</ele>
        <time>2016-05-15T11:57:36.000Z</time>
      </trkpt>
      <trkpt lat="43.82597" lon="7.25107">
        <ele>545</ele>
        <time>2016-05-15T11:57:41.000Z</time>
      </trkpt>
      <trkpt lat="43.82589" lon="7.25112">
        <ele>546</ele>
        <time>2016-05-15T11:57:47.000Z</time>
      </trkpt>
      <trkpt lat="43.82588" lon="7.25113">
        <ele>546</ele>
        <time>2016-05-15T11:57:48.000Z</time>
      </trkpt>
      <trkpt lat="43.8258" lon="7.25122">
        <ele>543</ele>
        <time>2016-05-15T11:57:55.000Z</time>
      </trkpt>
      <trkpt lat="43.82574" lon="7.25129">
        <ele>544</ele>
        <time>2016-05-15T11:58:01.000Z</time>
      </trkpt>
      <trkpt lat="43.82573" lon="7.2513">
        <ele>544</ele>
        <time>2016-05-15T11:58:02.000Z</time>
      </trkpt>
      <trkpt lat="43.82572" lon="7.25131">
        <ele>545</ele>
        <time>2016-05-15T11:58:03.000Z</time>
      </trkpt>
      <trkpt lat="43.82566" lon="7.25136">
        <ele>545</ele>
        <time>2016-05-15T11:58:07.000Z</time>
      </trkpt>
      <trkpt lat="43.8256" lon="7.25142">
        <ele>546</ele>
        <time>2016-05-15T11:58:12.000Z</time>
      </trkpt>
      <trkpt lat="43.82558" lon="7.25144">
        <ele>546</ele>
        <time>2016-05-15T11:58:14.000Z</time>
      </trkpt>
      <trkpt lat="43.82552" lon="7.25149">
        <ele>546</ele>
        <time>2016-05-15T11:58:20.000Z</time>
      </trkpt>
      <trkpt lat="43.82551" lon="7.2515">
        <ele>546</ele>
        <time>2016-05-15T11:58:21.000Z</time>
      </trkpt>
      <trkpt lat="43.82543" lon="7.25155">
        <ele>546</ele>
        <time>2016-05-15T11:58:27.000Z</time>
      </trkpt>
      <trkpt lat="43.82539" lon="7.25157">
        <ele>546</ele>
        <time>2016-05-15T11:58:30.000Z</time>
      </trkpt>
      <trkpt lat="43.82534" lon="7.2516">
        <ele>546</ele>
        <time>2016-05-15T11:58:34.000Z</time>
      </trkpt>
      <trkpt lat="43.82527" lon="7.25163">
        <ele>547</ele>
        <time>2016-05-15T11:58:39.000Z</time>
      </trkpt>
      <trkpt lat="43.82526" lon="7.25163">
        <ele>547</ele>
        <time>2016-05-15T11:58:40.000Z</time>
      </trkpt>
      <trkpt lat="43.82517" lon="7.25169">
        <ele>560</ele>
        <time>2016-05-15T11:58:47.000Z</time>
      </trkpt>
      <trkpt lat="43.82516" lon="7.25169">
        <ele>559</ele>
        <time>2016-05-15T11:58:48.000Z</time>
      </trkpt>
      <trkpt lat="43.82508" lon="7.25175">
        <ele>558</ele>
        <time>2016-05-15T11:58:54.000Z</time>
      </trkpt>
      <trkpt lat="43.82505" lon="7.25178">
        <ele>559</ele>
        <time>2016-05-15T11:58:57.000Z</time>
      </trkpt>
      <trkpt lat="43.82499" lon="7.25184">
        <ele>556</ele>
        <time>2016-05-15T11:59:02.000Z</time>
      </trkpt>
      <trkpt lat="43.82492" lon="7.25191">
        <ele>558</ele>
        <time>2016-05-15T11:59:08.000Z</time>
      </trkpt>
      <trkpt lat="43.82483" lon="7.25198">
        <ele>559</ele>
        <time>2016-05-15T11:59:15.000Z</time>
      </trkpt>
      <trkpt lat="43.8248" lon="7.25199">
        <ele>559</ele>
        <time>2016-05-15T11:59:17.000Z</time>
      </trkpt>
      <trkpt lat="43.82474" lon="7.25203">
        <ele>560</ele>
        <time>2016-05-15T11:59:22.000Z</time>
      </trkpt>
      <trkpt lat="43.8247" lon="7.25204">
        <ele>560</ele>
        <time>2016-05-15T11:59:24.000Z</time>
      </trkpt>
      <trkpt lat="43.82462" lon="7.25208">
        <ele>560</ele>
        <time>2016-05-15T11:59:29.000Z</time>
      </trkpt>
      <trkpt lat="43.82455" lon="7.25211">
        <ele>560</ele>
        <time>2016-05-15T11:59:33.000Z</time>
      </trkpt>
      <trkpt lat="43.82447" lon="7.25215">
        <ele>560</ele>
        <time>2016-05-15T11:59:37.000Z</time>
      </trkpt>
      <trkpt lat="43.82437" lon="7.2522">
        <ele>561</ele>
        <time>2016-05-15T11:59:43.000Z</time>
      </trkpt>
      <trkpt lat="43.82433" lon="7.25222">
        <ele>561</ele>
        <time>2016-05-15T11:59:45.000Z</time>
      </trkpt>
      <trkpt lat="43.82424" lon="7.25229">
        <ele>562</ele>
        <time>2016-05-15T11:59:50.000Z</time>
      </trkpt>
      <trkpt lat="43.82416" lon="7.25234">
        <ele>559</ele>
        <time>2016-05-15T11:59:55.000Z</time>
      </trkpt>
      <trkpt lat="43.82407" lon="7.2524">
        <ele>560</ele>
        <time>2016-05-15T12:00:00.000Z</time>
      </trkpt>
      <trkpt lat="43.82401" lon="7.25244">
        <ele>559</ele>
        <time>2016-05-15T12:00:03.000Z</time>
      </trkpt>
      <trkpt lat="43.82379" lon="7.25257">
        <ele>571</ele>
        <time>2016-05-15T12:00:12.000Z</time>
      </trkpt>
      <trkpt lat="43.8235" lon="7.25272">
        <ele>569</ele>
        <time>2016-05-15T12:00:21.000Z</time>
      </trkpt>
      <trkpt lat="43.82321" lon="7.25289">
        <ele>562</ele>
        <time>2016-05-15T12:00:29.000Z</time>
      </trkpt>
      <trkpt lat="43.82295" lon="7.25309">
        <ele>563</ele>
        <time>2016-05-15T12:00:36.000Z</time>
      </trkpt>
      <trkpt lat="43.82261" lon="7.25343">
        <ele>569</ele>
        <time>2016-05-15T12:00:44.000Z</time>
      </trkpt>
      <trkpt lat="43.82227" lon="7.25384">
        <ele>563</ele>
        <time>2016-05-15T12:00:52.000Z</time>
      </trkpt>
      <trkpt lat="43.82211" lon="7.25397">
        <ele>562</ele>
        <time>2016-05-15T12:00:55.000Z</time>
      </trkpt>
      <trkpt lat="43.822" lon="7.25404">
        <ele>561</ele>
        <time>2016-05-15T12:00:57.000Z</time>
      </trkpt>
      <trkpt lat="43.82177" lon="7.25417">
        <ele>567</ele>
        <time>2016-05-15T12:01:01.000Z</time>
      </trkpt>
      <trkpt lat="43.82163" lon="7.25431">
        <ele>561</ele>
        <time>2016-05-15T12:01:04.000Z</time>
      </trkpt>
      <trkpt lat="43.82143" lon="7.25453">
        <ele>563</ele>
        <time>2016-05-15T12:01:08.000Z</time>
      </trkpt>
      <trkpt lat="43.82127" lon="7.25468">
        <ele>564</ele>
        <time>2016-05-15T12:01:11.000Z</time>
      </trkpt>
      <trkpt lat="43.82122" lon="7.25472">
        <ele>564</ele>
        <time>2016-05-15T12:01:12.000Z</time>
      </trkpt>
      <trkpt lat="43.82098" lon="7.2549">
        <ele>564</ele>
        <time>2016-05-15T12:01:17.000Z</time>
      </trkpt>
      <trkpt lat="43.8207" lon="7.2551">
        <ele>566</ele>
        <time>2016-05-15T12:01:24.000Z</time>
      </trkpt>
      <trkpt lat="43.82045" lon="7.25529">
        <ele>565</ele>
        <time>2016-05-15T12:01:31.000Z</time>
      </trkpt>
      <trkpt lat="43.82028" lon="7.25541">
        <ele>564</ele>
        <time>2016-05-15T12:01:36.000Z</time>
      </trkpt>
      <trkpt lat="43.82022" lon="7.25547">
        <ele>564</ele>
        <time>2016-05-15T12:01:38.000Z</time>
      </trkpt>
      <trkpt lat="43.82008" lon="7.25565">
        <ele>565</ele>
        <time>2016-05-15T12:01:44.000Z</time>
      </trkpt>
      <trkpt lat="43.82003" lon="7.25571">
        <ele>565</ele>
        <time>2016-05-15T12:01:46.000Z</time>
      </trkpt>
      <trkpt lat="43.81984" lon="7.25591">
        <ele>568</ele>
        <time>2016-05-15T12:01:53.000Z</time>
      </trkpt>
      <trkpt lat="43.81975" lon="7.256">
        <ele>569</ele>
        <time>2016-05-15T12:01:59.000Z</time>
      </trkpt>
      <trkpt lat="43.81967" lon="7.25612">
        <ele>570</ele>
        <time>2016-05-15T12:02:06.000Z</time>
      </trkpt>
      <trkpt lat="43.81964" lon="7.25619">
        <ele>570</ele>
        <time>2016-05-15T12:02:09.000Z</time>
      </trkpt>
      <trkpt lat="43.8196" lon="7.25632">
        <ele>570</ele>
        <time>2016-05-15T12:02:15.000Z</time>
      </trkpt>
      <trkpt lat="43.81956" lon="7.25642">
        <ele>570</ele>
        <time>2016-05-15T12:02:20.000Z</time>
      </trkpt>
      <trkpt lat="43.81951" lon="7.25655">
        <ele>571</ele>
        <time>2016-05-15T12:02:27.000Z</time>
      </trkpt>
      <trkpt lat="43.81949" lon="7.25661">
        <ele>571</ele>
        <time>2016-05-15T12:02:30.000Z</time>
      </trkpt>
      <trkpt lat="43.81942" lon="7.25675">
        <ele>566</ele>
        <time>2016-05-15T12:02:37.000Z</time>
      </trkpt>
      <trkpt lat="43.81939" lon="7.25683">
        <ele>566</ele>
        <time>2016-05-15T12:02:41.000Z</time>
      </trkpt>
      <trkpt lat="43.81938" lon="7.25685">
        <ele>566</ele>
        <time>2016-05-15T12:02:42.000Z</time>
      </trkpt>
      <trkpt lat="43.81929" lon="7.257">
        <ele>565</ele>
        <time>2016-05-15T12:02:50.000Z</time>
      </trkpt>
      <trkpt lat="43.81928" lon="7.25702">
        <ele>565</ele>
        <time>2016-05-15T12:02:51.000Z</time>
      </trkpt>
      <trkpt lat="43.81923" lon="7.2571">
        <ele>564</ele>
        <time>2016-05-15T12:02:56.000Z</time>
      </trkpt>
      <trkpt lat="43.81919" lon="7.25717">
        <ele>564</ele>
        <time>2016-05-15T12:03:01.000Z</time>
      </trkpt>
      <trkpt lat="43.81915" lon="7.25723">
        <ele>577</ele>
        <time>2016-05-15T12:03:04.000Z</time>
      </trkpt>
      <trkpt lat="43.81909" lon="7.25735">
        <ele>575</ele>
        <time>2016-05-15T12:03:10.000Z</time>
      </trkpt>
      <trkpt lat="43.81908" lon="7.25736">
        <ele>575</ele>
        <time>2016-05-15T12:03:11.000Z</time>
      </trkpt>
      <trkpt lat="43.81901" lon="7.25746">
        <ele>574</ele>
        <time>2016-05-15T12:03:16.000Z</time>
      </trkpt>
      <trkpt lat="43.81897" lon="7.2575">
        <ele>567</ele>
        <time>2016-05-15T12:03:19.000Z</time>
      </trkpt>
      <trkpt lat="43.81892" lon="7.25756">
        <ele>567</ele>
        <time>2016-05-15T12:03:23.000Z</time>
      </trkpt>
      <trkpt lat="43.81885" lon="7.25761">
        <ele>568</ele>
        <time>2016-05-15T12:03:27.000Z</time>
      </trkpt>
      <trkpt lat="43.8188" lon="7.25763">
        <ele>568</ele>
        <time>2016-05-15T12:03:30.000Z</time>
      </trkpt>
      <trkpt lat="43.81872" lon="7.25766">
        <ele>569</ele>
        <time>2016-05-15T12:03:35.000Z</time>
      </trkpt>
      <trkpt lat="43.81866" lon="7.25766">
        <ele>569</ele>
        <time>2016-05-15T12:03:37.000Z</time>
      </trkpt>
      <trkpt lat="43.81853" lon="7.25766">
        <ele>571</ele>
        <time>2016-05-15T12:03:44.000Z</time>
      </trkpt>
      <trkpt lat="43.81851" lon="7.25765">
        <ele>572</ele>
        <time>2016-05-15T12:03:45.000Z</time>
      </trkpt>
      <trkpt lat="43.81843" lon="7.25762">
        <ele>574</ele>
        <time>2016-05-15T12:03:50.000Z</time>
      </trkpt>
      <trkpt lat="43.81839" lon="7.25759">
        <ele>576</ele>
        <time>2016-05-15T12:03:53.000Z</time>
      </trkpt>
      <trkpt lat="43.81834" lon="7.25756">
        <ele>578</ele>
        <time>2016-05-15T12:03:56.000Z</time>
      </trkpt>
      <trkpt lat="43.81825" lon="7.2575">
        <ele>576</ele>
        <time>2016-05-15T12:04:02.000Z</time>
      </trkpt>
      <trkpt lat="43.81824" lon="7.25748">
        <ele>581</ele>
        <time>2016-05-15T12:04:03.000Z</time>
      </trkpt>
      <trkpt lat="43.81818" lon="7.25741">
        <ele>581</ele>
        <time>2016-05-15T12:04:08.000Z</time>
      </trkpt>
      <trkpt lat="43.81812" lon="7.25733">
        <ele>580</ele>
        <time>2016-05-15T12:04:13.000Z</time>
      </trkpt>
      <trkpt lat="43.81806" lon="7.25723">
        <ele>580</ele>
        <time>2016-05-15T12:04:19.000Z</time>
      </trkpt>
      <trkpt lat="43.81801" lon="7.25711">
        <ele>581</ele>
        <time>2016-05-15T12:04:26.000Z</time>
      </trkpt>
      <trkpt lat="43.81795" lon="7.25699">
        <ele>581</ele>
        <time>2016-05-15T12:04:33.000Z</time>
      </trkpt>
      <trkpt lat="43.81794" lon="7.25697">
        <ele>581</ele>
        <time>2016-05-15T12:04:34.000Z</time>
      </trkpt>
      <trkpt lat="43.8179" lon="7.25682">
        <ele>582</ele>
        <time>2016-05-15T12:04:42.000Z</time>
      </trkpt>
      <trkpt lat="43.81787" lon="7.2567">
        <ele>582</ele>
        <time>2016-05-15T12:04:49.000Z</time>
      </trkpt>
      <trkpt lat="43.81785" lon="7.25665">
        <ele>591</ele>
        <time>2016-05-15T12:04:52.000Z</time>
      </trkpt>
      <trkpt lat="43.81782" lon="7.25654">
        <ele>591</ele>
        <time>2016-05-15T12:04:58.000Z</time>
      </trkpt>
      <trkpt lat="43.81779" lon="7.25645">
        <ele>591</ele>
        <time>2016-05-15T12:05:03.000Z</time>
      </trkpt>
      <trkpt lat="43.81779" lon="7.25639">
        <ele>591</ele>
        <time>2016-05-15T12:05:06.000Z</time>
      </trkpt>
      <trkpt lat="43.81776" lon="7.25624">
        <ele>592</ele>
        <time>2016-05-15T12:05:14.000Z</time>
      </trkpt>
      <trkpt lat="43.81776" lon="7.2562">
        <ele>593</ele>
        <time>2016-05-15T12:05:16.000Z</time>
      </trkpt>
      <trkpt lat="43.81774" lon="7.25605">
        <ele>593</ele>
        <time>2016-05-15T12:05:24.000Z</time>
      </trkpt>
      <trkpt lat="43.81773" lon="7.25599">
        <ele>593</ele>
        <time>2016-05-15T12:05:27.000Z</time>
      </trkpt>
      <trkpt lat="43.81772" lon="7.25587">
        <ele>593</ele>
        <time>2016-05-15T12:05:33.000Z</time>
      </trkpt>
      <trkpt lat="43.8177" lon="7.25576">
        <ele>596</ele>
        <time>2016-05-15T12:05:38.000Z</time>
      </trkpt>
      <trkpt lat="43.81769" lon="7.25574">
        <ele>596</ele>
        <time>2016-05-15T12:05:39.000Z</time>
      </trkpt>
      <trkpt lat="43.81765" lon="7.25555">
        <ele>597</ele>
        <time>2016-05-15T12:05:48.000Z</time>
      </trkpt>
      <trkpt lat="43.81762" lon="7.25544">
        <ele>598</ele>
        <time>2016-05-15T12:05:54.000Z</time>
      </trkpt>
      <trkpt lat="43.81758" lon="7.25535">
        <ele>598</ele>
        <time>2016-05-15T12:05:59.000Z</time>
      </trkpt>
      <trkpt lat="43.81755" lon="7.25528">
        <ele>599</ele>
        <time>2016-05-15T12:06:03.000Z</time>
      </trkpt>
      <trkpt lat="43.81751" lon="7.25518">
        <ele>600</ele>
        <time>2016-05-15T12:06:09.000Z</time>
      </trkpt>
      <trkpt lat="43.8175" lon="7.25516">
        <ele>600</ele>
        <time>2016-05-15T12:06:10.000Z</time>
      </trkpt>
      <trkpt lat="43.81745" lon="7.25507">
        <ele>598</ele>
        <time>2016-05-15T12:06:16.000Z</time>
      </trkpt>
      <trkpt lat="43.81742" lon="7.25503">
        <ele>598</ele>
        <time>2016-05-15T12:06:19.000Z</time>
      </trkpt>
      <trkpt lat="43.81736" lon="7.25494">
        <ele>599</ele>
        <time>2016-05-15T12:06:25.000Z</time>
      </trkpt>
      <trkpt lat="43.81731" lon="7.25487">
        <ele>598</ele>
        <time>2016-05-15T12:06:30.000Z</time>
      </trkpt>
      <trkpt lat="43.81728" lon="7.25485">
        <ele>597</ele>
        <time>2016-05-15T12:06:32.000Z</time>
      </trkpt>
      <trkpt lat="43.81717" lon="7.25474">
        <ele>596</ele>
        <time>2016-05-15T12:06:40.000Z</time>
      </trkpt>
      <trkpt lat="43.81716" lon="7.25472">
        <ele>596</ele>
        <time>2016-05-15T12:06:41.000Z</time>
      </trkpt>
      <trkpt lat="43.81703" lon="7.25462">
        <ele>596</ele>
        <time>2016-05-15T12:06:48.000Z</time>
      </trkpt>
      <trkpt lat="43.81697" lon="7.25455">
        <ele>596</ele>
        <time>2016-05-15T12:06:54.000Z</time>
      </trkpt>
      <trkpt lat="43.81692" lon="7.2545">
        <ele>597</ele>
        <time>2016-05-15T12:06:58.000Z</time>
      </trkpt>
      <trkpt lat="43.81686" lon="7.25446">
        <ele>597</ele>
        <time>2016-05-15T12:07:03.000Z</time>
      </trkpt>
      <trkpt lat="43.81684" lon="7.25445">
        <ele>597</ele>
        <time>2016-05-15T12:07:04.000Z</time>
      </trkpt>
      <trkpt lat="43.8168" lon="7.25441">
        <ele>598</ele>
        <time>2016-05-15T12:07:08.000Z</time>
      </trkpt>
      <trkpt lat="43.81676" lon="7.25435">
        <ele>599</ele>
        <time>2016-05-15T12:07:13.000Z</time>
      </trkpt>
      <trkpt lat="43.81675" lon="7.25435">
        <ele>599</ele>
        <time>2016-05-15T12:07:14.000Z</time>
      </trkpt>
      <trkpt lat="43.81673" lon="7.25433">
        <ele>599</ele>
        <time>2016-05-15T12:07:16.000Z</time>
      </trkpt>
      <trkpt lat="43.81671" lon="7.25429">
        <ele>600</ele>
        <time>2016-05-15T12:07:19.000Z</time>
      </trkpt>
      <trkpt lat="43.81668" lon="7.25426">
        <ele>601</ele>
        <time>2016-05-15T12:07:22.000Z</time>
      </trkpt>
      <trkpt lat="43.81662" lon="7.25421">
        <ele>604</ele>
        <time>2016-05-15T12:07:28.000Z</time>
      </trkpt>
      <trkpt lat="43.81659" lon="7.25419">
        <ele>604</ele>
        <time>2016-05-15T12:07:35.000Z</time>
      </trkpt>
      <trkpt lat="43.81659" lon="7.25419">
        <ele>604</ele>
        <time>2016-05-15T12:07:42.000Z</time>
      </trkpt>
      <trkpt lat="43.81659" lon="7.25419">
        <ele>604</ele>
        <time>2016-05-15T12:07:58.000Z</time>
      </trkpt>
      <trkpt lat="43.81656" lon="7.25418">
        <ele>604</ele>
        <time>2016-05-15T12:08:05.000Z</time>
      </trkpt>
      <trkpt lat="43.81652" lon="7.25412">
        <ele>606</ele>
        <time>2016-05-15T12:08:14.000Z</time>
      </trkpt>
      <trkpt lat="43.81646" lon="7.25408">
        <ele>607</ele>
        <time>2016-05-15T12:08:22.000Z</time>
      </trkpt>
      <trkpt lat="43.81641" lon="7.25405">
        <ele>608</ele>
        <time>2016-05-15T12:08:29.000Z</time>
      </trkpt>
      <trkpt lat="43.8164" lon="7.25403">
        <ele>608</ele>
        <time>2016-05-15T12:08:31.000Z</time>
      </trkpt>
      <trkpt lat="43.81638" lon="7.25401">
        <ele>608</ele>
        <time>2016-05-15T12:08:35.000Z</time>
      </trkpt>
      <trkpt lat="43.81635" lon="7.25399">
        <ele>608</ele>
        <time>2016-05-15T12:08:40.000Z</time>
      </trkpt>
      <trkpt lat="43.81633" lon="7.25395">
        <ele>609</ele>
        <time>2016-05-15T12:08:45.000Z</time>
      </trkpt>
      <trkpt lat="43.81631" lon="7.25393">
        <ele>609</ele>
        <time>2016-05-15T12:08:49.000Z</time>
      </trkpt>
      <trkpt lat="43.81629" lon="7.25392">
        <ele>609</ele>
        <time>2016-05-15T12:08:51.000Z</time>
      </trkpt>
      <trkpt lat="43.81626" lon="7.25388">
        <ele>609</ele>
        <time>2016-05-15T12:08:57.000Z</time>
      </trkpt>
      <trkpt lat="43.81625" lon="7.25387">
        <ele>609</ele>
        <time>2016-05-15T12:08:59.000Z</time>
      </trkpt>
      <trkpt lat="43.81621" lon="7.25381">
        <ele>610</ele>
        <time>2016-05-15T12:09:08.000Z</time>
      </trkpt>
      <trkpt lat="43.81617" lon="7.25378">
        <ele>610</ele>
        <time>2016-05-15T12:09:15.000Z</time>
      </trkpt>
      <trkpt lat="43.81617" lon="7.25377">
        <ele>610</ele>
        <time>2016-05-15T12:09:17.000Z</time>
      </trkpt>
      <trkpt lat="43.81613" lon="7.25375">
        <ele>611</ele>
        <time>2016-05-15T12:09:23.000Z</time>
      </trkpt>
      <trkpt lat="43.81612" lon="7.25374">
        <ele>611</ele>
        <time>2016-05-15T12:09:25.000Z</time>
      </trkpt>
      <trkpt lat="43.8161" lon="7.25372">
        <ele>611</ele>
        <time>2016-05-15T12:09:29.000Z</time>
      </trkpt>
      <trkpt lat="43.81608" lon="7.25369">
        <ele>612</ele>
        <time>2016-05-15T12:09:35.000Z</time>
      </trkpt>
      <trkpt lat="43.81607" lon="7.25368">
        <ele>612</ele>
        <time>2016-05-15T12:09:37.000Z</time>
      </trkpt>
      <trkpt lat="43.81605" lon="7.25365">
        <ele>612</ele>
        <time>2016-05-15T12:09:44.000Z</time>
      </trkpt>
      <trkpt lat="43.81604" lon="7.25364">
        <ele>612</ele>
        <time>2016-05-15T12:09:45.000Z</time>
      </trkpt>
      <trkpt lat="43.81601" lon="7.25362">
        <ele>613</ele>
        <time>2016-05-15T12:09:52.000Z</time>
      </trkpt>
      <trkpt lat="43.816" lon="7.25362">
        <ele>613</ele>
        <time>2016-05-15T12:09:55.000Z</time>
      </trkpt>
      <trkpt lat="43.81595" lon="7.25362">
        <ele>614</ele>
        <time>2016-05-15T12:10:05.000Z</time>
      </trkpt>
      <trkpt lat="43.81595" lon="7.25362">
        <ele>614</ele>
        <time>2016-05-15T12:10:07.000Z</time>
      </trkpt>
      <trkpt lat="43.81593" lon="7.25361">
        <ele>614</ele>
        <time>2016-05-15T12:10:13.000Z</time>
      </trkpt>
      <trkpt lat="43.81592" lon="7.2536">
        <ele>614</ele>
        <time>2016-05-15T12:10:16.000Z</time>
      </trkpt>
      <trkpt lat="43.8159" lon="7.25359">
        <ele>615</ele>
        <time>2016-05-15T12:10:21.000Z</time>
      </trkpt>
      <trkpt lat="43.8159" lon="7.25358">
        <ele>615</ele>
        <time>2016-05-15T12:10:22.000Z</time>
      </trkpt>
      <trkpt lat="43.81587" lon="7.25357">
        <ele>615</ele>
        <time>2016-05-15T12:10:29.000Z</time>
      </trkpt>
      <trkpt lat="43.81586" lon="7.25357">
        <ele>615</ele>
        <time>2016-05-15T12:10:31.000Z</time>
      </trkpt>
      <trkpt lat="43.81584" lon="7.25357">
        <ele>616</ele>
        <time>2016-05-15T12:10:37.000Z</time>
      </trkpt>
      <trkpt lat="43.81583" lon="7.25355">
        <ele>628</ele>
        <time>2016-05-15T12:10:40.000Z</time>
      </trkpt>
      <trkpt lat="43.81581" lon="7.25355">
        <ele>628</ele>
        <time>2016-05-15T12:10:43.000Z</time>
      </trkpt>
      <trkpt lat="43.81579" lon="7.25353">
        <ele>628</ele>
        <time>2016-05-15T12:10:50.000Z</time>
      </trkpt>
      <trkpt lat="43.81579" lon="7.25353">
        <ele>628</ele>
        <time>2016-05-15T12:10:52.000Z</time>
      </trkpt>
      <trkpt lat="43.81578" lon="7.25351">
        <ele>628</ele>
        <time>2016-05-15T12:10:58.000Z</time>
      </trkpt>
      <trkpt lat="43.81575" lon="7.25349">
        <ele>628</ele>
        <time>2016-05-15T12:11:05.000Z</time>
      </trkpt>
      <trkpt lat="43.81575" lon="7.25348">
        <ele>628</ele>
        <time>2016-05-15T12:11:07.000Z</time>
      </trkpt>
      <trkpt lat="43.81573" lon="7.25347">
        <ele>628</ele>
        <time>2016-05-15T12:11:13.000Z</time>
      </trkpt>
      <trkpt lat="43.81572" lon="7.25346">
        <ele>628</ele>
        <time>2016-05-15T12:11:14.000Z</time>
      </trkpt>
      <trkpt lat="43.81568" lon="7.25345">
        <ele>628</ele>
        <time>2016-05-15T12:11:21.000Z</time>
      </trkpt>
      <trkpt lat="43.81566" lon="7.25345">
        <ele>629</ele>
        <time>2016-05-15T12:11:24.000Z</time>
      </trkpt>
      <trkpt lat="43.81563" lon="7.25344">
        <ele>629</ele>
        <time>2016-05-15T12:11:28.000Z</time>
      </trkpt>
      <trkpt lat="43.81561" lon="7.25343">
        <ele>629</ele>
        <time>2016-05-15T12:11:31.000Z</time>
      </trkpt>
      <trkpt lat="43.81558" lon="7.25341">
        <ele>630</ele>
        <time>2016-05-15T12:11:36.000Z</time>
      </trkpt>
      <trkpt lat="43.81557" lon="7.2534">
        <ele>630</ele>
        <time>2016-05-15T12:11:39.000Z</time>
      </trkpt>
      <trkpt lat="43.81555" lon="7.2534">
        <ele>630</ele>
        <time>2016-05-15T12:11:41.000Z</time>
      </trkpt>
      <trkpt lat="43.8155" lon="7.2534">
        <ele>631</ele>
        <time>2016-05-15T12:11:45.000Z</time>
      </trkpt>
      <trkpt lat="43.81545" lon="7.25342">
        <ele>632</ele>
        <time>2016-05-15T12:11:49.000Z</time>
      </trkpt>
      <trkpt lat="43.81538" lon="7.25344">
        <ele>633</ele>
        <time>2016-05-15T12:11:54.000Z</time>
      </trkpt>
      <trkpt lat="43.81529" lon="7.2535">
        <ele>634</ele>
        <time>2016-05-15T12:12:02.000Z</time>
      </trkpt>
      <trkpt lat="43.8153" lon="7.25351">
        <ele>634</ele>
        <time>2016-05-15T12:12:03.000Z</time>
      </trkpt>
      <trkpt lat="43.81529" lon="7.2535">
        <ele>634</ele>
        <time>2016-05-15T12:12:06.000Z</time>
      </trkpt>
      <trkpt lat="43.81529" lon="7.2535">
        <ele>634</ele>
        <time>2016-05-15T12:12:14.000Z</time>
      </trkpt>
      <trkpt lat="43.81527" lon="7.25351">
        <ele>635</ele>
        <time>2016-05-15T12:12:19.000Z</time>
      </trkpt>
      <trkpt lat="43.81526" lon="7.25351">
        <ele>635</ele>
        <time>2016-05-15T12:12:20.000Z</time>
      </trkpt>
      <trkpt lat="43.81524" lon="7.25354">
        <ele>635</ele>
        <time>2016-05-15T12:12:26.000Z</time>
      </trkpt>
      <trkpt lat="43.81523" lon="7.25354">
        <ele>635</ele>
        <time>2016-05-15T12:12:28.000Z</time>
      </trkpt>
      <trkpt lat="43.81522" lon="7.25356">
        <ele>635</ele>
        <time>2016-05-15T12:12:34.000Z</time>
      </trkpt>
      <trkpt lat="43.81521" lon="7.25356">
        <ele>635</ele>
        <time>2016-05-15T12:12:37.000Z</time>
      </trkpt>
      <trkpt lat="43.81519" lon="7.25357">
        <ele>635</ele>
        <time>2016-05-15T12:12:41.000Z</time>
      </trkpt>
      <trkpt lat="43.81517" lon="7.25358">
        <ele>636</ele>
        <time>2016-05-15T12:12:45.000Z</time>
      </trkpt>
      <trkpt lat="43.81516" lon="7.25359">
        <ele>636</ele>
        <time>2016-05-15T12:12:47.000Z</time>
      </trkpt>
      <trkpt lat="43.81513" lon="7.25361">
        <ele>636</ele>
        <time>2016-05-15T12:12:53.000Z</time>
      </trkpt>
      <trkpt lat="43.81513" lon="7.25362">
        <ele>636</ele>
        <time>2016-05-15T12:12:54.000Z</time>
      </trkpt>
      <trkpt lat="43.81511" lon="7.25365">
        <ele>636</ele>
        <time>2016-05-15T12:12:59.000Z</time>
      </trkpt>
      <trkpt lat="43.81508" lon="7.25366">
        <ele>636</ele>
        <time>2016-05-15T12:13:03.000Z</time>
      </trkpt>
      <trkpt lat="43.81506" lon="7.25367">
        <ele>636</ele>
        <time>2016-05-15T12:13:07.000Z</time>
      </trkpt>
      <trkpt lat="43.81503" lon="7.25369">
        <ele>636</ele>
        <time>2016-05-15T12:13:12.000Z</time>
      </trkpt>
      <trkpt lat="43.81502" lon="7.25369">
        <ele>636</ele>
        <time>2016-05-15T12:13:13.000Z</time>
      </trkpt>
      <trkpt lat="43.815" lon="7.25371">
        <ele>646</ele>
        <time>2016-05-15T12:13:18.000Z</time>
      </trkpt>
      <trkpt lat="43.81498" lon="7.25372">
        <ele>646</ele>
        <time>2016-05-15T12:13:21.000Z</time>
      </trkpt>
      <trkpt lat="43.81496" lon="7.25374">
        <ele>646</ele>
        <time>2016-05-15T12:13:25.000Z</time>
      </trkpt>
      <trkpt lat="43.81494" lon="7.25375">
        <ele>646</ele>
        <time>2016-05-15T12:13:30.000Z</time>
      </trkpt>
      <trkpt lat="43.81492" lon="7.25376">
        <ele>647</ele>
        <time>2016-05-15T12:13:32.000Z</time>
      </trkpt>
      <trkpt lat="43.81489" lon="7.25377">
        <ele>647</ele>
        <time>2016-05-15T12:13:37.000Z</time>
      </trkpt>
      <trkpt lat="43.81487" lon="7.25377">
        <ele>647</ele>
        <time>2016-05-15T12:13:40.000Z</time>
      </trkpt>
      <trkpt lat="43.81483" lon="7.25378">
        <ele>647</ele>
        <time>2016-05-15T12:13:45.000Z</time>
      </trkpt>
      <trkpt lat="43.81481" lon="7.25379">
        <ele>647</ele>
        <time>2016-05-15T12:13:49.000Z</time>
      </trkpt>
      <trkpt lat="43.8148" lon="7.2538">
        <ele>647</ele>
        <time>2016-05-15T12:13:51.000Z</time>
      </trkpt>
      <trkpt lat="43.81475" lon="7.25381">
        <ele>647</ele>
        <time>2016-05-15T12:13:58.000Z</time>
      </trkpt>
      <trkpt lat="43.81474" lon="7.25381">
        <ele>647</ele>
        <time>2016-05-15T12:13:59.000Z</time>
      </trkpt>
      <trkpt lat="43.81473" lon="7.25381">
        <ele>647</ele>
        <time>2016-05-15T12:14:00.000Z</time>
      </trkpt>
      <trkpt lat="43.81469" lon="7.25384">
        <ele>648</ele>
        <time>2016-05-15T12:14:06.000Z</time>
      </trkpt>
      <trkpt lat="43.81467" lon="7.25385">
        <ele>648</ele>
        <time>2016-05-15T12:14:10.000Z</time>
      </trkpt>
      <trkpt lat="43.81462" lon="7.25387">
        <ele>648</ele>
        <time>2016-05-15T12:14:16.000Z</time>
      </trkpt>
      <trkpt lat="43.81456" lon="7.25389">
        <ele>649</ele>
        <time>2016-05-15T12:14:23.000Z</time>
      </trkpt>
      <trkpt lat="43.81455" lon="7.2539">
        <ele>649</ele>
        <time>2016-05-15T12:14:24.000Z</time>
      </trkpt>
      <trkpt lat="43.8145" lon="7.25392">
        <ele>649</ele>
        <time>2016-05-15T12:14:31.000Z</time>
      </trkpt>
      <trkpt lat="43.81449" lon="7.25394">
        <ele>650</ele>
        <time>2016-05-15T12:14:33.000Z</time>
      </trkpt>
      <trkpt lat="43.81446" lon="7.25396">
        <ele>650</ele>
        <time>2016-05-15T12:14:36.000Z</time>
      </trkpt>
      <trkpt lat="43.81436" lon="7.25395">
        <ele>651</ele>
        <time>2016-05-15T12:14:41.000Z</time>
      </trkpt>
      <trkpt lat="43.81417" lon="7.25395">
        <ele>652</ele>
        <time>2016-05-15T12:14:45.000Z</time>
      </trkpt>
      <trkpt lat="43.81392" lon="7.25391">
        <ele>652</ele>
        <time>2016-05-15T12:14:49.000Z</time>
      </trkpt>
      <trkpt lat="43.81384" lon="7.2539">
        <ele>651</ele>
        <time>2016-05-15T12:14:50.000Z</time>
      </trkpt>
      <trkpt lat="43.81371" lon="7.25387">
        <ele>651</ele>
        <time>2016-05-15T12:14:52.000Z</time>
      </trkpt>
      <trkpt lat="43.81351" lon="7.25383">
        <ele>650</ele>
        <time>2016-05-15T12:14:55.000Z</time>
      </trkpt>
      <trkpt lat="43.81344" lon="7.2538">
        <ele>650</ele>
        <time>2016-05-15T12:14:56.000Z</time>
      </trkpt>
      <trkpt lat="43.81338" lon="7.25377">
        <ele>650</ele>
        <time>2016-05-15T12:14:57.000Z</time>
      </trkpt>
      <trkpt lat="43.81331" lon="7.25375">
        <ele>651</ele>
        <time>2016-05-15T12:14:58.000Z</time>
      </trkpt>
      <trkpt lat="43.81326" lon="7.25374">
        <ele>651</ele>
        <time>2016-05-15T12:14:59.000Z</time>
      </trkpt>
      <trkpt lat="43.81317" lon="7.25373">
        <ele>651</ele>
        <time>2016-05-15T12:15:01.000Z</time>
      </trkpt>
      <trkpt lat="43.81307" lon="7.25371">
        <ele>652</ele>
        <time>2016-05-15T12:15:05.000Z</time>
      </trkpt>
      <trkpt lat="43.81295" lon="7.25366">
        <ele>652</ele>
        <time>2016-05-15T12:15:11.000Z</time>
      </trkpt>
      <trkpt lat="43.81292" lon="7.25364">
        <ele>653</ele>
        <time>2016-05-15T12:15:14.000Z</time>
      </trkpt>
      <trkpt lat="43.81291" lon="7.25364">
        <ele>653</ele>
        <time>2016-05-15T12:15:17.000Z</time>
      </trkpt>
      <trkpt lat="43.8129" lon="7.25364">
        <ele>653</ele>
        <time>2016-05-15T12:15:18.000Z</time>
      </trkpt>
      <trkpt lat="43.81288" lon="7.25363">
        <ele>653</ele>
        <time>2016-05-15T12:15:22.000Z</time>
      </trkpt>
      <trkpt lat="43.81283" lon="7.25359">
        <ele>653</ele>
        <time>2016-05-15T12:15:30.000Z</time>
      </trkpt>
      <trkpt lat="43.81279" lon="7.25357">
        <ele>654</ele>
        <time>2016-05-15T12:15:38.000Z</time>
      </trkpt>
      <trkpt lat="43.81277" lon="7.25357">
        <ele>654</ele>
        <time>2016-05-15T12:15:39.000Z</time>
      </trkpt>
      <trkpt lat="43.81273" lon="7.25356">
        <ele>654</ele>
        <time>2016-05-15T12:15:45.000Z</time>
      </trkpt>
      <trkpt lat="43.81271" lon="7.25356">
        <ele>655</ele>
        <time>2016-05-15T12:15:48.000Z</time>
      </trkpt>
      <trkpt lat="43.81268" lon="7.25356">
        <ele>655</ele>
        <time>2016-05-15T12:15:53.000Z</time>
      </trkpt>
      <trkpt lat="43.81266" lon="7.25355">
        <ele>655</ele>
        <time>2016-05-15T12:15:56.000Z</time>
      </trkpt>
      <trkpt lat="43.81265" lon="7.25355">
        <ele>655</ele>
        <time>2016-05-15T12:15:58.000Z</time>
      </trkpt>
      <trkpt lat="43.81262" lon="7.25354">
        <ele>656</ele>
        <time>2016-05-15T12:16:03.000Z</time>
      </trkpt>
      <trkpt lat="43.81257" lon="7.25349">
        <ele>657</ele>
        <time>2016-05-15T12:16:11.000Z</time>
      </trkpt>
      <trkpt lat="43.81257" lon="7.25348">
        <ele>657</ele>
        <time>2016-05-15T12:16:13.000Z</time>
      </trkpt>
      <trkpt lat="43.81254" lon="7.25345">
        <ele>658</ele>
        <time>2016-05-15T12:16:18.000Z</time>
      </trkpt>
      <trkpt lat="43.8125" lon="7.25344">
        <ele>661</ele>
        <time>2016-05-15T12:16:25.000Z</time>
      </trkpt>
      <trkpt lat="43.81249" lon="7.25343">
        <ele>661</ele>
        <time>2016-05-15T12:16:26.000Z</time>
      </trkpt>
      <trkpt lat="43.81245" lon="7.25343">
        <ele>661</ele>
        <time>2016-05-15T12:16:32.000Z</time>
      </trkpt>
      <trkpt lat="43.81244" lon="7.25344">
        <ele>661</ele>
        <time>2016-05-15T12:16:35.000Z</time>
      </trkpt>
      <trkpt lat="43.81242" lon="7.25344">
        <ele>661</ele>
        <time>2016-05-15T12:16:38.000Z</time>
      </trkpt>
      <trkpt lat="43.81239" lon="7.25343">
        <ele>661</ele>
        <time>2016-05-15T12:16:43.000Z</time>
      </trkpt>
      <trkpt lat="43.81236" lon="7.25341">
        <ele>661</ele>
        <time>2016-05-15T12:16:48.000Z</time>
      </trkpt>
      <trkpt lat="43.81233" lon="7.25339">
        <ele>662</ele>
        <time>2016-05-15T12:16:53.000Z</time>
      </trkpt>
      <trkpt lat="43.81232" lon="7.25339">
        <ele>662</ele>
        <time>2016-05-15T12:16:54.000Z</time>
      </trkpt>
      <trkpt lat="43.81227" lon="7.25338">
        <ele>662</ele>
        <time>2016-05-15T12:17:01.000Z</time>
      </trkpt>
      <trkpt lat="43.81224" lon="7.25335">
        <ele>662</ele>
        <time>2016-05-15T12:17:07.000Z</time>
      </trkpt>
      <trkpt lat="43.81223" lon="7.25334">
        <ele>662</ele>
        <time>2016-05-15T12:17:08.000Z</time>
      </trkpt>
      <trkpt lat="43.81215" lon="7.25332">
        <ele>662</ele>
        <time>2016-05-15T12:17:14.000Z</time>
      </trkpt>
      <trkpt lat="43.8121" lon="7.25331">
        <ele>662</ele>
        <time>2016-05-15T12:17:17.000Z</time>
      </trkpt>
      <trkpt lat="43.81204" lon="7.25331">
        <ele>664</ele>
        <time>2016-05-15T12:17:21.000Z</time>
      </trkpt>
      <trkpt lat="43.81198" lon="7.2533">
        <ele>665</ele>
        <time>2016-05-15T12:17:25.000Z</time>
      </trkpt>
      <trkpt lat="43.8119" lon="7.25327">
        <ele>666</ele>
        <time>2016-05-15T12:17:31.000Z</time>
      </trkpt>
      <trkpt lat="43.81179" lon="7.25321">
        <ele>669</ele>
        <time>2016-05-15T12:17:39.000Z</time>
      </trkpt>
      <trkpt lat="43.81169" lon="7.25314">
        <ele>668</ele>
        <time>2016-05-15T12:17:46.000Z</time>
      </trkpt>
      <trkpt lat="43.81168" lon="7.25314">
        <ele>668</ele>
        <time>2016-05-15T12:17:47.000Z</time>
      </trkpt>
      <trkpt lat="43.81159" lon="7.25308">
        <ele>677</ele>
        <time>2016-05-15T12:17:54.000Z</time>
      </trkpt>
      <trkpt lat="43.81157" lon="7.25306">
        <ele>677</ele>
        <time>2016-05-15T12:17:56.000Z</time>
      </trkpt>
      <trkpt lat="43.81153" lon="7.25301">
        <ele>677</ele>
        <time>2016-05-15T12:18:00.000Z</time>
      </trkpt>
      <trkpt lat="43.81152" lon="7.25301">
        <ele>677</ele>
        <time>2016-05-15T12:18:01.000Z</time>
      </trkpt>
      <trkpt lat="43.81148" lon="7.25295">
        <ele>677</ele>
        <time>2016-05-15T12:18:05.000Z</time>
      </trkpt>
      <trkpt lat="43.81144" lon="7.25293">
        <ele>677</ele>
        <time>2016-05-15T12:18:07.000Z</time>
      </trkpt>
      <trkpt lat="43.81137" lon="7.25291">
        <ele>678</ele>
        <time>2016-05-15T12:18:13.000Z</time>
      </trkpt>
      <trkpt lat="43.81136" lon="7.2529">
        <ele>678</ele>
        <time>2016-05-15T12:18:14.000Z</time>
      </trkpt>
      <trkpt lat="43.81133" lon="7.2529">
        <ele>678</ele>
        <time>2016-05-15T12:18:16.000Z</time>
      </trkpt>
      <trkpt lat="43.81132" lon="7.2529">
        <ele>678</ele>
        <time>2016-05-15T12:18:18.000Z</time>
      </trkpt>
      <trkpt lat="43.81129" lon="7.2529">
        <ele>679</ele>
        <time>2016-05-15T12:18:20.000Z</time>
      </trkpt>
      <trkpt lat="43.81126" lon="7.2529">
        <ele>679</ele>
        <time>2016-05-15T12:18:23.000Z</time>
      </trkpt>
      <trkpt lat="43.81121" lon="7.25288">
        <ele>679</ele>
        <time>2016-05-15T12:18:28.000Z</time>
      </trkpt>
      <trkpt lat="43.81117" lon="7.25285">
        <ele>680</ele>
        <time>2016-05-15T12:18:32.000Z</time>
      </trkpt>
      <trkpt lat="43.81114" lon="7.25284">
        <ele>680</ele>
        <time>2016-05-15T12:18:35.000Z</time>
      </trkpt>
      <trkpt lat="43.81114" lon="7.25283">
        <ele>681</ele>
        <time>2016-05-15T12:18:37.000Z</time>
      </trkpt>
      <trkpt lat="43.81113" lon="7.25281">
        <ele>681</ele>
        <time>2016-05-15T12:18:38.000Z</time>
      </trkpt>
      <trkpt lat="43.81111" lon="7.25279">
        <ele>681</ele>
        <time>2016-05-15T12:18:40.000Z</time>
      </trkpt>
      <trkpt lat="43.81106" lon="7.25272">
        <ele>683</ele>
        <time>2016-05-15T12:18:48.000Z</time>
      </trkpt>
      <trkpt lat="43.81102" lon="7.25267">
        <ele>684</ele>
        <time>2016-05-15T12:18:55.000Z</time>
      </trkpt>
      <trkpt lat="43.81101" lon="7.25265">
        <ele>685</ele>
        <time>2016-05-15T12:18:57.000Z</time>
      </trkpt>
      <trkpt lat="43.81098" lon="7.25263">
        <ele>686</ele>
        <time>2016-05-15T12:19:02.000Z</time>
      </trkpt>
      <trkpt lat="43.81096" lon="7.25262">
        <ele>687</ele>
        <time>2016-05-15T12:19:05.000Z</time>
      </trkpt>
      <trkpt lat="43.81092" lon="7.25259">
        <ele>689</ele>
        <time>2016-05-15T12:19:09.000Z</time>
      </trkpt>
      <trkpt lat="43.81089" lon="7.25257">
        <ele>690</ele>
        <time>2016-05-15T12:19:14.000Z</time>
      </trkpt>
      <trkpt lat="43.81089" lon="7.25257">
        <ele>690</ele>
        <time>2016-05-15T12:19:15.000Z</time>
      </trkpt>
      <trkpt lat="43.81086" lon="7.25256">
        <ele>692</ele>
        <time>2016-05-15T12:19:20.000Z</time>
      </trkpt>
      <trkpt lat="43.81082" lon="7.25255">
        <ele>693</ele>
        <time>2016-05-15T12:19:25.000Z</time>
      </trkpt>
      <trkpt lat="43.8108" lon="7.25254">
        <ele>693</ele>
        <time>2016-05-15T12:19:28.000Z</time>
      </trkpt>
      <trkpt lat="43.81076" lon="7.25251">
        <ele>692</ele>
        <time>2016-05-15T12:19:35.000Z</time>
      </trkpt>
      <trkpt lat="43.8107" lon="7.25248">
        <ele>696</ele>
        <time>2016-05-15T12:19:43.000Z</time>
      </trkpt>
      <trkpt lat="43.81069" lon="7.25247">
        <ele>696</ele>
        <time>2016-05-15T12:19:44.000Z</time>
      </trkpt>
      <trkpt lat="43.81065" lon="7.25244">
        <ele>696</ele>
        <time>2016-05-15T12:19:51.000Z</time>
      </trkpt>
      <trkpt lat="43.81064" lon="7.25242">
        <ele>696</ele>
        <time>2016-05-15T12:19:53.000Z</time>
      </trkpt>
      <trkpt lat="43.81062" lon="7.2524">
        <ele>696</ele>
        <time>2016-05-15T12:19:56.000Z</time>
      </trkpt>
      <trkpt lat="43.81059" lon="7.25238">
        <ele>696</ele>
        <time>2016-05-15T12:20:00.000Z</time>
      </trkpt>
      <trkpt lat="43.81059" lon="7.25237">
        <ele>696</ele>
        <time>2016-05-15T12:20:04.000Z</time>
      </trkpt>
      <trkpt lat="43.81059" lon="7.25237">
        <ele>696</ele>
        <time>2016-05-15T12:20:05.000Z</time>
      </trkpt>
      <trkpt lat="43.81055" lon="7.25235">
        <ele>696</ele>
        <time>2016-05-15T12:20:18.000Z</time>
      </trkpt>
      <trkpt lat="43.81053" lon="7.25232">
        <ele>696</ele>
        <time>2016-05-15T12:20:21.000Z</time>
      </trkpt>
      <trkpt lat="43.81052" lon="7.2523">
        <ele>696</ele>
        <time>2016-05-15T12:20:23.000Z</time>
      </trkpt>
      <trkpt lat="43.81049" lon="7.25227">
        <ele>696</ele>
        <time>2016-05-15T12:20:25.000Z</time>
      </trkpt>
      <trkpt lat="43.81044" lon="7.25217">
        <ele>696</ele>
        <time>2016-05-15T12:20:31.000Z</time>
      </trkpt>
      <trkpt lat="43.8104" lon="7.25212">
        <ele>697</ele>
        <time>2016-05-15T12:20:34.000Z</time>
      </trkpt>
      <trkpt lat="43.81031" lon="7.25199">
        <ele>698</ele>
        <time>2016-05-15T12:20:40.000Z</time>
      </trkpt>
      <trkpt lat="43.8102" lon="7.25185">
        <ele>701</ele>
        <time>2016-05-15T12:20:48.000Z</time>
      </trkpt>
      <trkpt lat="43.81017" lon="7.25182">
        <ele>702</ele>
        <time>2016-05-15T12:20:50.000Z</time>
      </trkpt>
      <trkpt lat="43.81013" lon="7.25179">
        <ele>703</ele>
        <time>2016-05-15T12:20:53.000Z</time>
      </trkpt>
      <trkpt lat="43.81004" lon="7.25168">
        <ele>708</ele>
        <time>2016-05-15T12:20:58.000Z</time>
      </trkpt>
      <trkpt lat="43.81003" lon="7.25166">
        <ele>709</ele>
        <time>2016-05-15T12:20:59.000Z</time>
      </trkpt>
      <trkpt lat="43.80995" lon="7.25152">
        <ele>712</ele>
        <time>2016-05-15T12:21:04.000Z</time>
      </trkpt>
      <trkpt lat="43.80985" lon="7.25138">
        <ele>714</ele>
        <time>2016-05-15T12:21:12.000Z</time>
      </trkpt>
      <trkpt lat="43.80979" lon="7.2513">
        <ele>715</ele>
        <time>2016-05-15T12:21:17.000Z</time>
      </trkpt>
      <trkpt lat="43.80975" lon="7.25126">
        <ele>716</ele>
        <time>2016-05-15T12:21:20.000Z</time>
      </trkpt>
      <trkpt lat="43.80974" lon="7.25125">
        <ele>716</ele>
        <time>2016-05-15T12:21:21.000Z</time>
      </trkpt>
      <trkpt lat="43.80971" lon="7.25122">
        <ele>716</ele>
        <time>2016-05-15T12:21:24.000Z</time>
      </trkpt>
      <trkpt lat="43.80968" lon="7.25119">
        <ele>716</ele>
        <time>2016-05-15T12:21:29.000Z</time>
      </trkpt>
      <trkpt lat="43.80967" lon="7.25118">
        <ele>716</ele>
        <time>2016-05-15T12:21:31.000Z</time>
      </trkpt>
      <trkpt lat="43.80966" lon="7.25117">
        <ele>716</ele>
        <time>2016-05-15T12:21:32.000Z</time>
      </trkpt>
      <trkpt lat="43.80962" lon="7.25114">
        <ele>717</ele>
        <time>2016-05-15T12:21:35.000Z</time>
      </trkpt>
      <trkpt lat="43.80959" lon="7.25111">
        <ele>717</ele>
        <time>2016-05-15T12:21:39.000Z</time>
      </trkpt>
      <trkpt lat="43.80957" lon="7.25109">
        <ele>717</ele>
        <time>2016-05-15T12:21:41.000Z</time>
      </trkpt>
      <trkpt lat="43.80956" lon="7.25108">
        <ele>718</ele>
        <time>2016-05-15T12:21:42.000Z</time>
      </trkpt>
      <trkpt lat="43.80954" lon="7.25107">
        <ele>718</ele>
        <time>2016-05-15T12:21:44.000Z</time>
      </trkpt>
      <trkpt lat="43.80953" lon="7.25106">
        <ele>718</ele>
        <time>2016-05-15T12:21:45.000Z</time>
      </trkpt>
      <trkpt lat="43.80949" lon="7.25103">
        <ele>718</ele>
        <time>2016-05-15T12:21:49.000Z</time>
      </trkpt>
      <trkpt lat="43.80947" lon="7.25102">
        <ele>719</ele>
        <time>2016-05-15T12:21:51.000Z</time>
      </trkpt>
      <trkpt lat="43.80939" lon="7.25095">
        <ele>720</ele>
        <time>2016-05-15T12:21:58.000Z</time>
      </trkpt>
      <trkpt lat="43.8093" lon="7.25089">
        <ele>723</ele>
        <time>2016-05-15T12:22:05.000Z</time>
      </trkpt>
      <trkpt lat="43.80928" lon="7.25087">
        <ele>724</ele>
        <time>2016-05-15T12:22:07.000Z</time>
      </trkpt>
      <trkpt lat="43.80917" lon="7.25084">
        <ele>729</ele>
        <time>2016-05-15T12:22:14.000Z</time>
      </trkpt>
      <trkpt lat="43.80915" lon="7.25083">
        <ele>730</ele>
        <time>2016-05-15T12:22:15.000Z</time>
      </trkpt>
      <trkpt lat="43.80904" lon="7.25079">
        <ele>737</ele>
        <time>2016-05-15T12:22:21.000Z</time>
      </trkpt>
      <trkpt lat="43.80895" lon="7.25077">
        <ele>740</ele>
        <time>2016-05-15T12:22:25.000Z</time>
      </trkpt>
      <trkpt lat="43.80892" lon="7.25077">
        <ele>741</ele>
        <time>2016-05-15T12:22:27.000Z</time>
      </trkpt>
      <trkpt lat="43.80877" lon="7.25073">
        <ele>744</ele>
        <time>2016-05-15T12:22:34.000Z</time>
      </trkpt>
      <trkpt lat="43.80873" lon="7.2507">
        <ele>744</ele>
        <time>2016-05-15T12:22:36.000Z</time>
      </trkpt>
      <trkpt lat="43.80867" lon="7.25068">
        <ele>745</ele>
        <time>2016-05-15T12:22:39.000Z</time>
      </trkpt>
      <trkpt lat="43.80853" lon="7.25058">
        <ele>746</ele>
        <time>2016-05-15T12:22:46.000Z</time>
      </trkpt>
      <trkpt lat="43.80853" lon="7.25057">
        <ele>746</ele>
        <time>2016-05-15T12:22:47.000Z</time>
      </trkpt>
      <trkpt lat="43.8085" lon="7.25053">
        <ele>747</ele>
        <time>2016-05-15T12:22:50.000Z</time>
      </trkpt>
      <trkpt lat="43.80849" lon="7.25053">
        <ele>747</ele>
        <time>2016-05-15T12:22:51.000Z</time>
      </trkpt>
      <trkpt lat="43.80847" lon="7.2505">
        <ele>748</ele>
        <time>2016-05-15T12:22:53.000Z</time>
      </trkpt>
      <trkpt lat="43.80844" lon="7.25049">
        <ele>748</ele>
        <time>2016-05-15T12:22:55.000Z</time>
      </trkpt>
      <trkpt lat="43.8084" lon="7.2505">
        <ele>748</ele>
        <time>2016-05-15T12:22:57.000Z</time>
      </trkpt>
      <trkpt lat="43.80838" lon="7.25053">
        <ele>747</ele>
        <time>2016-05-15T12:23:00.000Z</time>
      </trkpt>
      <trkpt lat="43.80836" lon="7.25056">
        <ele>746</ele>
        <time>2016-05-15T12:23:02.000Z</time>
      </trkpt>
      <trkpt lat="43.80837" lon="7.25057">
        <ele>746</ele>
        <time>2016-05-15T12:23:03.000Z</time>
      </trkpt>
      <trkpt lat="43.80836" lon="7.25063">
        <ele>744</ele>
        <time>2016-05-15T12:23:07.000Z</time>
      </trkpt>
      <trkpt lat="43.80835" lon="7.25065">
        <ele>743</ele>
        <time>2016-05-15T12:23:09.000Z</time>
      </trkpt>
      <trkpt lat="43.80832" lon="7.25068">
        <ele>745</ele>
        <time>2016-05-15T12:23:12.000Z</time>
      </trkpt>
      <trkpt lat="43.8083" lon="7.2507">
        <ele>745</ele>
        <time>2016-05-15T12:23:14.000Z</time>
      </trkpt>
      <trkpt lat="43.80828" lon="7.25071">
        <ele>744</ele>
        <time>2016-05-15T12:23:16.000Z</time>
      </trkpt>
      <trkpt lat="43.80824" lon="7.25075">
        <ele>744</ele>
        <time>2016-05-15T12:23:20.000Z</time>
      </trkpt>
      <trkpt lat="43.80819" lon="7.25082">
        <ele>744</ele>
        <time>2016-05-15T12:23:25.000Z</time>
      </trkpt>
      <trkpt lat="43.80817" lon="7.25084">
        <ele>733</ele>
        <time>2016-05-15T12:23:26.000Z</time>
      </trkpt>
      <trkpt lat="43.80815" lon="7.25086">
        <ele>733</ele>
        <time>2016-05-15T12:23:28.000Z</time>
      </trkpt>
      <trkpt lat="43.8081" lon="7.25091">
        <ele>733</ele>
        <time>2016-05-15T12:23:32.000Z</time>
      </trkpt>
      <trkpt lat="43.80801" lon="7.25098">
        <ele>732</ele>
        <time>2016-05-15T12:23:38.000Z</time>
      </trkpt>
      <trkpt lat="43.808" lon="7.25098">
        <ele>732</ele>
        <time>2016-05-15T12:23:39.000Z</time>
      </trkpt>
      <trkpt lat="43.8079" lon="7.25105">
        <ele>732</ele>
        <time>2016-05-15T12:23:45.000Z</time>
      </trkpt>
      <trkpt lat="43.80775" lon="7.25113">
        <ele>732</ele>
        <time>2016-05-15T12:23:50.000Z</time>
      </trkpt>
      <trkpt lat="43.80757" lon="7.25115">
        <ele>733</ele>
        <time>2016-05-15T12:23:54.000Z</time>
      </trkpt>
      <trkpt lat="43.80745" lon="7.25113">
        <ele>735</ele>
        <time>2016-05-15T12:23:56.000Z</time>
      </trkpt>
      <trkpt lat="43.80734" lon="7.2511">
        <ele>735</ele>
        <time>2016-05-15T12:23:58.000Z</time>
      </trkpt>
      <trkpt lat="43.80728" lon="7.25109">
        <ele>735</ele>
        <time>2016-05-15T12:23:59.000Z</time>
      </trkpt>
      <trkpt lat="43.80716" lon="7.25107">
        <ele>734</ele>
        <time>2016-05-15T12:24:01.000Z</time>
      </trkpt>
      <trkpt lat="43.80704" lon="7.25103">
        <ele>734</ele>
        <time>2016-05-15T12:24:03.000Z</time>
      </trkpt>
      <trkpt lat="43.807" lon="7.251">
        <ele>735</ele>
        <time>2016-05-15T12:24:04.000Z</time>
      </trkpt>
      <trkpt lat="43.80689" lon="7.25103">
        <ele>734</ele>
        <time>2016-05-15T12:24:07.000Z</time>
      </trkpt>
      <trkpt lat="43.80679" lon="7.25103">
        <ele>735</ele>
        <time>2016-05-15T12:24:09.000Z</time>
      </trkpt>
      <trkpt lat="43.80673" lon="7.25103">
        <ele>735</ele>
        <time>2016-05-15T12:24:10.000Z</time>
      </trkpt>
      <trkpt lat="43.80669" lon="7.25103">
        <ele>736</ele>
        <time>2016-05-15T12:24:11.000Z</time>
      </trkpt>
      <trkpt lat="43.80664" lon="7.25102">
        <ele>735</ele>
        <time>2016-05-15T12:24:12.000Z</time>
      </trkpt>
      <trkpt lat="43.80657" lon="7.25103">
        <ele>734</ele>
        <time>2016-05-15T12:24:15.000Z</time>
      </trkpt>
      <trkpt lat="43.80649" lon="7.25107">
        <ele>733</ele>
        <time>2016-05-15T12:24:20.000Z</time>
      </trkpt>
      <trkpt lat="43.80643" lon="7.25109">
        <ele>732</ele>
        <time>2016-05-15T12:24:24.000Z</time>
      </trkpt>
      <trkpt lat="43.80631" lon="7.25115">
        <ele>731</ele>
        <time>2016-05-15T12:24:29.000Z</time>
      </trkpt>
      <trkpt lat="43.80628" lon="7.25116">
        <ele>731</ele>
        <time>2016-05-15T12:24:30.000Z</time>
      </trkpt>
      <trkpt lat="43.80609" lon="7.2512">
        <ele>730</ele>
        <time>2016-05-15T12:24:35.000Z</time>
      </trkpt>
      <trkpt lat="43.80576" lon="7.25122">
        <ele>733</ele>
        <time>2016-05-15T12:24:42.000Z</time>
      </trkpt>
      <trkpt lat="43.80548" lon="7.25123">
        <ele>733</ele>
        <time>2016-05-15T12:24:47.000Z</time>
      </trkpt>
      <trkpt lat="43.80541" lon="7.25124">
        <ele>733</ele>
        <time>2016-05-15T12:24:48.000Z</time>
      </trkpt>
      <trkpt lat="43.80529" lon="7.25125">
        <ele>733</ele>
        <time>2016-05-15T12:24:50.000Z</time>
      </trkpt>
      <trkpt lat="43.80524" lon="7.25127">
        <ele>733</ele>
        <time>2016-05-15T12:24:51.000Z</time>
      </trkpt>
      <trkpt lat="43.8052" lon="7.25129">
        <ele>732</ele>
        <time>2016-05-15T12:24:52.000Z</time>
      </trkpt>
      <trkpt lat="43.80517" lon="7.2513">
        <ele>732</ele>
        <time>2016-05-15T12:24:53.000Z</time>
      </trkpt>
      <trkpt lat="43.80497" lon="7.25135">
        <ele>734</ele>
        <time>2016-05-15T12:24:59.000Z</time>
      </trkpt>
      <trkpt lat="43.80482" lon="7.2514">
        <ele>734</ele>
        <time>2016-05-15T12:25:03.000Z</time>
      </trkpt>
      <trkpt lat="43.80466" lon="7.25147">
        <ele>734</ele>
        <time>2016-05-15T12:25:09.000Z</time>
      </trkpt>
      <trkpt lat="43.80441" lon="7.25155">
        <ele>734</ele>
        <time>2016-05-15T12:25:16.000Z</time>
      </trkpt>
      <trkpt lat="43.80437" lon="7.25157">
        <ele>733</ele>
        <time>2016-05-15T12:25:17.000Z</time>
      </trkpt>
      <trkpt lat="43.80416" lon="7.25163">
        <ele>728</ele>
        <time>2016-05-15T12:25:21.000Z</time>
      </trkpt>
      <trkpt lat="43.80397" lon="7.2517">
        <ele>716</ele>
        <time>2016-05-15T12:25:24.000Z</time>
      </trkpt>
      <trkpt lat="43.80391" lon="7.2517">
        <ele>714</ele>
        <time>2016-05-15T12:25:25.000Z</time>
      </trkpt>
      <trkpt lat="43.80383" lon="7.25171">
        <ele>712</ele>
        <time>2016-05-15T12:25:27.000Z</time>
      </trkpt>
      <trkpt lat="43.80378" lon="7.25172">
        <ele>712</ele>
        <time>2016-05-15T12:25:28.000Z</time>
      </trkpt>
      <trkpt lat="43.80372" lon="7.25172">
        <ele>711</ele>
        <time>2016-05-15T12:25:29.000Z</time>
      </trkpt>
      <trkpt lat="43.80365" lon="7.25173">
        <ele>711</ele>
        <time>2016-05-15T12:25:30.000Z</time>
      </trkpt>
      <trkpt lat="43.80358" lon="7.25173">
        <ele>711</ele>
        <time>2016-05-15T12:25:31.000Z</time>
      </trkpt>
      <trkpt lat="43.8035" lon="7.25172">
        <ele>712</ele>
        <time>2016-05-15T12:25:32.000Z</time>
      </trkpt>
      <trkpt lat="43.80342" lon="7.25171">
        <ele>714</ele>
        <time>2016-05-15T12:25:33.000Z</time>
      </trkpt>
      <trkpt lat="43.80326" lon="7.2517">
        <ele>711</ele>
        <time>2016-05-15T12:25:35.000Z</time>
      </trkpt>
      <trkpt lat="43.8031" lon="7.25164">
        <ele>720</ele>
        <time>2016-05-15T12:25:37.000Z</time>
      </trkpt>
      <trkpt lat="43.80297" lon="7.25156">
        <ele>719</ele>
        <time>2016-05-15T12:25:39.000Z</time>
      </trkpt>
      <trkpt lat="43.80284" lon="7.25149">
        <ele>718</ele>
        <time>2016-05-15T12:25:41.000Z</time>
      </trkpt>
      <trkpt lat="43.80273" lon="7.2514">
        <ele>717</ele>
        <time>2016-05-15T12:25:43.000Z</time>
      </trkpt>
      <trkpt lat="43.80269" lon="7.25136">
        <ele>718</ele>
        <time>2016-05-15T12:25:44.000Z</time>
      </trkpt>
      <trkpt lat="43.80268" lon="7.25132">
        <ele>719</ele>
        <time>2016-05-15T12:25:45.000Z</time>
      </trkpt>
      <trkpt lat="43.80267" lon="7.2513">
        <ele>719</ele>
        <time>2016-05-15T12:25:46.000Z</time>
      </trkpt>
      <trkpt lat="43.80265" lon="7.25127">
        <ele>719</ele>
        <time>2016-05-15T12:25:48.000Z</time>
      </trkpt>
      <trkpt lat="43.80259" lon="7.25121">
        <ele>720</ele>
        <time>2016-05-15T12:25:51.000Z</time>
      </trkpt>
      <trkpt lat="43.80253" lon="7.25115">
        <ele>721</ele>
        <time>2016-05-15T12:25:53.000Z</time>
      </trkpt>
      <trkpt lat="43.80233" lon="7.25094">
        <ele>708</ele>
        <time>2016-05-15T12:25:58.000Z</time>
      </trkpt>
      <trkpt lat="43.80216" lon="7.25068">
        <ele>716</ele>
        <time>2016-05-15T12:26:03.000Z</time>
      </trkpt>
      <trkpt lat="43.80213" lon="7.25062">
        <ele>716</ele>
        <time>2016-05-15T12:26:04.000Z</time>
      </trkpt>
      <trkpt lat="43.80199" lon="7.25025">
        <ele>716</ele>
        <time>2016-05-15T12:26:11.000Z</time>
      </trkpt>
      <trkpt lat="43.8019" lon="7.25016">
        <ele>714</ele>
        <time>2016-05-15T12:26:14.000Z</time>
      </trkpt>
      <trkpt lat="43.80186" lon="7.2501">
        <ele>713</ele>
        <time>2016-05-15T12:26:15.000Z</time>
      </trkpt>
      <trkpt lat="43.80178" lon="7.24999">
        <ele>717</ele>
        <time>2016-05-15T12:26:17.000Z</time>
      </trkpt>
      <trkpt lat="43.80172" lon="7.24993">
        <ele>715</ele>
        <time>2016-05-15T12:26:18.000Z</time>
      </trkpt>
      <trkpt lat="43.80168" lon="7.24988">
        <ele>717</ele>
        <time>2016-05-15T12:26:19.000Z</time>
      </trkpt>
      <trkpt lat="43.80164" lon="7.24984">
        <ele>705</ele>
        <time>2016-05-15T12:26:20.000Z</time>
      </trkpt>
      <trkpt lat="43.80162" lon="7.24982">
        <ele>704</ele>
        <time>2016-05-15T12:26:21.000Z</time>
      </trkpt>
      <trkpt lat="43.80161" lon="7.24981">
        <ele>704</ele>
        <time>2016-05-15T12:26:22.000Z</time>
      </trkpt>
      <trkpt lat="43.80158" lon="7.24981">
        <ele>704</ele>
        <time>2016-05-15T12:26:23.000Z</time>
      </trkpt>
      <trkpt lat="43.80155" lon="7.24981">
        <ele>704</ele>
        <time>2016-05-15T12:26:24.000Z</time>
      </trkpt>
      <trkpt lat="43.80147" lon="7.24978">
        <ele>703</ele>
        <time>2016-05-15T12:26:26.000Z</time>
      </trkpt>
      <trkpt lat="43.80142" lon="7.2498">
        <ele>702</ele>
        <time>2016-05-15T12:26:27.000Z</time>
      </trkpt>
      <trkpt lat="43.80138" lon="7.2498">
        <ele>702</ele>
        <time>2016-05-15T12:26:28.000Z</time>
      </trkpt>
      <trkpt lat="43.80134" lon="7.24979">
        <ele>701</ele>
        <time>2016-05-15T12:26:29.000Z</time>
      </trkpt>
      <trkpt lat="43.80121" lon="7.24968">
        <ele>699</ele>
        <time>2016-05-15T12:26:33.000Z</time>
      </trkpt>
      <trkpt lat="43.80119" lon="7.24963">
        <ele>700</ele>
        <time>2016-05-15T12:26:35.000Z</time>
      </trkpt>
      <trkpt lat="43.80114" lon="7.24956">
        <ele>700</ele>
        <time>2016-05-15T12:26:37.000Z</time>
      </trkpt>
      <trkpt lat="43.80109" lon="7.24946">
        <ele>699</ele>
        <time>2016-05-15T12:26:39.000Z</time>
      </trkpt>
      <trkpt lat="43.801" lon="7.24928">
        <ele>698</ele>
        <time>2016-05-15T12:26:42.000Z</time>
      </trkpt>
      <trkpt lat="43.80096" lon="7.24923">
        <ele>697</ele>
        <time>2016-05-15T12:26:43.000Z</time>
      </trkpt>
      <trkpt lat="43.80087" lon="7.24908">
        <ele>700</ele>
        <time>2016-05-15T12:26:46.000Z</time>
      </trkpt>
      <trkpt lat="43.80084" lon="7.24899">
        <ele>704</ele>
        <time>2016-05-15T12:26:48.000Z</time>
      </trkpt>
      <trkpt lat="43.80083" lon="7.24893">
        <ele>683</ele>
        <time>2016-05-15T12:26:49.000Z</time>
      </trkpt>
      <trkpt lat="43.80077" lon="7.2488">
        <ele>682</ele>
        <time>2016-05-15T12:26:51.000Z</time>
      </trkpt>
      <trkpt lat="43.80071" lon="7.24853">
        <ele>685</ele>
        <time>2016-05-15T12:26:54.000Z</time>
      </trkpt>
      <trkpt lat="43.80071" lon="7.24845">
        <ele>687</ele>
        <time>2016-05-15T12:26:55.000Z</time>
      </trkpt>
      <trkpt lat="43.80071" lon="7.24838">
        <ele>689</ele>
        <time>2016-05-15T12:26:56.000Z</time>
      </trkpt>
      <trkpt lat="43.80074" lon="7.24825">
        <ele>692</ele>
        <time>2016-05-15T12:26:58.000Z</time>
      </trkpt>
      <trkpt lat="43.80075" lon="7.24819">
        <ele>691</ele>
        <time>2016-05-15T12:26:59.000Z</time>
      </trkpt>
      <trkpt lat="43.80075" lon="7.24812">
        <ele>689</ele>
        <time>2016-05-15T12:27:00.000Z</time>
      </trkpt>
      <trkpt lat="43.80072" lon="7.248">
        <ele>687</ele>
        <time>2016-05-15T12:27:02.000Z</time>
      </trkpt>
      <trkpt lat="43.80071" lon="7.24794">
        <ele>687</ele>
        <time>2016-05-15T12:27:03.000Z</time>
      </trkpt>
      <trkpt lat="43.80067" lon="7.24776">
        <ele>688</ele>
        <time>2016-05-15T12:27:06.000Z</time>
      </trkpt>
      <trkpt lat="43.80066" lon="7.24769">
        <ele>689</ele>
        <time>2016-05-15T12:27:07.000Z</time>
      </trkpt>
      <trkpt lat="43.80066" lon="7.24764">
        <ele>690</ele>
        <time>2016-05-15T12:27:08.000Z</time>
      </trkpt>
      <trkpt lat="43.80066" lon="7.2476">
        <ele>691</ele>
        <time>2016-05-15T12:27:09.000Z</time>
      </trkpt>
      <trkpt lat="43.80065" lon="7.24758">
        <ele>691</ele>
        <time>2016-05-15T12:27:10.000Z</time>
      </trkpt>
      <trkpt lat="43.80061" lon="7.2475">
        <ele>696</ele>
        <time>2016-05-15T12:27:12.000Z</time>
      </trkpt>
      <trkpt lat="43.80059" lon="7.24738">
        <ele>695</ele>
        <time>2016-05-15T12:27:14.000Z</time>
      </trkpt>
      <trkpt lat="43.80056" lon="7.24724">
        <ele>694</ele>
        <time>2016-05-15T12:27:16.000Z</time>
      </trkpt>
      <trkpt lat="43.80051" lon="7.24711">
        <ele>694</ele>
        <time>2016-05-15T12:27:18.000Z</time>
      </trkpt>
      <trkpt lat="43.80049" lon="7.24706">
        <ele>694</ele>
        <time>2016-05-15T12:27:19.000Z</time>
      </trkpt>
      <trkpt lat="43.80044" lon="7.247">
        <ele>694</ele>
        <time>2016-05-15T12:27:20.000Z</time>
      </trkpt>
      <trkpt lat="43.80041" lon="7.24693">
        <ele>694</ele>
        <time>2016-05-15T12:27:21.000Z</time>
      </trkpt>
      <trkpt lat="43.80038" lon="7.2468">
        <ele>694</ele>
        <time>2016-05-15T12:27:23.000Z</time>
      </trkpt>
      <trkpt lat="43.80037" lon="7.24676">
        <ele>694</ele>
        <time>2016-05-15T12:27:24.000Z</time>
      </trkpt>
      <trkpt lat="43.80035" lon="7.24673">
        <ele>694</ele>
        <time>2016-05-15T12:27:25.000Z</time>
      </trkpt>
      <trkpt lat="43.80028" lon="7.24672">
        <ele>693</ele>
        <time>2016-05-15T12:27:27.000Z</time>
      </trkpt>
      <trkpt lat="43.80022" lon="7.24678">
        <ele>692</ele>
        <time>2016-05-15T12:27:30.000Z</time>
      </trkpt>
      <trkpt lat="43.80016" lon="7.2468">
        <ele>691</ele>
        <time>2016-05-15T12:27:36.000Z</time>
      </trkpt>
      <trkpt lat="43.80014" lon="7.24678">
        <ele>691</ele>
        <time>2016-05-15T12:27:38.000Z</time>
      </trkpt>
      <trkpt lat="43.8001" lon="7.24676">
        <ele>690</ele>
        <time>2016-05-15T12:27:43.000Z</time>
      </trkpt>
      <trkpt lat="43.80008" lon="7.24677">
        <ele>690</ele>
        <time>2016-05-15T12:27:45.000Z</time>
      </trkpt>
      <trkpt lat="43.80006" lon="7.24678">
        <ele>690</ele>
        <time>2016-05-15T12:27:48.000Z</time>
      </trkpt>
      <trkpt lat="43.80004" lon="7.24681">
        <ele>690</ele>
        <time>2016-05-15T12:27:52.000Z</time>
      </trkpt>
      <trkpt lat="43.80002" lon="7.24682">
        <ele>690</ele>
        <time>2016-05-15T12:27:55.000Z</time>
      </trkpt>
      <trkpt lat="43.79998" lon="7.24686">
        <ele>686</ele>
        <time>2016-05-15T12:28:01.000Z</time>
      </trkpt>
      <trkpt lat="43.79997" lon="7.24687">
        <ele>685</ele>
        <time>2016-05-15T12:28:02.000Z</time>
      </trkpt>
      <trkpt lat="43.79993" lon="7.24688">
        <ele>685</ele>
        <time>2016-05-15T12:28:09.000Z</time>
      </trkpt>
      <trkpt lat="43.79992" lon="7.24688">
        <ele>685</ele>
        <time>2016-05-15T12:28:10.000Z</time>
      </trkpt>
      <trkpt lat="43.79986" lon="7.24688">
        <ele>685</ele>
        <time>2016-05-15T12:28:18.000Z</time>
      </trkpt>
      <trkpt lat="43.79982" lon="7.24688">
        <ele>685</ele>
        <time>2016-05-15T12:28:26.000Z</time>
      </trkpt>
      <trkpt lat="43.79981" lon="7.24688">
        <ele>685</ele>
        <time>2016-05-15T12:28:27.000Z</time>
      </trkpt>
      <trkpt lat="43.7998" lon="7.24689">
        <ele>685</ele>
        <time>2016-05-15T12:28:30.000Z</time>
      </trkpt>
      <trkpt lat="43.79977" lon="7.24689">
        <ele>685</ele>
        <time>2016-05-15T12:28:32.000Z</time>
      </trkpt>
      <trkpt lat="43.79971" lon="7.2469">
        <ele>686</ele>
        <time>2016-05-15T12:28:37.000Z</time>
      </trkpt>
      <trkpt lat="43.79968" lon="7.24691">
        <ele>686</ele>
        <time>2016-05-15T12:28:39.000Z</time>
      </trkpt>
      <trkpt lat="43.79964" lon="7.24691">
        <ele>686</ele>
        <time>2016-05-15T12:28:41.000Z</time>
      </trkpt>
      <trkpt lat="43.79958" lon="7.24694">
        <ele>686</ele>
        <time>2016-05-15T12:28:46.000Z</time>
      </trkpt>
      <trkpt lat="43.79952" lon="7.24696">
        <ele>686</ele>
        <time>2016-05-15T12:28:50.000Z</time>
      </trkpt>
      <trkpt lat="43.79949" lon="7.24697">
        <ele>687</ele>
        <time>2016-05-15T12:28:52.000Z</time>
      </trkpt>
      <trkpt lat="43.79947" lon="7.24697">
        <ele>687</ele>
        <time>2016-05-15T12:28:54.000Z</time>
      </trkpt>
      <trkpt lat="43.79941" lon="7.24698">
        <ele>687</ele>
        <time>2016-05-15T12:28:59.000Z</time>
      </trkpt>
      <trkpt lat="43.7994" lon="7.24697">
        <ele>688</ele>
        <time>2016-05-15T12:29:03.000Z</time>
      </trkpt>
      <trkpt lat="43.7994" lon="7.24697">
        <ele>688</ele>
        <time>2016-05-15T12:29:04.000Z</time>
      </trkpt>
      <trkpt lat="43.79936" lon="7.24699">
        <ele>688</ele>
        <time>2016-05-15T12:29:09.000Z</time>
      </trkpt>
      <trkpt lat="43.7993" lon="7.247">
        <ele>688</ele>
        <time>2016-05-15T12:29:15.000Z</time>
      </trkpt>
      <trkpt lat="43.79926" lon="7.24701">
        <ele>688</ele>
        <time>2016-05-15T12:29:19.000Z</time>
      </trkpt>
      <trkpt lat="43.79923" lon="7.24702">
        <ele>688</ele>
        <time>2016-05-15T12:29:22.000Z</time>
      </trkpt>
      <trkpt lat="43.79921" lon="7.24703">
        <ele>688</ele>
        <time>2016-05-15T12:29:25.000Z</time>
      </trkpt>
      <trkpt lat="43.79917" lon="7.24704">
        <ele>688</ele>
        <time>2016-05-15T12:29:29.000Z</time>
      </trkpt>
      <trkpt lat="43.79911" lon="7.24706">
        <ele>698</ele>
        <time>2016-05-15T12:29:35.000Z</time>
      </trkpt>
      <trkpt lat="43.7991" lon="7.24706">
        <ele>699</ele>
        <time>2016-05-15T12:29:37.000Z</time>
      </trkpt>
      <trkpt lat="43.79903" lon="7.24708">
        <ele>699</ele>
        <time>2016-05-15T12:29:43.000Z</time>
      </trkpt>
      <trkpt lat="43.79895" lon="7.24711">
        <ele>699</ele>
        <time>2016-05-15T12:29:51.000Z</time>
      </trkpt>
      <trkpt lat="43.79893" lon="7.24713">
        <ele>699</ele>
        <time>2016-05-15T12:29:54.000Z</time>
      </trkpt>
      <trkpt lat="43.79888" lon="7.24714">
        <ele>699</ele>
        <time>2016-05-15T12:29:59.000Z</time>
      </trkpt>
      <trkpt lat="43.79887" lon="7.24714">
        <ele>699</ele>
        <time>2016-05-15T12:30:00.000Z</time>
      </trkpt>
      <trkpt lat="43.7988" lon="7.24715">
        <ele>700</ele>
        <time>2016-05-15T12:30:07.000Z</time>
      </trkpt>
      <trkpt lat="43.79873" lon="7.24718">
        <ele>701</ele>
        <time>2016-05-15T12:30:15.000Z</time>
      </trkpt>
      <trkpt lat="43.79871" lon="7.24718">
        <ele>701</ele>
        <time>2016-05-15T12:30:17.000Z</time>
      </trkpt>
      <trkpt lat="43.79867" lon="7.24719">
        <ele>701</ele>
        <time>2016-05-15T12:30:22.000Z</time>
      </trkpt>
      <trkpt lat="43.79868" lon="7.24719">
        <ele>701</ele>
        <time>2016-05-15T12:30:27.000Z</time>
      </trkpt>
      <trkpt lat="43.79868" lon="7.24719">
        <ele>701</ele>
        <time>2016-05-15T12:30:28.000Z</time>
      </trkpt>
      <trkpt lat="43.79866" lon="7.2472">
        <ele>701</ele>
        <time>2016-05-15T12:30:36.000Z</time>
      </trkpt>
      <trkpt lat="43.79858" lon="7.24727">
        <ele>701</ele>
        <time>2016-05-15T12:30:42.000Z</time>
      </trkpt>
      <trkpt lat="43.79846" lon="7.24734">
        <ele>702</ele>
        <time>2016-05-15T12:30:49.000Z</time>
      </trkpt>
      <trkpt lat="43.79845" lon="7.24734">
        <ele>702</ele>
        <time>2016-05-15T12:30:50.000Z</time>
      </trkpt>
      <trkpt lat="43.79838" lon="7.2474">
        <ele>701</ele>
        <time>2016-05-15T12:30:55.000Z</time>
      </trkpt>
      <trkpt lat="43.79832" lon="7.24744">
        <ele>705</ele>
        <time>2016-05-15T12:30:59.000Z</time>
      </trkpt>
      <trkpt lat="43.79825" lon="7.2475">
        <ele>707</ele>
        <time>2016-05-15T12:31:04.000Z</time>
      </trkpt>
      <trkpt lat="43.79822" lon="7.24753">
        <ele>699</ele>
        <time>2016-05-15T12:31:07.000Z</time>
      </trkpt>
      <trkpt lat="43.7982" lon="7.24754">
        <ele>698</ele>
        <time>2016-05-15T12:31:12.000Z</time>
      </trkpt>
      <trkpt lat="43.79819" lon="7.24755">
        <ele>698</ele>
        <time>2016-05-15T12:31:14.000Z</time>
      </trkpt>
      <trkpt lat="43.79815" lon="7.24756">
        <ele>698</ele>
        <time>2016-05-15T12:31:19.000Z</time>
      </trkpt>
      <trkpt lat="43.79812" lon="7.24755">
        <ele>698</ele>
        <time>2016-05-15T12:31:24.000Z</time>
      </trkpt>
      <trkpt lat="43.79811" lon="7.24756">
        <ele>698</ele>
        <time>2016-05-15T12:31:27.000Z</time>
      </trkpt>
      <trkpt lat="43.79811" lon="7.24756">
        <ele>698</ele>
        <time>2016-05-15T12:31:30.000Z</time>
      </trkpt>
      <trkpt lat="43.79812" lon="7.24756">
        <ele>698</ele>
        <time>2016-05-15T12:31:35.000Z</time>
      </trkpt>
      <trkpt lat="43.79808" lon="7.24757">
        <ele>698</ele>
        <time>2016-05-15T12:31:43.000Z</time>
      </trkpt>
      <trkpt lat="43.79797" lon="7.24764">
        <ele>698</ele>
        <time>2016-05-15T12:31:49.000Z</time>
      </trkpt>
      <trkpt lat="43.7978" lon="7.24778">
        <ele>698</ele>
        <time>2016-05-15T12:31:56.000Z</time>
      </trkpt>
      <trkpt lat="43.79758" lon="7.24788">
        <ele>698</ele>
        <time>2016-05-15T12:32:02.000Z</time>
      </trkpt>
      <trkpt lat="43.79729" lon="7.24803">
        <ele>708</ele>
        <time>2016-05-15T12:32:07.000Z</time>
      </trkpt>
      <trkpt lat="43.79716" lon="7.24814">
        <ele>708</ele>
        <time>2016-05-15T12:32:09.000Z</time>
      </trkpt>
      <trkpt lat="43.79709" lon="7.24821">
        <ele>709</ele>
        <time>2016-05-15T12:32:10.000Z</time>
      </trkpt>
      <trkpt lat="43.79703" lon="7.24828">
        <ele>709</ele>
        <time>2016-05-15T12:32:11.000Z</time>
      </trkpt>
      <trkpt lat="43.79696" lon="7.24836">
        <ele>691</ele>
        <time>2016-05-15T12:32:12.000Z</time>
      </trkpt>
      <trkpt lat="43.79677" lon="7.2486">
        <ele>690</ele>
        <time>2016-05-15T12:32:15.000Z</time>
      </trkpt>
      <trkpt lat="43.79662" lon="7.24875">
        <ele>694</ele>
        <time>2016-05-15T12:32:17.000Z</time>
      </trkpt>
      <trkpt lat="43.79654" lon="7.24884">
        <ele>692</ele>
        <time>2016-05-15T12:32:18.000Z</time>
      </trkpt>
      <trkpt lat="43.79647" lon="7.24891">
        <ele>690</ele>
        <time>2016-05-15T12:32:19.000Z</time>
      </trkpt>
      <trkpt lat="43.79639" lon="7.24896">
        <ele>690</ele>
        <time>2016-05-15T12:32:20.000Z</time>
      </trkpt>
      <trkpt lat="43.79632" lon="7.249">
        <ele>690</ele>
        <time>2016-05-15T12:32:21.000Z</time>
      </trkpt>
      <trkpt lat="43.79624" lon="7.24902">
        <ele>690</ele>
        <time>2016-05-15T12:32:22.000Z</time>
      </trkpt>
      <trkpt lat="43.79606" lon="7.24903">
        <ele>689</ele>
        <time>2016-05-15T12:32:24.000Z</time>
      </trkpt>
      <trkpt lat="43.79596" lon="7.24904">
        <ele>688</ele>
        <time>2016-05-15T12:32:25.000Z</time>
      </trkpt>
      <trkpt lat="43.79587" lon="7.24904">
        <ele>686</ele>
        <time>2016-05-15T12:32:26.000Z</time>
      </trkpt>
      <trkpt lat="43.79578" lon="7.24903">
        <ele>686</ele>
        <time>2016-05-15T12:32:27.000Z</time>
      </trkpt>
      <trkpt lat="43.7956" lon="7.24902">
        <ele>687</ele>
        <time>2016-05-15T12:32:29.000Z</time>
      </trkpt>
      <trkpt lat="43.79533" lon="7.24901">
        <ele>686</ele>
        <time>2016-05-15T12:32:32.000Z</time>
      </trkpt>
      <trkpt lat="43.79517" lon="7.24898">
        <ele>684</ele>
        <time>2016-05-15T12:32:34.000Z</time>
      </trkpt>
      <trkpt lat="43.795" lon="7.24895">
        <ele>682</ele>
        <time>2016-05-15T12:32:36.000Z</time>
      </trkpt>
      <trkpt lat="43.79477" lon="7.24887">
        <ele>676</ele>
        <time>2016-05-15T12:32:39.000Z</time>
      </trkpt>
      <trkpt lat="43.79455" lon="7.24877">
        <ele>676</ele>
        <time>2016-05-15T12:32:42.000Z</time>
      </trkpt>
      <trkpt lat="43.79433" lon="7.24867">
        <ele>677</ele>
        <time>2016-05-15T12:32:45.000Z</time>
      </trkpt>
      <trkpt lat="43.79412" lon="7.24855">
        <ele>671</ele>
        <time>2016-05-15T12:32:48.000Z</time>
      </trkpt>
      <trkpt lat="43.79406" lon="7.24852">
        <ele>671</ele>
        <time>2016-05-15T12:32:49.000Z</time>
      </trkpt>
      <trkpt lat="43.79393" lon="7.24847">
        <ele>669</ele>
        <time>2016-05-15T12:32:51.000Z</time>
      </trkpt>
      <trkpt lat="43.79382" lon="7.24842">
        <ele>668</ele>
        <time>2016-05-15T12:32:53.000Z</time>
      </trkpt>
      <trkpt lat="43.79376" lon="7.24841">
        <ele>667</ele>
        <time>2016-05-15T12:32:54.000Z</time>
      </trkpt>
      <trkpt lat="43.7936" lon="7.24837">
        <ele>666</ele>
        <time>2016-05-15T12:32:58.000Z</time>
      </trkpt>
      <trkpt lat="43.79347" lon="7.24834">
        <ele>666</ele>
        <time>2016-05-15T12:33:02.000Z</time>
      </trkpt>
      <trkpt lat="43.79334" lon="7.24834">
        <ele>669</ele>
        <time>2016-05-15T12:33:06.000Z</time>
      </trkpt>
      <trkpt lat="43.79332" lon="7.2483">
        <ele>669</ele>
        <time>2016-05-15T12:33:07.000Z</time>
      </trkpt>
      <trkpt lat="43.79329" lon="7.24828">
        <ele>669</ele>
        <time>2016-05-15T12:33:09.000Z</time>
      </trkpt>
      <trkpt lat="43.79327" lon="7.24827">
        <ele>669</ele>
        <time>2016-05-15T12:33:10.000Z</time>
      </trkpt>
      <trkpt lat="43.79325" lon="7.24826">
        <ele>668</ele>
        <time>2016-05-15T12:33:11.000Z</time>
      </trkpt>
      <trkpt lat="43.79319" lon="7.24824">
        <ele>668</ele>
        <time>2016-05-15T12:33:13.000Z</time>
      </trkpt>
      <trkpt lat="43.79311" lon="7.2482">
        <ele>668</ele>
        <time>2016-05-15T12:33:15.000Z</time>
      </trkpt>
      <trkpt lat="43.79303" lon="7.24814">
        <ele>667</ele>
        <time>2016-05-15T12:33:17.000Z</time>
      </trkpt>
      <trkpt lat="43.79296" lon="7.24805">
        <ele>667</ele>
        <time>2016-05-15T12:33:19.000Z</time>
      </trkpt>
      <trkpt lat="43.79293" lon="7.248">
        <ele>667</ele>
        <time>2016-05-15T12:33:20.000Z</time>
      </trkpt>
      <trkpt lat="43.79287" lon="7.24795">
        <ele>666</ele>
        <time>2016-05-15T12:33:23.000Z</time>
      </trkpt>
      <trkpt lat="43.79279" lon="7.24807">
        <ele>665</ele>
        <time>2016-05-15T12:33:26.000Z</time>
      </trkpt>
      <trkpt lat="43.79275" lon="7.24813">
        <ele>665</ele>
        <time>2016-05-15T12:33:27.000Z</time>
      </trkpt>
      <trkpt lat="43.7927" lon="7.24818">
        <ele>664</ele>
        <time>2016-05-15T12:33:28.000Z</time>
      </trkpt>
      <trkpt lat="43.79259" lon="7.24825">
        <ele>663</ele>
        <time>2016-05-15T12:33:30.000Z</time>
      </trkpt>
      <trkpt lat="43.79248" lon="7.24829">
        <ele>661</ele>
        <time>2016-05-15T12:33:32.000Z</time>
      </trkpt>
      <trkpt lat="43.7924" lon="7.2483">
        <ele>661</ele>
        <time>2016-05-15T12:33:34.000Z</time>
      </trkpt>
      <trkpt lat="43.79239" lon="7.2483">
        <ele>661</ele>
        <time>2016-05-15T12:33:35.000Z</time>
      </trkpt>
      <trkpt lat="43.79239" lon="7.24832">
        <ele>661</ele>
        <time>2016-05-15T12:33:38.000Z</time>
      </trkpt>
      <trkpt lat="43.79236" lon="7.2484">
        <ele>660</ele>
        <time>2016-05-15T12:33:41.000Z</time>
      </trkpt>
      <trkpt lat="43.79234" lon="7.24843">
        <ele>660</ele>
        <time>2016-05-15T12:33:42.000Z</time>
      </trkpt>
      <trkpt lat="43.79232" lon="7.24845">
        <ele>660</ele>
        <time>2016-05-15T12:33:43.000Z</time>
      </trkpt>
      <trkpt lat="43.7923" lon="7.24848">
        <ele>660</ele>
        <time>2016-05-15T12:33:46.000Z</time>
      </trkpt>
      <trkpt lat="43.79229" lon="7.24852">
        <ele>660</ele>
        <time>2016-05-15T12:33:58.000Z</time>
      </trkpt>
      <trkpt lat="43.79221" lon="7.24862">
        <ele>660</ele>
        <time>2016-05-15T12:34:03.000Z</time>
      </trkpt>
      <trkpt lat="43.79205" lon="7.24878">
        <ele>660</ele>
        <time>2016-05-15T12:34:11.000Z</time>
      </trkpt>
      <trkpt lat="43.79202" lon="7.24882">
        <ele>660</ele>
        <time>2016-05-15T12:34:13.000Z</time>
      </trkpt>
      <trkpt lat="43.79201" lon="7.24885">
        <ele>660</ele>
        <time>2016-05-15T12:34:14.000Z</time>
      </trkpt>
      <trkpt lat="43.79204" lon="7.24889">
        <ele>659</ele>
        <time>2016-05-15T12:34:16.000Z</time>
      </trkpt>
      <trkpt lat="43.79206" lon="7.24901">
        <ele>659</ele>
        <time>2016-05-15T12:34:20.000Z</time>
      </trkpt>
      <trkpt lat="43.79205" lon="7.2491">
        <ele>658</ele>
        <time>2016-05-15T12:34:23.000Z</time>
      </trkpt>
      <trkpt lat="43.79203" lon="7.24917">
        <ele>649</ele>
        <time>2016-05-15T12:34:25.000Z</time>
      </trkpt>
      <trkpt lat="43.79201" lon="7.2492">
        <ele>649</ele>
        <time>2016-05-15T12:34:26.000Z</time>
      </trkpt>
      <trkpt lat="43.792" lon="7.24923">
        <ele>649</ele>
        <time>2016-05-15T12:34:27.000Z</time>
      </trkpt>
      <trkpt lat="43.792" lon="7.24927">
        <ele>648</ele>
        <time>2016-05-15T12:34:29.000Z</time>
      </trkpt>
      <trkpt lat="43.79202" lon="7.24929">
        <ele>648</ele>
        <time>2016-05-15T12:34:30.000Z</time>
      </trkpt>
      <trkpt lat="43.79206" lon="7.24931">
        <ele>647</ele>
        <time>2016-05-15T12:34:33.000Z</time>
      </trkpt>
      <trkpt lat="43.79209" lon="7.24931">
        <ele>646</ele>
        <time>2016-05-15T12:34:34.000Z</time>
      </trkpt>
      <trkpt lat="43.79219" lon="7.24929">
        <ele>645</ele>
        <time>2016-05-15T12:34:38.000Z</time>
      </trkpt>
      <trkpt lat="43.7922" lon="7.24929">
        <ele>645</ele>
        <time>2016-05-15T12:34:39.000Z</time>
      </trkpt>
      <trkpt lat="43.7922" lon="7.24928">
        <ele>645</ele>
        <time>2016-05-15T12:34:40.000Z</time>
      </trkpt>
      <trkpt lat="43.7922" lon="7.24929">
        <ele>645</ele>
        <time>2016-05-15T12:34:43.000Z</time>
      </trkpt>
      <trkpt lat="43.7922" lon="7.24933">
        <ele>645</ele>
        <time>2016-05-15T12:34:47.000Z</time>
      </trkpt>
      <trkpt lat="43.79219" lon="7.24935">
        <ele>645</ele>
        <time>2016-05-15T12:34:48.000Z</time>
      </trkpt>
      <trkpt lat="43.79217" lon="7.24937">
        <ele>645</ele>
        <time>2016-05-15T12:34:53.000Z</time>
      </trkpt>
      <trkpt lat="43.79217" lon="7.24938">
        <ele>645</ele>
        <time>2016-05-15T12:34:56.000Z</time>
      </trkpt>
      <trkpt lat="43.79218" lon="7.24939">
        <ele>645</ele>
        <time>2016-05-15T12:34:57.000Z</time>
      </trkpt>
      <trkpt lat="43.79218" lon="7.24941">
        <ele>644</ele>
        <time>2016-05-15T12:34:58.000Z</time>
      </trkpt>
      <trkpt lat="43.79217" lon="7.24944">
        <ele>644</ele>
        <time>2016-05-15T12:35:00.000Z</time>
      </trkpt>
      <trkpt lat="43.79217" lon="7.24944">
        <ele>644</ele>
        <time>2016-05-15T12:35:02.000Z</time>
      </trkpt>
      <trkpt lat="43.79216" lon="7.24945">
        <ele>644</ele>
        <time>2016-05-15T12:35:04.000Z</time>
      </trkpt>
      <trkpt lat="43.79218" lon="7.24945">
        <ele>644</ele>
        <time>2016-05-15T12:35:07.000Z</time>
      </trkpt>
      <trkpt lat="43.79228" lon="7.24943">
        <ele>643</ele>
        <time>2016-05-15T12:35:11.000Z</time>
      </trkpt>
      <trkpt lat="43.79235" lon="7.24941">
        <ele>643</ele>
        <time>2016-05-15T12:35:15.000Z</time>
      </trkpt>
      <trkpt lat="43.79235" lon="7.24941">
        <ele>643</ele>
        <time>2016-05-15T12:35:16.000Z</time>
      </trkpt>
      <trkpt lat="43.79236" lon="7.24942">
        <ele>643</ele>
        <time>2016-05-15T12:35:20.000Z</time>
      </trkpt>
      <trkpt lat="43.79237" lon="7.24943">
        <ele>643</ele>
        <time>2016-05-15T12:35:21.000Z</time>
      </trkpt>
      <trkpt lat="43.79239" lon="7.24942">
        <ele>643</ele>
        <time>2016-05-15T12:35:24.000Z</time>
      </trkpt>
      <trkpt lat="43.79238" lon="7.24942">
        <ele>643</ele>
        <time>2016-05-15T12:35:26.000Z</time>
      </trkpt>
      <trkpt lat="43.7924" lon="7.24943">
        <ele>642</ele>
        <time>2016-05-15T12:35:28.000Z</time>
      </trkpt>
      <trkpt lat="43.79243" lon="7.24945">
        <ele>642</ele>
        <time>2016-05-15T12:35:29.000Z</time>
      </trkpt>
      <trkpt lat="43.79245" lon="7.24946">
        <ele>642</ele>
        <time>2016-05-15T12:35:30.000Z</time>
      </trkpt>
      <trkpt lat="43.7925" lon="7.24948">
        <ele>641</ele>
        <time>2016-05-15T12:35:32.000Z</time>
      </trkpt>
      <trkpt lat="43.79252" lon="7.24951">
        <ele>632</ele>
        <time>2016-05-15T12:35:34.000Z</time>
      </trkpt>
      <trkpt lat="43.79252" lon="7.24953">
        <ele>632</ele>
        <time>2016-05-15T12:35:35.000Z</time>
      </trkpt>
      <trkpt lat="43.79255" lon="7.24958">
        <ele>630</ele>
        <time>2016-05-15T12:35:37.000Z</time>
      </trkpt>
      <trkpt lat="43.79259" lon="7.24963">
        <ele>629</ele>
        <time>2016-05-15T12:35:39.000Z</time>
      </trkpt>
      <trkpt lat="43.79261" lon="7.24966">
        <ele>629</ele>
        <time>2016-05-15T12:35:40.000Z</time>
      </trkpt>
      <trkpt lat="43.79261" lon="7.24971">
        <ele>628</ele>
        <time>2016-05-15T12:35:42.000Z</time>
      </trkpt>
      <trkpt lat="43.79261" lon="7.24974">
        <ele>627</ele>
        <time>2016-05-15T12:35:43.000Z</time>
      </trkpt>
      <trkpt lat="43.7926" lon="7.24976">
        <ele>627</ele>
        <time>2016-05-15T12:35:44.000Z</time>
      </trkpt>
      <trkpt lat="43.79261" lon="7.24978">
        <ele>626</ele>
        <time>2016-05-15T12:35:45.000Z</time>
      </trkpt>
      <trkpt lat="43.79264" lon="7.24981">
        <ele>626</ele>
        <time>2016-05-15T12:35:47.000Z</time>
      </trkpt>
      <trkpt lat="43.79265" lon="7.24981">
        <ele>626</ele>
        <time>2016-05-15T12:35:49.000Z</time>
      </trkpt>
      <trkpt lat="43.79267" lon="7.24981">
        <ele>626</ele>
        <time>2016-05-15T12:35:50.000Z</time>
      </trkpt>
      <trkpt lat="43.79269" lon="7.24983">
        <ele>626</ele>
        <time>2016-05-15T12:35:51.000Z</time>
      </trkpt>
      <trkpt lat="43.79268" lon="7.24989">
        <ele>625</ele>
        <time>2016-05-15T12:35:53.000Z</time>
      </trkpt>
      <trkpt lat="43.79267" lon="7.24992">
        <ele>625</ele>
        <time>2016-05-15T12:35:55.000Z</time>
      </trkpt>
      <trkpt lat="43.79268" lon="7.24995">
        <ele>624</ele>
        <time>2016-05-15T12:35:57.000Z</time>
      </trkpt>
      <trkpt lat="43.79268" lon="7.25">
        <ele>618</ele>
        <time>2016-05-15T12:35:59.000Z</time>
      </trkpt>
      <trkpt lat="43.79267" lon="7.2501">
        <ele>610</ele>
        <time>2016-05-15T12:36:02.000Z</time>
      </trkpt>
      <trkpt lat="43.79259" lon="7.25017">
        <ele>610</ele>
        <time>2016-05-15T12:36:05.000Z</time>
      </trkpt>
      <trkpt lat="43.79257" lon="7.25019">
        <ele>610</ele>
        <time>2016-05-15T12:36:06.000Z</time>
      </trkpt>
      <trkpt lat="43.79251" lon="7.25023">
        <ele>609</ele>
        <time>2016-05-15T12:36:09.000Z</time>
      </trkpt>
      <trkpt lat="43.79246" lon="7.25025">
        <ele>619</ele>
        <time>2016-05-15T12:36:11.000Z</time>
      </trkpt>
      <trkpt lat="43.7923" lon="7.25035">
        <ele>618</ele>
        <time>2016-05-15T12:36:17.000Z</time>
      </trkpt>
      <trkpt lat="43.79228" lon="7.25035">
        <ele>618</ele>
        <time>2016-05-15T12:36:18.000Z</time>
      </trkpt>
      <trkpt lat="43.79219" lon="7.25038">
        <ele>619</ele>
        <time>2016-05-15T12:36:21.000Z</time>
      </trkpt>
      <trkpt lat="43.79216" lon="7.25039">
        <ele>619</ele>
        <time>2016-05-15T12:36:22.000Z</time>
      </trkpt>
      <trkpt lat="43.79208" lon="7.25043">
        <ele>619</ele>
        <time>2016-05-15T12:36:27.000Z</time>
      </trkpt>
      <trkpt lat="43.79204" lon="7.25049">
        <ele>619</ele>
        <time>2016-05-15T12:36:33.000Z</time>
      </trkpt>
      <trkpt lat="43.792" lon="7.25053">
        <ele>619</ele>
        <time>2016-05-15T12:36:36.000Z</time>
      </trkpt>
      <trkpt lat="43.79197" lon="7.25058">
        <ele>618</ele>
        <time>2016-05-15T12:36:38.000Z</time>
      </trkpt>
      <trkpt lat="43.79189" lon="7.25065">
        <ele>618</ele>
        <time>2016-05-15T12:36:41.000Z</time>
      </trkpt>
      <trkpt lat="43.79189" lon="7.25065">
        <ele>618</ele>
        <time>2016-05-15T12:36:42.000Z</time>
      </trkpt>
      <trkpt lat="43.79189" lon="7.25065">
        <ele>618</ele>
        <time>2016-05-15T12:36:44.000Z</time>
      </trkpt>
      <trkpt lat="43.79188" lon="7.25067">
        <ele>618</ele>
        <time>2016-05-15T12:36:46.000Z</time>
      </trkpt>
      <trkpt lat="43.79181" lon="7.25077">
        <ele>617</ele>
        <time>2016-05-15T12:36:50.000Z</time>
      </trkpt>
      <trkpt lat="43.79173" lon="7.25095">
        <ele>605</ele>
        <time>2016-05-15T12:36:54.000Z</time>
      </trkpt>
      <trkpt lat="43.79166" lon="7.25105">
        <ele>611</ele>
        <time>2016-05-15T12:36:57.000Z</time>
      </trkpt>
      <trkpt lat="43.79163" lon="7.2511">
        <ele>610</ele>
        <time>2016-05-15T12:36:59.000Z</time>
      </trkpt>
      <trkpt lat="43.79158" lon="7.25122">
        <ele>607</ele>
        <time>2016-05-15T12:37:02.000Z</time>
      </trkpt>
      <trkpt lat="43.79155" lon="7.25131">
        <ele>605</ele>
        <time>2016-05-15T12:37:04.000Z</time>
      </trkpt>
      <trkpt lat="43.79151" lon="7.25139">
        <ele>604</ele>
        <time>2016-05-15T12:37:06.000Z</time>
      </trkpt>
      <trkpt lat="43.79148" lon="7.25146">
        <ele>602</ele>
        <time>2016-05-15T12:37:09.000Z</time>
      </trkpt>
      <trkpt lat="43.79147" lon="7.25149">
        <ele>602</ele>
        <time>2016-05-15T12:37:12.000Z</time>
      </trkpt>
      <trkpt lat="43.79147" lon="7.25151">
        <ele>601</ele>
        <time>2016-05-15T12:37:14.000Z</time>
      </trkpt>
      <trkpt lat="43.79147" lon="7.25152">
        <ele>601</ele>
        <time>2016-05-15T12:37:16.000Z</time>
      </trkpt>
      <trkpt lat="43.79146" lon="7.25158">
        <ele>600</ele>
        <time>2016-05-15T12:37:20.000Z</time>
      </trkpt>
      <trkpt lat="43.79144" lon="7.2516">
        <ele>600</ele>
        <time>2016-05-15T12:37:21.000Z</time>
      </trkpt>
      <trkpt lat="43.7914" lon="7.25166">
        <ele>601</ele>
        <time>2016-05-15T12:37:25.000Z</time>
      </trkpt>
      <trkpt lat="43.79144" lon="7.2517">
        <ele>584</ele>
        <time>2016-05-15T12:37:28.000Z</time>
      </trkpt>
      <trkpt lat="43.79143" lon="7.25173">
        <ele>584</ele>
        <time>2016-05-15T12:37:29.000Z</time>
      </trkpt>
      <trkpt lat="43.79134" lon="7.25184">
        <ele>584</ele>
        <time>2016-05-15T12:37:33.000Z</time>
      </trkpt>
      <trkpt lat="43.79129" lon="7.25196">
        <ele>582</ele>
        <time>2016-05-15T12:37:37.000Z</time>
      </trkpt>
      <trkpt lat="43.79123" lon="7.25206">
        <ele>581</ele>
        <time>2016-05-15T12:37:40.000Z</time>
      </trkpt>
      <trkpt lat="43.79121" lon="7.25208">
        <ele>581</ele>
        <time>2016-05-15T12:37:41.000Z</time>
      </trkpt>
      <trkpt lat="43.79119" lon="7.25209">
        <ele>581</ele>
        <time>2016-05-15T12:37:42.000Z</time>
      </trkpt>
      <trkpt lat="43.79117" lon="7.25209">
        <ele>581</ele>
        <time>2016-05-15T12:37:44.000Z</time>
      </trkpt>
      <trkpt lat="43.79116" lon="7.25211">
        <ele>581</ele>
        <time>2016-05-15T12:37:45.000Z</time>
      </trkpt>
      <trkpt lat="43.79115" lon="7.25212">
        <ele>581</ele>
        <time>2016-05-15T12:37:46.000Z</time>
      </trkpt>
      <trkpt lat="43.79114" lon="7.25215">
        <ele>581</ele>
        <time>2016-05-15T12:37:47.000Z</time>
      </trkpt>
      <trkpt lat="43.79109" lon="7.25223">
        <ele>580</ele>
        <time>2016-05-15T12:37:50.000Z</time>
      </trkpt>
      <trkpt lat="43.79108" lon="7.25224">
        <ele>580</ele>
        <time>2016-05-15T12:37:52.000Z</time>
      </trkpt>
      <trkpt lat="43.79104" lon="7.25228">
        <ele>579</ele>
        <time>2016-05-15T12:37:54.000Z</time>
      </trkpt>
      <trkpt lat="43.791" lon="7.25229">
        <ele>579</ele>
        <time>2016-05-15T12:37:56.000Z</time>
      </trkpt>
      <trkpt lat="43.79099" lon="7.25232">
        <ele>579</ele>
        <time>2016-05-15T12:37:57.000Z</time>
      </trkpt>
      <trkpt lat="43.79097" lon="7.25235">
        <ele>579</ele>
        <time>2016-05-15T12:37:58.000Z</time>
      </trkpt>
      <trkpt lat="43.79095" lon="7.25235">
        <ele>579</ele>
        <time>2016-05-15T12:37:59.000Z</time>
      </trkpt>
      <trkpt lat="43.79094" lon="7.25235">
        <ele>579</ele>
        <time>2016-05-15T12:38:00.000Z</time>
      </trkpt>
      <trkpt lat="43.79093" lon="7.25235">
        <ele>579</ele>
        <time>2016-05-15T12:38:01.000Z</time>
      </trkpt>
      <trkpt lat="43.79092" lon="7.25235">
        <ele>579</ele>
        <time>2016-05-15T12:38:02.000Z</time>
      </trkpt>
      <trkpt lat="43.7909" lon="7.25236">
        <ele>578</ele>
        <time>2016-05-15T12:38:04.000Z</time>
      </trkpt>
      <trkpt lat="43.79086" lon="7.25236">
        <ele>578</ele>
        <time>2016-05-15T12:38:07.000Z</time>
      </trkpt>
      <trkpt lat="43.79085" lon="7.25235">
        <ele>579</ele>
        <time>2016-05-15T12:38:12.000Z</time>
      </trkpt>
      <trkpt lat="43.79075" lon="7.25237">
        <ele>578</ele>
        <time>2016-05-15T12:38:17.000Z</time>
      </trkpt>
      <trkpt lat="43.79069" lon="7.25234">
        <ele>578</ele>
        <time>2016-05-15T12:38:19.000Z</time>
      </trkpt>
      <trkpt lat="43.79066" lon="7.25227">
        <ele>579</ele>
        <time>2016-05-15T12:38:21.000Z</time>
      </trkpt>
      <trkpt lat="43.79064" lon="7.25223">
        <ele>579</ele>
        <time>2016-05-15T12:38:23.000Z</time>
      </trkpt>
      <trkpt lat="43.79063" lon="7.25222">
        <ele>579</ele>
        <time>2016-05-15T12:38:24.000Z</time>
      </trkpt>
      <trkpt lat="43.79061" lon="7.25221">
        <ele>579</ele>
        <time>2016-05-15T12:38:26.000Z</time>
      </trkpt>
      <trkpt lat="43.79054" lon="7.25212">
        <ele>580</ele>
        <time>2016-05-15T12:38:32.000Z</time>
      </trkpt>
      <trkpt lat="43.79046" lon="7.25201">
        <ele>581</ele>
        <time>2016-05-15T12:38:36.000Z</time>
      </trkpt>
      <trkpt lat="43.79043" lon="7.25194">
        <ele>581</ele>
        <time>2016-05-15T12:38:40.000Z</time>
      </trkpt>
      <trkpt lat="43.79038" lon="7.25189">
        <ele>581</ele>
        <time>2016-05-15T12:38:44.000Z</time>
      </trkpt>
      <trkpt lat="43.79037" lon="7.25186">
        <ele>581</ele>
        <time>2016-05-15T12:38:45.000Z</time>
      </trkpt>
      <trkpt lat="43.79035" lon="7.25182">
        <ele>581</ele>
        <time>2016-05-15T12:38:47.000Z</time>
      </trkpt>
      <trkpt lat="43.79032" lon="7.25176">
        <ele>581</ele>
        <time>2016-05-15T12:38:49.000Z</time>
      </trkpt>
      <trkpt lat="43.79029" lon="7.25173">
        <ele>581</ele>
        <time>2016-05-15T12:38:50.000Z</time>
      </trkpt>
      <trkpt lat="43.79025" lon="7.25168">
        <ele>580</ele>
        <time>2016-05-15T12:38:52.000Z</time>
      </trkpt>
      <trkpt lat="43.79015" lon="7.25156">
        <ele>590</ele>
        <time>2016-05-15T12:38:55.000Z</time>
      </trkpt>
      <trkpt lat="43.79009" lon="7.25146">
        <ele>592</ele>
        <time>2016-05-15T12:38:57.000Z</time>
      </trkpt>
      <trkpt lat="43.79005" lon="7.25138">
        <ele>594</ele>
        <time>2016-05-15T12:38:59.000Z</time>
      </trkpt>
      <trkpt lat="43.78999" lon="7.25127">
        <ele>578</ele>
        <time>2016-05-15T12:39:02.000Z</time>
      </trkpt>
      <trkpt lat="43.78994" lon="7.25117">
        <ele>580</ele>
        <time>2016-05-15T12:39:05.000Z</time>
      </trkpt>
      <trkpt lat="43.78983" lon="7.25102">
        <ele>582</ele>
        <time>2016-05-15T12:39:10.000Z</time>
      </trkpt>
      <trkpt lat="43.7898" lon="7.25095">
        <ele>583</ele>
        <time>2016-05-15T12:39:12.000Z</time>
      </trkpt>
      <trkpt lat="43.78968" lon="7.2507">
        <ele>595</ele>
        <time>2016-05-15T12:39:19.000Z</time>
      </trkpt>
      <trkpt lat="43.78962" lon="7.25057">
        <ele>595</ele>
        <time>2016-05-15T12:39:23.000Z</time>
      </trkpt>
      <trkpt lat="43.78955" lon="7.25047">
        <ele>596</ele>
        <time>2016-05-15T12:39:26.000Z</time>
      </trkpt>
      <trkpt lat="43.78945" lon="7.25038">
        <ele>596</ele>
        <time>2016-05-15T12:39:29.000Z</time>
      </trkpt>
      <trkpt lat="43.7894" lon="7.25036">
        <ele>596</ele>
        <time>2016-05-15T12:39:30.000Z</time>
      </trkpt>
      <trkpt lat="43.78925" lon="7.25039">
        <ele>594</ele>
        <time>2016-05-15T12:39:33.000Z</time>
      </trkpt>
      <trkpt lat="43.7892" lon="7.2504">
        <ele>593</ele>
        <time>2016-05-15T12:39:34.000Z</time>
      </trkpt>
      <trkpt lat="43.78876" lon="7.25049">
        <ele>584</ele>
        <time>2016-05-15T12:39:43.000Z</time>
      </trkpt>
      <trkpt lat="43.78848" lon="7.25055">
        <ele>582</ele>
        <time>2016-05-15T12:39:49.000Z</time>
      </trkpt>
      <trkpt lat="43.78812" lon="7.25054">
        <ele>578</ele>
        <time>2016-05-15T12:39:56.000Z</time>
      </trkpt>
      <trkpt lat="43.78788" lon="7.25049">
        <ele>577</ele>
        <time>2016-05-15T12:40:00.000Z</time>
      </trkpt>
      <trkpt lat="43.78763" lon="7.25045">
        <ele>576</ele>
        <time>2016-05-15T12:40:03.000Z</time>
      </trkpt>
      <trkpt lat="43.78754" lon="7.25046">
        <ele>576</ele>
        <time>2016-05-15T12:40:04.000Z</time>
      </trkpt>
      <trkpt lat="43.78744" lon="7.25047">
        <ele>571</ele>
        <time>2016-05-15T12:40:05.000Z</time>
      </trkpt>
      <trkpt lat="43.78725" lon="7.25052">
        <ele>571</ele>
        <time>2016-05-15T12:40:07.000Z</time>
      </trkpt>
      <trkpt lat="43.78716" lon="7.25057">
        <ele>571</ele>
        <time>2016-05-15T12:40:08.000Z</time>
      </trkpt>
      <trkpt lat="43.78707" lon="7.25061">
        <ele>570</ele>
        <time>2016-05-15T12:40:09.000Z</time>
      </trkpt>
      <trkpt lat="43.78681" lon="7.2507">
        <ele>570</ele>
        <time>2016-05-15T12:40:12.000Z</time>
      </trkpt>
      <trkpt lat="43.78665" lon="7.25074">
        <ele>570</ele>
        <time>2016-05-15T12:40:14.000Z</time>
      </trkpt>
      <trkpt lat="43.78657" lon="7.25076">
        <ele>570</ele>
        <time>2016-05-15T12:40:15.000Z</time>
      </trkpt>
      <trkpt lat="43.78642" lon="7.2508">
        <ele>570</ele>
        <time>2016-05-15T12:40:18.000Z</time>
      </trkpt>
      <trkpt lat="43.7862" lon="7.25086">
        <ele>566</ele>
        <time>2016-05-15T12:40:24.000Z</time>
      </trkpt>
      <trkpt lat="43.78605" lon="7.25089">
        <ele>567</ele>
        <time>2016-05-15T12:40:30.000Z</time>
      </trkpt>
      <trkpt lat="43.78586" lon="7.25096">
        <ele>569</ele>
        <time>2016-05-15T12:40:36.000Z</time>
      </trkpt>
      <trkpt lat="43.78571" lon="7.25101">
        <ele>569</ele>
        <time>2016-05-15T12:40:41.000Z</time>
      </trkpt>
      <trkpt lat="43.78565" lon="7.25102">
        <ele>568</ele>
        <time>2016-05-15T12:40:43.000Z</time>
      </trkpt>
      <trkpt lat="43.78558" lon="7.25096">
        <ele>569</ele>
        <time>2016-05-15T12:40:47.000Z</time>
      </trkpt>
      <trkpt lat="43.78548" lon="7.25093">
        <ele>568</ele>
        <time>2016-05-15T12:40:52.000Z</time>
      </trkpt>
      <trkpt lat="43.78545" lon="7.25093">
        <ele>568</ele>
        <time>2016-05-15T12:40:53.000Z</time>
      </trkpt>
      <trkpt lat="43.7853" lon="7.25096">
        <ele>568</ele>
        <time>2016-05-15T12:40:58.000Z</time>
      </trkpt>
      <trkpt lat="43.78514" lon="7.2511">
        <ele>568</ele>
        <time>2016-05-15T12:41:03.000Z</time>
      </trkpt>
      <trkpt lat="43.7851" lon="7.25113">
        <ele>568</ele>
        <time>2016-05-15T12:41:04.000Z</time>
      </trkpt>
      <trkpt lat="43.78496" lon="7.25118">
        <ele>565</ele>
        <time>2016-05-15T12:41:07.000Z</time>
      </trkpt>
      <trkpt lat="43.78482" lon="7.25129">
        <ele>563</ele>
        <time>2016-05-15T12:41:10.000Z</time>
      </trkpt>
      <trkpt lat="43.78477" lon="7.25134">
        <ele>563</ele>
        <time>2016-05-15T12:41:11.000Z</time>
      </trkpt>
      <trkpt lat="43.78466" lon="7.2514">
        <ele>562</ele>
        <time>2016-05-15T12:41:13.000Z</time>
      </trkpt>
      <trkpt lat="43.78455" lon="7.25148">
        <ele>562</ele>
        <time>2016-05-15T12:41:15.000Z</time>
      </trkpt>
      <trkpt lat="43.78445" lon="7.25159">
        <ele>561</ele>
        <time>2016-05-15T12:41:17.000Z</time>
      </trkpt>
      <trkpt lat="43.78434" lon="7.2517">
        <ele>556</ele>
        <time>2016-05-15T12:41:19.000Z</time>
      </trkpt>
      <trkpt lat="43.78427" lon="7.25175">
        <ele>557</ele>
        <time>2016-05-15T12:41:20.000Z</time>
      </trkpt>
      <trkpt lat="43.78422" lon="7.25181">
        <ele>556</ele>
        <time>2016-05-15T12:41:21.000Z</time>
      </trkpt>
      <trkpt lat="43.784" lon="7.25203">
        <ele>551</ele>
        <time>2016-05-15T12:41:25.000Z</time>
      </trkpt>
      <trkpt lat="43.78398" lon="7.25207">
        <ele>550</ele>
        <time>2016-05-15T12:41:26.000Z</time>
      </trkpt>
      <trkpt lat="43.78389" lon="7.25211">
        <ele>550</ele>
        <time>2016-05-15T12:41:28.000Z</time>
      </trkpt>
      <trkpt lat="43.78382" lon="7.25207">
        <ele>550</ele>
        <time>2016-05-15T12:41:30.000Z</time>
      </trkpt>
      <trkpt lat="43.78378" lon="7.25208">
        <ele>550</ele>
        <time>2016-05-15T12:41:31.000Z</time>
      </trkpt>
      <trkpt lat="43.78375" lon="7.2521">
        <ele>549</ele>
        <time>2016-05-15T12:41:32.000Z</time>
      </trkpt>
      <trkpt lat="43.78368" lon="7.25205">
        <ele>549</ele>
        <time>2016-05-15T12:41:34.000Z</time>
      </trkpt>
      <trkpt lat="43.78364" lon="7.25202">
        <ele>549</ele>
        <time>2016-05-15T12:41:35.000Z</time>
      </trkpt>
      <trkpt lat="43.78362" lon="7.25199">
        <ele>549</ele>
        <time>2016-05-15T12:41:36.000Z</time>
      </trkpt>
      <trkpt lat="43.78358" lon="7.2519">
        <ele>548</ele>
        <time>2016-05-15T12:41:38.000Z</time>
      </trkpt>
      <trkpt lat="43.78358" lon="7.25187">
        <ele>548</ele>
        <time>2016-05-15T12:41:39.000Z</time>
      </trkpt>
      <trkpt lat="43.78359" lon="7.25181">
        <ele>548</ele>
        <time>2016-05-15T12:41:40.000Z</time>
      </trkpt>
      <trkpt lat="43.78363" lon="7.25176">
        <ele>548</ele>
        <time>2016-05-15T12:41:41.000Z</time>
      </trkpt>
      <trkpt lat="43.78367" lon="7.25171">
        <ele>549</ele>
        <time>2016-05-15T12:41:42.000Z</time>
      </trkpt>
      <trkpt lat="43.78372" lon="7.25162">
        <ele>547</ele>
        <time>2016-05-15T12:41:44.000Z</time>
      </trkpt>
      <trkpt lat="43.78374" lon="7.25158">
        <ele>547</ele>
        <time>2016-05-15T12:41:45.000Z</time>
      </trkpt>
      <trkpt lat="43.78377" lon="7.25156">
        <ele>548</ele>
        <time>2016-05-15T12:41:46.000Z</time>
      </trkpt>
      <trkpt lat="43.78377" lon="7.25151">
        <ele>548</ele>
        <time>2016-05-15T12:41:48.000Z</time>
      </trkpt>
      <trkpt lat="43.78374" lon="7.25152">
        <ele>547</ele>
        <time>2016-05-15T12:41:49.000Z</time>
      </trkpt>
      <trkpt lat="43.7837" lon="7.25154">
        <ele>547</ele>
        <time>2016-05-15T12:41:50.000Z</time>
      </trkpt>
      <trkpt lat="43.78362" lon="7.2516">
        <ele>546</ele>
        <time>2016-05-15T12:41:52.000Z</time>
      </trkpt>
      <trkpt lat="43.78345" lon="7.25172">
        <ele>545</ele>
        <time>2016-05-15T12:41:55.000Z</time>
      </trkpt>
      <trkpt lat="43.78338" lon="7.25176">
        <ele>545</ele>
        <time>2016-05-15T12:41:56.000Z</time>
      </trkpt>
      <trkpt lat="43.78317" lon="7.25191">
        <ele>542</ele>
        <time>2016-05-15T12:41:59.000Z</time>
      </trkpt>
      <trkpt lat="43.78299" lon="7.25203">
        <ele>541</ele>
        <time>2016-05-15T12:42:01.000Z</time>
      </trkpt>
      <trkpt lat="43.7829" lon="7.25209">
        <ele>541</ele>
        <time>2016-05-15T12:42:02.000Z</time>
      </trkpt>
      <trkpt lat="43.78273" lon="7.25221">
        <ele>541</ele>
        <time>2016-05-15T12:42:04.000Z</time>
      </trkpt>
      <trkpt lat="43.78266" lon="7.25226">
        <ele>541</ele>
        <time>2016-05-15T12:42:05.000Z</time>
      </trkpt>
      <trkpt lat="43.78259" lon="7.25232">
        <ele>541</ele>
        <time>2016-05-15T12:42:06.000Z</time>
      </trkpt>
      <trkpt lat="43.78251" lon="7.25237">
        <ele>541</ele>
        <time>2016-05-15T12:42:07.000Z</time>
      </trkpt>
      <trkpt lat="43.78243" lon="7.25242">
        <ele>540</ele>
        <time>2016-05-15T12:42:08.000Z</time>
      </trkpt>
      <trkpt lat="43.78229" lon="7.25251">
        <ele>538</ele>
        <time>2016-05-15T12:42:10.000Z</time>
      </trkpt>
      <trkpt lat="43.78223" lon="7.25255">
        <ele>538</ele>
        <time>2016-05-15T12:42:11.000Z</time>
      </trkpt>
      <trkpt lat="43.78217" lon="7.25259">
        <ele>537</ele>
        <time>2016-05-15T12:42:12.000Z</time>
      </trkpt>
      <trkpt lat="43.78207" lon="7.25269">
        <ele>536</ele>
        <time>2016-05-15T12:42:14.000Z</time>
      </trkpt>
      <trkpt lat="43.78204" lon="7.25276">
        <ele>536</ele>
        <time>2016-05-15T12:42:15.000Z</time>
      </trkpt>
      <trkpt lat="43.782" lon="7.25286">
        <ele>535</ele>
        <time>2016-05-15T12:42:17.000Z</time>
      </trkpt>
      <trkpt lat="43.78196" lon="7.25287">
        <ele>535</ele>
        <time>2016-05-15T12:42:18.000Z</time>
      </trkpt>
      <trkpt lat="43.78187" lon="7.25279">
        <ele>535</ele>
        <time>2016-05-15T12:42:21.000Z</time>
      </trkpt>
      <trkpt lat="43.78181" lon="7.25273">
        <ele>534</ele>
        <time>2016-05-15T12:42:24.000Z</time>
      </trkpt>
      <trkpt lat="43.78177" lon="7.25269">
        <ele>534</ele>
        <time>2016-05-15T12:42:26.000Z</time>
      </trkpt>
      <trkpt lat="43.78164" lon="7.25259">
        <ele>536</ele>
        <time>2016-05-15T12:42:33.000Z</time>
      </trkpt>
      <trkpt lat="43.78162" lon="7.25253">
        <ele>535</ele>
        <time>2016-05-15T12:42:36.000Z</time>
      </trkpt>
      <trkpt lat="43.7816" lon="7.25247">
        <ele>539</ele>
        <time>2016-05-15T12:42:39.000Z</time>
      </trkpt>
      <trkpt lat="43.7816" lon="7.25245">
        <ele>540</ele>
        <time>2016-05-15T12:42:40.000Z</time>
      </trkpt>
      <trkpt lat="43.7816" lon="7.2524">
        <ele>542</ele>
        <time>2016-05-15T12:42:43.000Z</time>
      </trkpt>
      <trkpt lat="43.7816" lon="7.25239">
        <ele>543</ele>
        <time>2016-05-15T12:42:46.000Z</time>
      </trkpt>
      <trkpt lat="43.7816" lon="7.25239">
        <ele>543</ele>
        <time>2016-05-15T12:42:47.000Z</time>
      </trkpt>
      <trkpt lat="43.78159" lon="7.25237">
        <ele>544</ele>
        <time>2016-05-15T12:42:52.000Z</time>
      </trkpt>
      <trkpt lat="43.78158" lon="7.25234">
        <ele>546</ele>
        <time>2016-05-15T12:42:58.000Z</time>
      </trkpt>
      <trkpt lat="43.78159" lon="7.25232">
        <ele>546</ele>
        <time>2016-05-15T12:43:04.000Z</time>
      </trkpt>
      <trkpt lat="43.78159" lon="7.25232">
        <ele>546</ele>
        <time>2016-05-15T12:43:10.000Z</time>
      </trkpt>
      <trkpt lat="43.78159" lon="7.25232">
        <ele>546</ele>
        <time>2016-05-15T12:43:16.000Z</time>
      </trkpt>
      <trkpt lat="43.78159" lon="7.2523">
        <ele>547</ele>
        <time>2016-05-15T12:43:31.000Z</time>
      </trkpt>
      <trkpt lat="43.7816" lon="7.2523">
        <ele>547</ele>
        <time>2016-05-15T12:43:40.000Z</time>
      </trkpt>
      <trkpt lat="43.7816" lon="7.25231">
        <ele>546</ele>
        <time>2016-05-15T12:43:46.000Z</time>
      </trkpt>
      <trkpt lat="43.78159" lon="7.25231">
        <ele>546</ele>
        <time>2016-05-15T12:43:57.000Z</time>
      </trkpt>
      <trkpt lat="43.78159" lon="7.25231">
        <ele>546</ele>
        <time>2016-05-15T12:44:07.000Z</time>
      </trkpt>
      <trkpt lat="43.78159" lon="7.25232">
        <ele>546</ele>
        <time>2016-05-15T12:44:19.000Z</time>
      </trkpt>
      <trkpt lat="43.78159" lon="7.25232">
        <ele>546</ele>
        <time>2016-05-15T12:44:20.000Z</time>
      </trkpt>
      <trkpt lat="43.78159" lon="7.2523">
        <ele>547</ele>
        <time>2016-05-15T12:44:34.000Z</time>
      </trkpt>
      <trkpt lat="43.78159" lon="7.2523">
        <ele>547</ele>
        <time>2016-05-15T12:44:47.000Z</time>
      </trkpt>
      <trkpt lat="43.78158" lon="7.2523">
        <ele>547</ele>
        <time>2016-05-15T12:44:55.000Z</time>
      </trkpt>
      <trkpt lat="43.78158" lon="7.25229">
        <ele>547</ele>
        <time>2016-05-15T12:45:04.000Z</time>
      </trkpt>
      <trkpt lat="43.78157" lon="7.25228">
        <ele>548</ele>
        <time>2016-05-15T12:45:22.000Z</time>
      </trkpt>
      <trkpt lat="43.78158" lon="7.25228">
        <ele>548</ele>
        <time>2016-05-15T12:45:37.000Z</time>
      </trkpt>
      <trkpt lat="43.7816" lon="7.25228">
        <ele>547</ele>
        <time>2016-05-15T12:45:53.000Z</time>
      </trkpt>
      <trkpt lat="43.78161" lon="7.25228">
        <ele>547</ele>
        <time>2016-05-15T12:46:04.000Z</time>
      </trkpt>
      <trkpt lat="43.78161" lon="7.25228">
        <ele>547</ele>
        <time>2016-05-15T12:46:12.000Z</time>
      </trkpt>
      <trkpt lat="43.78163" lon="7.25228">
        <ele>547</ele>
        <time>2016-05-15T12:46:26.000Z</time>
      </trkpt>
      <trkpt lat="43.78162" lon="7.25228">
        <ele>547</ele>
        <time>2016-05-15T12:46:43.000Z</time>
      </trkpt>
      <trkpt lat="43.78162" lon="7.25233">
        <ele>545</ele>
        <time>2016-05-15T12:46:50.000Z</time>
      </trkpt>
      <trkpt lat="43.78161" lon="7.25235">
        <ele>544</ele>
        <time>2016-05-15T12:46:55.000Z</time>
      </trkpt>
      <trkpt lat="43.78161" lon="7.25231">
        <ele>546</ele>
        <time>2016-05-15T12:46:59.000Z</time>
      </trkpt>
      <trkpt lat="43.78163" lon="7.25225">
        <ele>548</ele>
        <time>2016-05-15T12:47:01.000Z</time>
      </trkpt>
      <trkpt lat="43.78166" lon="7.25219">
        <ele>549</ele>
        <time>2016-05-15T12:47:03.000Z</time>
      </trkpt>
      <trkpt lat="43.78171" lon="7.2521">
        <ele>539</ele>
        <time>2016-05-15T12:47:05.000Z</time>
      </trkpt>
      <trkpt lat="43.78189" lon="7.25181">
        <ele>540</ele>
        <time>2016-05-15T12:47:09.000Z</time>
      </trkpt>
      <trkpt lat="43.78203" lon="7.25151">
        <ele>541</ele>
        <time>2016-05-15T12:47:12.000Z</time>
      </trkpt>
      <trkpt lat="43.78212" lon="7.25135">
        <ele>540</ele>
        <time>2016-05-15T12:47:14.000Z</time>
      </trkpt>
      <trkpt lat="43.78217" lon="7.2512">
        <ele>539</ele>
        <time>2016-05-15T12:47:16.000Z</time>
      </trkpt>
      <trkpt lat="43.78222" lon="7.25108">
        <ele>538</ele>
        <time>2016-05-15T12:47:18.000Z</time>
      </trkpt>
      <trkpt lat="43.78223" lon="7.25102">
        <ele>538</ele>
        <time>2016-05-15T12:47:19.000Z</time>
      </trkpt>
      <trkpt lat="43.78223" lon="7.25097">
        <ele>538</ele>
        <time>2016-05-15T12:47:20.000Z</time>
      </trkpt>
      <trkpt lat="43.78223" lon="7.25095">
        <ele>538</ele>
        <time>2016-05-15T12:47:21.000Z</time>
      </trkpt>
      <trkpt lat="43.78223" lon="7.25096">
        <ele>538</ele>
        <time>2016-05-15T12:47:23.000Z</time>
      </trkpt>
      <trkpt lat="43.78224" lon="7.25095">
        <ele>537</ele>
        <time>2016-05-15T12:47:25.000Z</time>
      </trkpt>
      <trkpt lat="43.78225" lon="7.25085">
        <ele>537</ele>
        <time>2016-05-15T12:47:34.000Z</time>
      </trkpt>
      <trkpt lat="43.78224" lon="7.25084">
        <ele>537</ele>
        <time>2016-05-15T12:47:35.000Z</time>
      </trkpt>
      <trkpt lat="43.78225" lon="7.25074">
        <ele>539</ele>
        <time>2016-05-15T12:47:43.000Z</time>
      </trkpt>
      <trkpt lat="43.78225" lon="7.25073">
        <ele>539</ele>
        <time>2016-05-15T12:47:44.000Z</time>
      </trkpt>
      <trkpt lat="43.78224" lon="7.25067">
        <ele>540</ele>
        <time>2016-05-15T12:47:50.000Z</time>
      </trkpt>
      <trkpt lat="43.78223" lon="7.25065">
        <ele>540</ele>
        <time>2016-05-15T12:47:52.000Z</time>
      </trkpt>
      <trkpt lat="43.78223" lon="7.25062">
        <ele>540</ele>
        <time>2016-05-15T12:47:54.000Z</time>
      </trkpt>
      <trkpt lat="43.78224" lon="7.25058">
        <ele>540</ele>
        <time>2016-05-15T12:47:58.000Z</time>
      </trkpt>
      <trkpt lat="43.78224" lon="7.25057">
        <ele>541</ele>
        <time>2016-05-15T12:47:59.000Z</time>
      </trkpt>
      <trkpt lat="43.78224" lon="7.25054">
        <ele>541</ele>
        <time>2016-05-15T12:48:02.000Z</time>
      </trkpt>
      <trkpt lat="43.78224" lon="7.25049">
        <ele>541</ele>
        <time>2016-05-15T12:48:06.000Z</time>
      </trkpt>
      <trkpt lat="43.78224" lon="7.25049">
        <ele>541</ele>
        <time>2016-05-15T12:48:08.000Z</time>
      </trkpt>
      <trkpt lat="43.78224" lon="7.25048">
        <ele>541</ele>
        <time>2016-05-15T12:48:12.000Z</time>
      </trkpt>
      <trkpt lat="43.78224" lon="7.2504">
        <ele>541</ele>
        <time>2016-05-15T12:48:18.000Z</time>
      </trkpt>
      <trkpt lat="43.78224" lon="7.25035">
        <ele>541</ele>
        <time>2016-05-15T12:48:22.000Z</time>
      </trkpt>
      <trkpt lat="43.78222" lon="7.25029">
        <ele>541</ele>
        <time>2016-05-15T12:48:26.000Z</time>
      </trkpt>
      <trkpt lat="43.78221" lon="7.25027">
        <ele>542</ele>
        <time>2016-05-15T12:48:28.000Z</time>
      </trkpt>
      <trkpt lat="43.78219" lon="7.25018">
        <ele>542</ele>
        <time>2016-05-15T12:48:34.000Z</time>
      </trkpt>
      <trkpt lat="43.78219" lon="7.25016">
        <ele>542</ele>
        <time>2016-05-15T12:48:36.000Z</time>
      </trkpt>
      <trkpt lat="43.78217" lon="7.25008">
        <ele>542</ele>
        <time>2016-05-15T12:48:42.000Z</time>
      </trkpt>
      <trkpt lat="43.78217" lon="7.25006">
        <ele>542</ele>
        <time>2016-05-15T12:48:43.000Z</time>
      </trkpt>
      <trkpt lat="43.78216" lon="7.25003">
        <ele>542</ele>
        <time>2016-05-15T12:48:46.000Z</time>
      </trkpt>
      <trkpt lat="43.78215" lon="7.24999">
        <ele>542</ele>
        <time>2016-05-15T12:48:49.000Z</time>
      </trkpt>
      <trkpt lat="43.78214" lon="7.24997">
        <ele>543</ele>
        <time>2016-05-15T12:48:51.000Z</time>
      </trkpt>
      <trkpt lat="43.78212" lon="7.24994">
        <ele>543</ele>
        <time>2016-05-15T12:48:54.000Z</time>
      </trkpt>
      <trkpt lat="43.7821" lon="7.24989">
        <ele>544</ele>
        <time>2016-05-15T12:48:59.000Z</time>
      </trkpt>
      <trkpt lat="43.7821" lon="7.24988">
        <ele>544</ele>
        <time>2016-05-15T12:49:00.000Z</time>
      </trkpt>
      <trkpt lat="43.7821" lon="7.24985">
        <ele>544</ele>
        <time>2016-05-15T12:49:02.000Z</time>
      </trkpt>
      <trkpt lat="43.78209" lon="7.24981">
        <ele>544</ele>
        <time>2016-05-15T12:49:05.000Z</time>
      </trkpt>
      <trkpt lat="43.78208" lon="7.24979">
        <ele>544</ele>
        <time>2016-05-15T12:49:07.000Z</time>
      </trkpt>
      <trkpt lat="43.78206" lon="7.24974">
        <ele>545</ele>
        <time>2016-05-15T12:49:12.000Z</time>
      </trkpt>
      <trkpt lat="43.78205" lon="7.2497">
        <ele>545</ele>
        <time>2016-05-15T12:49:15.000Z</time>
      </trkpt>
      <trkpt lat="43.78205" lon="7.24969">
        <ele>545</ele>
        <time>2016-05-15T12:49:16.000Z</time>
      </trkpt>
      <trkpt lat="43.78203" lon="7.24959">
        <ele>545</ele>
        <time>2016-05-15T12:49:24.000Z</time>
      </trkpt>
      <trkpt lat="43.78202" lon="7.24956">
        <ele>545</ele>
        <time>2016-05-15T12:49:26.000Z</time>
      </trkpt>
      <trkpt lat="43.782" lon="7.2495">
        <ele>545</ele>
        <time>2016-05-15T12:49:32.000Z</time>
      </trkpt>
      <trkpt lat="43.782" lon="7.24948">
        <ele>545</ele>
        <time>2016-05-15T12:49:34.000Z</time>
      </trkpt>
      <trkpt lat="43.78196" lon="7.24943">
        <ele>546</ele>
        <time>2016-05-15T12:49:39.000Z</time>
      </trkpt>
      <trkpt lat="43.78196" lon="7.24939">
        <ele>546</ele>
        <time>2016-05-15T12:49:42.000Z</time>
      </trkpt>
      <trkpt lat="43.78194" lon="7.24936">
        <ele>547</ele>
        <time>2016-05-15T12:49:46.000Z</time>
      </trkpt>
      <trkpt lat="43.78193" lon="7.24936">
        <ele>547</ele>
        <time>2016-05-15T12:49:47.000Z</time>
      </trkpt>
      <trkpt lat="43.78188" lon="7.24933">
        <ele>548</ele>
        <time>2016-05-15T12:49:54.000Z</time>
      </trkpt>
      <trkpt lat="43.78188" lon="7.24933">
        <ele>548</ele>
        <time>2016-05-15T12:49:55.000Z</time>
      </trkpt>
      <trkpt lat="43.78185" lon="7.2493">
        <ele>549</ele>
        <time>2016-05-15T12:50:00.000Z</time>
      </trkpt>
      <trkpt lat="43.78183" lon="7.24927">
        <ele>550</ele>
        <time>2016-05-15T12:50:03.000Z</time>
      </trkpt>
      <trkpt lat="43.78181" lon="7.24924">
        <ele>551</ele>
        <time>2016-05-15T12:50:06.000Z</time>
      </trkpt>
      <trkpt lat="43.78178" lon="7.24919">
        <ele>553</ele>
        <time>2016-05-15T12:50:11.000Z</time>
      </trkpt>
      <trkpt lat="43.78176" lon="7.24917">
        <ele>553</ele>
        <time>2016-05-15T12:50:13.000Z</time>
      </trkpt>
      <trkpt lat="43.78169" lon="7.24911">
        <ele>553</ele>
        <time>2016-05-15T12:50:21.000Z</time>
      </trkpt>
      <trkpt lat="43.78167" lon="7.24909">
        <ele>552</ele>
        <time>2016-05-15T12:50:24.000Z</time>
      </trkpt>
      <trkpt lat="43.78167" lon="7.24909">
        <ele>552</ele>
        <time>2016-05-15T12:50:28.000Z</time>
      </trkpt>
      <trkpt lat="43.78162" lon="7.24904">
        <ele>560</ele>
        <time>2016-05-15T12:50:33.000Z</time>
      </trkpt>
      <trkpt lat="43.78158" lon="7.24901">
        <ele>560</ele>
        <time>2016-05-15T12:50:37.000Z</time>
      </trkpt>
      <trkpt lat="43.78154" lon="7.24899">
        <ele>560</ele>
        <time>2016-05-15T12:50:40.000Z</time>
      </trkpt>
      <trkpt lat="43.78149" lon="7.24895">
        <ele>561</ele>
        <time>2016-05-15T12:50:44.000Z</time>
      </trkpt>
      <trkpt lat="43.78143" lon="7.24893">
        <ele>561</ele>
        <time>2016-05-15T12:50:49.000Z</time>
      </trkpt>
      <trkpt lat="43.7814" lon="7.24891">
        <ele>562</ele>
        <time>2016-05-15T12:50:51.000Z</time>
      </trkpt>
      <trkpt lat="43.78134" lon="7.24885">
        <ele>562</ele>
        <time>2016-05-15T12:50:57.000Z</time>
      </trkpt>
      <trkpt lat="43.78133" lon="7.24884">
        <ele>562</ele>
        <time>2016-05-15T12:50:58.000Z</time>
      </trkpt>
      <trkpt lat="43.78127" lon="7.24882">
        <ele>563</ele>
        <time>2016-05-15T12:51:03.000Z</time>
      </trkpt>
      <trkpt lat="43.78126" lon="7.24882">
        <ele>563</ele>
        <time>2016-05-15T12:51:05.000Z</time>
      </trkpt>
      <trkpt lat="43.78123" lon="7.24881">
        <ele>563</ele>
        <time>2016-05-15T12:51:09.000Z</time>
      </trkpt>
      <trkpt lat="43.78122" lon="7.2488">
        <ele>563</ele>
        <time>2016-05-15T12:51:11.000Z</time>
      </trkpt>
      <trkpt lat="43.78116" lon="7.24879">
        <ele>564</ele>
        <time>2016-05-15T12:51:18.000Z</time>
      </trkpt>
      <trkpt lat="43.78116" lon="7.24878">
        <ele>564</ele>
        <time>2016-05-15T12:51:19.000Z</time>
      </trkpt>
      <trkpt lat="43.7811" lon="7.24877">
        <ele>565</ele>
        <time>2016-05-15T12:51:26.000Z</time>
      </trkpt>
      <trkpt lat="43.78109" lon="7.24877">
        <ele>565</ele>
        <time>2016-05-15T12:51:27.000Z</time>
      </trkpt>
      <trkpt lat="43.78103" lon="7.24878">
        <ele>566</ele>
        <time>2016-05-15T12:51:35.000Z</time>
      </trkpt>
      <trkpt lat="43.78102" lon="7.24878">
        <ele>566</ele>
        <time>2016-05-15T12:51:36.000Z</time>
      </trkpt>
      <trkpt lat="43.78097" lon="7.24877">
        <ele>567</ele>
        <time>2016-05-15T12:51:43.000Z</time>
      </trkpt>
      <trkpt lat="43.78094" lon="7.24877">
        <ele>567</ele>
        <time>2016-05-15T12:51:49.000Z</time>
      </trkpt>
      <trkpt lat="43.78095" lon="7.24877">
        <ele>567</ele>
        <time>2016-05-15T12:51:50.000Z</time>
      </trkpt>
      <trkpt lat="43.78091" lon="7.24878">
        <ele>568</ele>
        <time>2016-05-15T12:51:56.000Z</time>
      </trkpt>
      <trkpt lat="43.78088" lon="7.2488">
        <ele>568</ele>
        <time>2016-05-15T12:52:01.000Z</time>
      </trkpt>
      <trkpt lat="43.78086" lon="7.24881">
        <ele>568</ele>
        <time>2016-05-15T12:52:04.000Z</time>
      </trkpt>
      <trkpt lat="43.78081" lon="7.24881">
        <ele>584</ele>
        <time>2016-05-15T12:52:11.000Z</time>
      </trkpt>
      <trkpt lat="43.7808" lon="7.24881">
        <ele>585</ele>
        <time>2016-05-15T12:52:12.000Z</time>
      </trkpt>
      <trkpt lat="43.78078" lon="7.2488">
        <ele>585</ele>
        <time>2016-05-15T12:52:17.000Z</time>
      </trkpt>
      <trkpt lat="43.78075" lon="7.2488">
        <ele>585</ele>
        <time>2016-05-15T12:52:20.000Z</time>
      </trkpt>
      <trkpt lat="43.78072" lon="7.24881">
        <ele>585</ele>
        <time>2016-05-15T12:52:25.000Z</time>
      </trkpt>
      <trkpt lat="43.78069" lon="7.24881">
        <ele>585</ele>
        <time>2016-05-15T12:52:29.000Z</time>
      </trkpt>
      <trkpt lat="43.78067" lon="7.24881">
        <ele>586</ele>
        <time>2016-05-15T12:52:32.000Z</time>
      </trkpt>
      <trkpt lat="43.78065" lon="7.24881">
        <ele>586</ele>
        <time>2016-05-15T12:52:37.000Z</time>
      </trkpt>
      <trkpt lat="43.78064" lon="7.24881">
        <ele>586</ele>
        <time>2016-05-15T12:52:39.000Z</time>
      </trkpt>
      <trkpt lat="43.7806" lon="7.24881">
        <ele>586</ele>
        <time>2016-05-15T12:52:44.000Z</time>
      </trkpt>
      <trkpt lat="43.78058" lon="7.2488">
        <ele>586</ele>
        <time>2016-05-15T12:52:46.000Z</time>
      </trkpt>
      <trkpt lat="43.78054" lon="7.24877">
        <ele>587</ele>
        <time>2016-05-15T12:52:51.000Z</time>
      </trkpt>
      <trkpt lat="43.7805" lon="7.24877">
        <ele>587</ele>
        <time>2016-05-15T12:52:58.000Z</time>
      </trkpt>
      <trkpt lat="43.78049" lon="7.24877">
        <ele>587</ele>
        <time>2016-05-15T12:52:59.000Z</time>
      </trkpt>
      <trkpt lat="43.78044" lon="7.24877">
        <ele>588</ele>
        <time>2016-05-15T12:53:06.000Z</time>
      </trkpt>
      <trkpt lat="43.78043" lon="7.24877">
        <ele>588</ele>
        <time>2016-05-15T12:53:08.000Z</time>
      </trkpt>
      <trkpt lat="43.78041" lon="7.24875">
        <ele>588</ele>
        <time>2016-05-15T12:53:12.000Z</time>
      </trkpt>
      <trkpt lat="43.78038" lon="7.24876">
        <ele>589</ele>
        <time>2016-05-15T12:53:17.000Z</time>
      </trkpt>
      <trkpt lat="43.78035" lon="7.24877">
        <ele>589</ele>
        <time>2016-05-15T12:53:22.000Z</time>
      </trkpt>
      <trkpt lat="43.78033" lon="7.24877">
        <ele>590</ele>
        <time>2016-05-15T12:53:25.000Z</time>
      </trkpt>
      <trkpt lat="43.7803" lon="7.24876">
        <ele>590</ele>
        <time>2016-05-15T12:53:30.000Z</time>
      </trkpt>
      <trkpt lat="43.78027" lon="7.24877">
        <ele>591</ele>
        <time>2016-05-15T12:53:35.000Z</time>
      </trkpt>
      <trkpt lat="43.78025" lon="7.24877">
        <ele>591</ele>
        <time>2016-05-15T12:53:37.000Z</time>
      </trkpt>
      <trkpt lat="43.78023" lon="7.24878">
        <ele>591</ele>
        <time>2016-05-15T12:53:41.000Z</time>
      </trkpt>
      <trkpt lat="43.78021" lon="7.24878">
        <ele>591</ele>
        <time>2016-05-15T12:53:43.000Z</time>
      </trkpt>
      <trkpt lat="43.78018" lon="7.24877">
        <ele>592</ele>
        <time>2016-05-15T12:53:47.000Z</time>
      </trkpt>
      <trkpt lat="43.78014" lon="7.24875">
        <ele>592</ele>
        <time>2016-05-15T12:53:51.000Z</time>
      </trkpt>
      <trkpt lat="43.78013" lon="7.24875">
        <ele>592</ele>
        <time>2016-05-15T12:53:52.000Z</time>
      </trkpt>
      <trkpt lat="43.78004" lon="7.24871">
        <ele>592</ele>
        <time>2016-05-15T12:54:00.000Z</time>
      </trkpt>
      <trkpt lat="43.77994" lon="7.2487">
        <ele>607</ele>
        <time>2016-05-15T12:54:07.000Z</time>
      </trkpt>
      <trkpt lat="43.7799" lon="7.24862">
        <ele>605</ele>
        <time>2016-05-15T12:54:14.000Z</time>
      </trkpt>
      <trkpt lat="43.77987" lon="7.24851">
        <ele>603</ele>
        <time>2016-05-15T12:54:22.000Z</time>
      </trkpt>
      <trkpt lat="43.77986" lon="7.24843">
        <ele>602</ele>
        <time>2016-05-15T12:54:27.000Z</time>
      </trkpt>
      <trkpt lat="43.77985" lon="7.24841">
        <ele>601</ele>
        <time>2016-05-15T12:54:29.000Z</time>
      </trkpt>
      <trkpt lat="43.77981" lon="7.2483">
        <ele>597</ele>
        <time>2016-05-15T12:54:37.000Z</time>
      </trkpt>
      <trkpt lat="43.7798" lon="7.24829">
        <ele>597</ele>
        <time>2016-05-15T12:54:39.000Z</time>
      </trkpt>
      <trkpt lat="43.77978" lon="7.24824">
        <ele>598</ele>
        <time>2016-05-15T12:54:45.000Z</time>
      </trkpt>
      <trkpt lat="43.77978" lon="7.24823">
        <ele>598</ele>
        <time>2016-05-15T12:54:47.000Z</time>
      </trkpt>
      <trkpt lat="43.77977" lon="7.24821">
        <ele>598</ele>
        <time>2016-05-15T12:54:49.000Z</time>
      </trkpt>
      <trkpt lat="43.77977" lon="7.24818">
        <ele>598</ele>
        <time>2016-05-15T12:54:55.000Z</time>
      </trkpt>
      <trkpt lat="43.77976" lon="7.24816">
        <ele>598</ele>
        <time>2016-05-15T12:54:58.000Z</time>
      </trkpt>
      <trkpt lat="43.77974" lon="7.24812">
        <ele>599</ele>
        <time>2016-05-15T12:55:03.000Z</time>
      </trkpt>
      <trkpt lat="43.77973" lon="7.24808">
        <ele>599</ele>
        <time>2016-05-15T12:55:07.000Z</time>
      </trkpt>
      <trkpt lat="43.77972" lon="7.24806">
        <ele>599</ele>
        <time>2016-05-15T12:55:10.000Z</time>
      </trkpt>
      <trkpt lat="43.77971" lon="7.24803">
        <ele>599</ele>
        <time>2016-05-15T12:55:14.000Z</time>
      </trkpt>
      <trkpt lat="43.77971" lon="7.24801">
        <ele>599</ele>
        <time>2016-05-15T12:55:17.000Z</time>
      </trkpt>
      <trkpt lat="43.77969" lon="7.24796">
        <ele>599</ele>
        <time>2016-05-15T12:55:22.000Z</time>
      </trkpt>
      <trkpt lat="43.77968" lon="7.24795">
        <ele>599</ele>
        <time>2016-05-15T12:55:26.000Z</time>
      </trkpt>
      <trkpt lat="43.77966" lon="7.24795">
        <ele>600</ele>
        <time>2016-05-15T12:55:32.000Z</time>
      </trkpt>
      <trkpt lat="43.77967" lon="7.24798">
        <ele>600</ele>
        <time>2016-05-15T12:55:42.000Z</time>
      </trkpt>
      <trkpt lat="43.77965" lon="7.24803">
        <ele>600</ele>
        <time>2016-05-15T12:55:49.000Z</time>
      </trkpt>
      <trkpt lat="43.77964" lon="7.24804">
        <ele>600</ele>
        <time>2016-05-15T12:55:50.000Z</time>
      </trkpt>
      <trkpt lat="43.77961" lon="7.24806">
        <ele>601</ele>
        <time>2016-05-15T12:55:57.000Z</time>
      </trkpt>
      <trkpt lat="43.77961" lon="7.24807">
        <ele>601</ele>
        <time>2016-05-15T12:55:58.000Z</time>
      </trkpt>
      <trkpt lat="43.77959" lon="7.2481">
        <ele>601</ele>
        <time>2016-05-15T12:56:02.000Z</time>
      </trkpt>
      <trkpt lat="43.77959" lon="7.2481">
        <ele>601</ele>
        <time>2016-05-15T12:56:03.000Z</time>
      </trkpt>
      <trkpt lat="43.77956" lon="7.24814">
        <ele>602</ele>
        <time>2016-05-15T12:56:08.000Z</time>
      </trkpt>
      <trkpt lat="43.77955" lon="7.24816">
        <ele>602</ele>
        <time>2016-05-15T12:56:10.000Z</time>
      </trkpt>
      <trkpt lat="43.77954" lon="7.24817">
        <ele>602</ele>
        <time>2016-05-15T12:56:12.000Z</time>
      </trkpt>
      <trkpt lat="43.77952" lon="7.24821">
        <ele>603</ele>
        <time>2016-05-15T12:56:17.000Z</time>
      </trkpt>
      <trkpt lat="43.7795" lon="7.24822">
        <ele>604</ele>
        <time>2016-05-15T12:56:21.000Z</time>
      </trkpt>
      <trkpt lat="43.77948" lon="7.2482">
        <ele>604</ele>
        <time>2016-05-15T12:56:25.000Z</time>
      </trkpt>
      <trkpt lat="43.77947" lon="7.2482">
        <ele>604</ele>
        <time>2016-05-15T12:56:28.000Z</time>
      </trkpt>
      <trkpt lat="43.77944" lon="7.2482">
        <ele>605</ele>
        <time>2016-05-15T12:56:32.000Z</time>
      </trkpt>
      <trkpt lat="43.77942" lon="7.24819">
        <ele>605</ele>
        <time>2016-05-15T12:56:36.000Z</time>
      </trkpt>
      <trkpt lat="43.77939" lon="7.24819">
        <ele>606</ele>
        <time>2016-05-15T12:56:41.000Z</time>
      </trkpt>
      <trkpt lat="43.77938" lon="7.24819">
        <ele>606</ele>
        <time>2016-05-15T12:56:43.000Z</time>
      </trkpt>
      <trkpt lat="43.77936" lon="7.24816">
        <ele>606</ele>
        <time>2016-05-15T12:56:47.000Z</time>
      </trkpt>
      <trkpt lat="43.77935" lon="7.24815">
        <ele>606</ele>
        <time>2016-05-15T12:56:49.000Z</time>
      </trkpt>
      <trkpt lat="43.77933" lon="7.24811">
        <ele>606</ele>
        <time>2016-05-15T12:56:55.000Z</time>
      </trkpt>
      <trkpt lat="43.77932" lon="7.24811">
        <ele>606</ele>
        <time>2016-05-15T12:56:58.000Z</time>
      </trkpt>
      <trkpt lat="43.77929" lon="7.24812">
        <ele>607</ele>
        <time>2016-05-15T12:57:05.000Z</time>
      </trkpt>
      <trkpt lat="43.77927" lon="7.24814">
        <ele>608</ele>
        <time>2016-05-15T12:57:08.000Z</time>
      </trkpt>
      <trkpt lat="43.77925" lon="7.24813">
        <ele>608</ele>
        <time>2016-05-15T12:57:12.000Z</time>
      </trkpt>
      <trkpt lat="43.77923" lon="7.24812">
        <ele>608</ele>
        <time>2016-05-15T12:57:16.000Z</time>
      </trkpt>
      <trkpt lat="43.77922" lon="7.24812">
        <ele>608</ele>
        <time>2016-05-15T12:57:17.000Z</time>
      </trkpt>
      <trkpt lat="43.77918" lon="7.24812">
        <ele>608</ele>
        <time>2016-05-15T12:57:24.000Z</time>
      </trkpt>
      <trkpt lat="43.77917" lon="7.24811">
        <ele>608</ele>
        <time>2016-05-15T12:57:26.000Z</time>
      </trkpt>
      <trkpt lat="43.77913" lon="7.24809">
        <ele>617</ele>
        <time>2016-05-15T12:57:31.000Z</time>
      </trkpt>
      <trkpt lat="43.77913" lon="7.24809">
        <ele>617</ele>
        <time>2016-05-15T12:57:32.000Z</time>
      </trkpt>
      <trkpt lat="43.7791" lon="7.24809">
        <ele>618</ele>
        <time>2016-05-15T12:57:36.000Z</time>
      </trkpt>
      <trkpt lat="43.77905" lon="7.24812">
        <ele>618</ele>
        <time>2016-05-15T12:57:42.000Z</time>
      </trkpt>
      <trkpt lat="43.77905" lon="7.24812">
        <ele>618</ele>
        <time>2016-05-15T12:57:43.000Z</time>
      </trkpt>
      <trkpt lat="43.77903" lon="7.24816">
        <ele>618</ele>
        <time>2016-05-15T12:57:50.000Z</time>
      </trkpt>
      <trkpt lat="43.77902" lon="7.24816">
        <ele>618</ele>
        <time>2016-05-15T12:57:51.000Z</time>
      </trkpt>
      <trkpt lat="43.77898" lon="7.2482">
        <ele>618</ele>
        <time>2016-05-15T12:57:59.000Z</time>
      </trkpt>
      <trkpt lat="43.77895" lon="7.24822">
        <ele>619</ele>
        <time>2016-05-15T12:58:05.000Z</time>
      </trkpt>
      <trkpt lat="43.77894" lon="7.24823">
        <ele>619</ele>
        <time>2016-05-15T12:58:08.000Z</time>
      </trkpt>
      <trkpt lat="43.77892" lon="7.24825">
        <ele>619</ele>
        <time>2016-05-15T12:58:12.000Z</time>
      </trkpt>
      <trkpt lat="43.77889" lon="7.24827">
        <ele>619</ele>
        <time>2016-05-15T12:58:17.000Z</time>
      </trkpt>
      <trkpt lat="43.77886" lon="7.24829">
        <ele>620</ele>
        <time>2016-05-15T12:58:24.000Z</time>
      </trkpt>
      <trkpt lat="43.77885" lon="7.24832">
        <ele>620</ele>
        <time>2016-05-15T12:58:27.000Z</time>
      </trkpt>
      <trkpt lat="43.77883" lon="7.24833">
        <ele>620</ele>
        <time>2016-05-15T12:58:30.000Z</time>
      </trkpt>
      <trkpt lat="43.77881" lon="7.24835">
        <ele>629</ele>
        <time>2016-05-15T12:58:35.000Z</time>
      </trkpt>
      <trkpt lat="43.77879" lon="7.24837">
        <ele>629</ele>
        <time>2016-05-15T12:58:39.000Z</time>
      </trkpt>
      <trkpt lat="43.77876" lon="7.24838">
        <ele>630</ele>
        <time>2016-05-15T12:58:44.000Z</time>
      </trkpt>
      <trkpt lat="43.77874" lon="7.24839">
        <ele>630</ele>
        <time>2016-05-15T12:58:48.000Z</time>
      </trkpt>
      <trkpt lat="43.77871" lon="7.2484">
        <ele>630</ele>
        <time>2016-05-15T12:58:53.000Z</time>
      </trkpt>
      <trkpt lat="43.77868" lon="7.24842">
        <ele>631</ele>
        <time>2016-05-15T12:58:57.000Z</time>
      </trkpt>
      <trkpt lat="43.77866" lon="7.24844">
        <ele>631</ele>
        <time>2016-05-15T12:59:01.000Z</time>
      </trkpt>
      <trkpt lat="43.77866" lon="7.24844">
        <ele>631</ele>
        <time>2016-05-15T12:59:02.000Z</time>
      </trkpt>
      <trkpt lat="43.77862" lon="7.24847">
        <ele>632</ele>
        <time>2016-05-15T12:59:08.000Z</time>
      </trkpt>
      <trkpt lat="43.7786" lon="7.24848">
        <ele>632</ele>
        <time>2016-05-15T12:59:11.000Z</time>
      </trkpt>
      <trkpt lat="43.77858" lon="7.2485">
        <ele>632</ele>
        <time>2016-05-15T12:59:16.000Z</time>
      </trkpt>
      <trkpt lat="43.77857" lon="7.24852">
        <ele>633</ele>
        <time>2016-05-15T12:59:19.000Z</time>
      </trkpt>
      <trkpt lat="43.77856" lon="7.24853">
        <ele>633</ele>
        <time>2016-05-15T12:59:21.000Z</time>
      </trkpt>
      <trkpt lat="43.77855" lon="7.24857">
        <ele>633</ele>
        <time>2016-05-15T12:59:27.000Z</time>
      </trkpt>
      <trkpt lat="43.77852" lon="7.24859">
        <ele>633</ele>
        <time>2016-05-15T12:59:31.000Z</time>
      </trkpt>
      <trkpt lat="43.7785" lon="7.2486">
        <ele>633</ele>
        <time>2016-05-15T12:59:34.000Z</time>
      </trkpt>
      <trkpt lat="43.77848" lon="7.24862">
        <ele>634</ele>
        <time>2016-05-15T12:59:38.000Z</time>
      </trkpt>
      <trkpt lat="43.77846" lon="7.24863">
        <ele>634</ele>
        <time>2016-05-15T12:59:42.000Z</time>
      </trkpt>
      <trkpt lat="43.77844" lon="7.24864">
        <ele>634</ele>
        <time>2016-05-15T12:59:45.000Z</time>
      </trkpt>
      <trkpt lat="43.7784" lon="7.24865">
        <ele>634</ele>
        <time>2016-05-15T12:59:50.000Z</time>
      </trkpt>
      <trkpt lat="43.77839" lon="7.24865">
        <ele>634</ele>
        <time>2016-05-15T12:59:52.000Z</time>
      </trkpt>
      <trkpt lat="43.77836" lon="7.24867">
        <ele>635</ele>
        <time>2016-05-15T12:59:58.000Z</time>
      </trkpt>
      <trkpt lat="43.77835" lon="7.24867">
        <ele>635</ele>
        <time>2016-05-15T12:59:59.000Z</time>
      </trkpt>
      <trkpt lat="43.7783" lon="7.2487">
        <ele>643</ele>
        <time>2016-05-15T13:00:07.000Z</time>
      </trkpt>
      <trkpt lat="43.77826" lon="7.24872">
        <ele>644</ele>
        <time>2016-05-15T13:00:14.000Z</time>
      </trkpt>
      <trkpt lat="43.77825" lon="7.24872">
        <ele>644</ele>
        <time>2016-05-15T13:00:15.000Z</time>
      </trkpt>
      <trkpt lat="43.77822" lon="7.24875">
        <ele>644</ele>
        <time>2016-05-15T13:00:21.000Z</time>
      </trkpt>
      <trkpt lat="43.77821" lon="7.24876">
        <ele>644</ele>
        <time>2016-05-15T13:00:23.000Z</time>
      </trkpt>
      <trkpt lat="43.77819" lon="7.24878">
        <ele>644</ele>
        <time>2016-05-15T13:00:28.000Z</time>
      </trkpt>
      <trkpt lat="43.77818" lon="7.2488">
        <ele>645</ele>
        <time>2016-05-15T13:00:32.000Z</time>
      </trkpt>
      <trkpt lat="43.77815" lon="7.24879">
        <ele>645</ele>
        <time>2016-05-15T13:00:36.000Z</time>
      </trkpt>
      <trkpt lat="43.77814" lon="7.24878">
        <ele>645</ele>
        <time>2016-05-15T13:00:38.000Z</time>
      </trkpt>
      <trkpt lat="43.77812" lon="7.24878">
        <ele>645</ele>
        <time>2016-05-15T13:00:43.000Z</time>
      </trkpt>
      <trkpt lat="43.77809" lon="7.24878">
        <ele>645</ele>
        <time>2016-05-15T13:00:46.000Z</time>
      </trkpt>
      <trkpt lat="43.77808" lon="7.24878">
        <ele>645</ele>
        <time>2016-05-15T13:00:47.000Z</time>
      </trkpt>
      <trkpt lat="43.77805" lon="7.24878">
        <ele>645</ele>
        <time>2016-05-15T13:00:53.000Z</time>
      </trkpt>
      <trkpt lat="43.77803" lon="7.24877">
        <ele>645</ele>
        <time>2016-05-15T13:00:56.000Z</time>
      </trkpt>
      <trkpt lat="43.77798" lon="7.24878">
        <ele>645</ele>
        <time>2016-05-15T13:01:02.000Z</time>
      </trkpt>
      <trkpt lat="43.77795" lon="7.24879">
        <ele>645</ele>
        <time>2016-05-15T13:01:05.000Z</time>
      </trkpt>
      <trkpt lat="43.77793" lon="7.24879">
        <ele>645</ele>
        <time>2016-05-15T13:01:07.000Z</time>
      </trkpt>
      <trkpt lat="43.77791" lon="7.24881">
        <ele>646</ele>
        <time>2016-05-15T13:01:10.000Z</time>
      </trkpt>
      <trkpt lat="43.7779" lon="7.24882">
        <ele>646</ele>
        <time>2016-05-15T13:01:11.000Z</time>
      </trkpt>
      <trkpt lat="43.77789" lon="7.24883">
        <ele>646</ele>
        <time>2016-05-15T13:01:13.000Z</time>
      </trkpt>
      <trkpt lat="43.77787" lon="7.24884">
        <ele>646</ele>
        <time>2016-05-15T13:01:16.000Z</time>
      </trkpt>
      <trkpt lat="43.77785" lon="7.24885">
        <ele>646</ele>
        <time>2016-05-15T13:01:18.000Z</time>
      </trkpt>
      <trkpt lat="43.77777" lon="7.24893">
        <ele>648</ele>
        <time>2016-05-15T13:01:24.000Z</time>
      </trkpt>
      <trkpt lat="43.7777" lon="7.249">
        <ele>650</ele>
        <time>2016-05-15T13:01:29.000Z</time>
      </trkpt>
      <trkpt lat="43.77768" lon="7.24901">
        <ele>651</ele>
        <time>2016-05-15T13:01:30.000Z</time>
      </trkpt>
      <trkpt lat="43.77766" lon="7.24901">
        <ele>651</ele>
        <time>2016-05-15T13:01:31.000Z</time>
      </trkpt>
      <trkpt lat="43.77752" lon="7.24905">
        <ele>654</ele>
        <time>2016-05-15T13:01:39.000Z</time>
      </trkpt>
      <trkpt lat="43.77745" lon="7.24907">
        <ele>656</ele>
        <time>2016-05-15T13:01:42.000Z</time>
      </trkpt>
      <trkpt lat="43.77733" lon="7.24911">
        <ele>654</ele>
        <time>2016-05-15T13:01:46.000Z</time>
      </trkpt>
      <trkpt lat="43.77706" lon="7.24923">
        <ele>667</ele>
        <time>2016-05-15T13:01:55.000Z</time>
      </trkpt>
      <trkpt lat="43.77686" lon="7.24921">
        <ele>665</ele>
        <time>2016-05-15T13:02:01.000Z</time>
      </trkpt>
      <trkpt lat="43.77666" lon="7.24909">
        <ele>656</ele>
        <time>2016-05-15T13:02:09.000Z</time>
      </trkpt>
      <trkpt lat="43.77657" lon="7.24908">
        <ele>655</ele>
        <time>2016-05-15T13:02:14.000Z</time>
      </trkpt>
      <trkpt lat="43.77654" lon="7.24909">
        <ele>654</ele>
        <time>2016-05-15T13:02:16.000Z</time>
      </trkpt>
      <trkpt lat="43.77652" lon="7.24911">
        <ele>654</ele>
        <time>2016-05-15T13:02:18.000Z</time>
      </trkpt>
      <trkpt lat="43.77643" lon="7.2491">
        <ele>653</ele>
        <time>2016-05-15T13:02:24.000Z</time>
      </trkpt>
      <trkpt lat="43.77635" lon="7.24909">
        <ele>653</ele>
        <time>2016-05-15T13:02:30.000Z</time>
      </trkpt>
      <trkpt lat="43.77634" lon="7.24909">
        <ele>653</ele>
        <time>2016-05-15T13:02:31.000Z</time>
      </trkpt>
      <trkpt lat="43.77626" lon="7.24911">
        <ele>653</ele>
        <time>2016-05-15T13:02:37.000Z</time>
      </trkpt>
      <trkpt lat="43.77624" lon="7.24911">
        <ele>653</ele>
        <time>2016-05-15T13:02:38.000Z</time>
      </trkpt>
      <trkpt lat="43.77618" lon="7.24911">
        <ele>653</ele>
        <time>2016-05-15T13:02:42.000Z</time>
      </trkpt>
      <trkpt lat="43.7761" lon="7.24911">
        <ele>654</ele>
        <time>2016-05-15T13:02:47.000Z</time>
      </trkpt>
      <trkpt lat="43.77595" lon="7.24914">
        <ele>657</ele>
        <time>2016-05-15T13:02:55.000Z</time>
      </trkpt>
      <trkpt lat="43.77575" lon="7.2492">
        <ele>664</ele>
        <time>2016-05-15T13:03:02.000Z</time>
      </trkpt>
      <trkpt lat="43.77569" lon="7.24921">
        <ele>665</ele>
        <time>2016-05-15T13:03:06.000Z</time>
      </trkpt>
      <trkpt lat="43.77568" lon="7.24921">
        <ele>665</ele>
        <time>2016-05-15T13:03:07.000Z</time>
      </trkpt>
      <trkpt lat="43.77569" lon="7.24921">
        <ele>665</ele>
        <time>2016-05-15T13:03:13.000Z</time>
      </trkpt>
      <trkpt lat="43.77566" lon="7.24924">
        <ele>666</ele>
        <time>2016-05-15T13:03:19.000Z</time>
      </trkpt>
      <trkpt lat="43.77564" lon="7.24924">
        <ele>666</ele>
        <time>2016-05-15T13:03:22.000Z</time>
      </trkpt>
      <trkpt lat="43.77562" lon="7.24925">
        <ele>666</ele>
        <time>2016-05-15T13:03:23.000Z</time>
      </trkpt>
      <trkpt lat="43.77551" lon="7.24928">
        <ele>667</ele>
        <time>2016-05-15T13:03:28.000Z</time>
      </trkpt>
      <trkpt lat="43.77539" lon="7.24931">
        <ele>667</ele>
        <time>2016-05-15T13:03:33.000Z</time>
      </trkpt>
      <trkpt lat="43.77537" lon="7.24931">
        <ele>667</ele>
        <time>2016-05-15T13:03:34.000Z</time>
      </trkpt>
      <trkpt lat="43.77529" lon="7.24933">
        <ele>667</ele>
        <time>2016-05-15T13:03:37.000Z</time>
      </trkpt>
      <trkpt lat="43.77524" lon="7.24934">
        <ele>666</ele>
        <time>2016-05-15T13:03:39.000Z</time>
      </trkpt>
      <trkpt lat="43.77507" lon="7.24938">
        <ele>665</ele>
        <time>2016-05-15T13:03:45.000Z</time>
      </trkpt>
      <trkpt lat="43.77487" lon="7.24941">
        <ele>665</ele>
        <time>2016-05-15T13:03:52.000Z</time>
      </trkpt>
      <trkpt lat="43.77469" lon="7.24945">
        <ele>667</ele>
        <time>2016-05-15T13:03:59.000Z</time>
      </trkpt>
      <trkpt lat="43.77462" lon="7.24946">
        <ele>667</ele>
        <time>2016-05-15T13:04:02.000Z</time>
      </trkpt>
      <trkpt lat="43.77455" lon="7.24945">
        <ele>667</ele>
        <time>2016-05-15T13:04:05.000Z</time>
      </trkpt>
      <trkpt lat="43.77449" lon="7.24942">
        <ele>666</ele>
        <time>2016-05-15T13:04:08.000Z</time>
      </trkpt>
      <trkpt lat="43.7744" lon="7.24942">
        <ele>666</ele>
        <time>2016-05-15T13:04:12.000Z</time>
      </trkpt>
      <trkpt lat="43.77427" lon="7.24945">
        <ele>666</ele>
        <time>2016-05-15T13:04:18.000Z</time>
      </trkpt>
      <trkpt lat="43.77425" lon="7.24945">
        <ele>666</ele>
        <time>2016-05-15T13:04:19.000Z</time>
      </trkpt>
      <trkpt lat="43.77417" lon="7.24948">
        <ele>667</ele>
        <time>2016-05-15T13:04:23.000Z</time>
      </trkpt>
      <trkpt lat="43.77412" lon="7.24949">
        <ele>668</ele>
        <time>2016-05-15T13:04:27.000Z</time>
      </trkpt>
      <trkpt lat="43.77408" lon="7.2495">
        <ele>668</ele>
        <time>2016-05-15T13:04:32.000Z</time>
      </trkpt>
      <trkpt lat="43.77404" lon="7.2495">
        <ele>668</ele>
        <time>2016-05-15T13:04:37.000Z</time>
      </trkpt>
      <trkpt lat="43.77403" lon="7.24949">
        <ele>668</ele>
        <time>2016-05-15T13:04:38.000Z</time>
      </trkpt>
      <trkpt lat="43.77402" lon="7.24949">
        <ele>668</ele>
        <time>2016-05-15T13:04:39.000Z</time>
      </trkpt>
      <trkpt lat="43.77394" lon="7.2495">
        <ele>669</ele>
        <time>2016-05-15T13:04:43.000Z</time>
      </trkpt>
      <trkpt lat="43.77392" lon="7.2495">
        <ele>669</ele>
        <time>2016-05-15T13:04:44.000Z</time>
      </trkpt>
      <trkpt lat="43.77381" lon="7.24949">
        <ele>669</ele>
        <time>2016-05-15T13:04:50.000Z</time>
      </trkpt>
      <trkpt lat="43.77381" lon="7.2495">
        <ele>669</ele>
        <time>2016-05-15T13:04:51.000Z</time>
      </trkpt>
      <trkpt lat="43.7738" lon="7.2495">
        <ele>669</ele>
        <time>2016-05-15T13:04:54.000Z</time>
      </trkpt>
      <trkpt lat="43.77377" lon="7.24951">
        <ele>670</ele>
        <time>2016-05-15T13:05:02.000Z</time>
      </trkpt>
      <trkpt lat="43.77371" lon="7.24953">
        <ele>670</ele>
        <time>2016-05-15T13:05:10.000Z</time>
      </trkpt>
      <trkpt lat="43.77367" lon="7.24954">
        <ele>670</ele>
        <time>2016-05-15T13:05:15.000Z</time>
      </trkpt>
      <trkpt lat="43.77363" lon="7.24956">
        <ele>671</ele>
        <time>2016-05-15T13:05:20.000Z</time>
      </trkpt>
      <trkpt lat="43.7736" lon="7.24957">
        <ele>671</ele>
        <time>2016-05-15T13:05:25.000Z</time>
      </trkpt>
      <trkpt lat="43.77358" lon="7.24958">
        <ele>671</ele>
        <time>2016-05-15T13:05:28.000Z</time>
      </trkpt>
      <trkpt lat="43.77354" lon="7.24959">
        <ele>671</ele>
        <time>2016-05-15T13:05:32.000Z</time>
      </trkpt>
      <trkpt lat="43.77351" lon="7.2496">
        <ele>671</ele>
        <time>2016-05-15T13:05:36.000Z</time>
      </trkpt>
      <trkpt lat="43.77345" lon="7.24961">
        <ele>672</ele>
        <time>2016-05-15T13:05:43.000Z</time>
      </trkpt>
      <trkpt lat="43.77344" lon="7.24962">
        <ele>672</ele>
        <time>2016-05-15T13:05:45.000Z</time>
      </trkpt>
      <trkpt lat="43.7734" lon="7.24964">
        <ele>672</ele>
        <time>2016-05-15T13:05:50.000Z</time>
      </trkpt>
      <trkpt lat="43.77338" lon="7.24964">
        <ele>673</ele>
        <time>2016-05-15T13:05:52.000Z</time>
      </trkpt>
      <trkpt lat="43.77335" lon="7.24963">
        <ele>672</ele>
        <time>2016-05-15T13:05:55.000Z</time>
      </trkpt>
      <trkpt lat="43.77334" lon="7.24963">
        <ele>672</ele>
        <time>2016-05-15T13:05:56.000Z</time>
      </trkpt>
      <trkpt lat="43.77329" lon="7.24964">
        <ele>673</ele>
        <time>2016-05-15T13:06:01.000Z</time>
      </trkpt>
      <trkpt lat="43.77327" lon="7.24965">
        <ele>673</ele>
        <time>2016-05-15T13:06:04.000Z</time>
      </trkpt>
      <trkpt lat="43.77318" lon="7.24967">
        <ele>674</ele>
        <time>2016-05-15T13:06:14.000Z</time>
      </trkpt>
      <trkpt lat="43.77317" lon="7.24967">
        <ele>673</ele>
        <time>2016-05-15T13:06:15.000Z</time>
      </trkpt>
      <trkpt lat="43.7731" lon="7.24969">
        <ele>674</ele>
        <time>2016-05-15T13:06:22.000Z</time>
      </trkpt>
      <trkpt lat="43.77309" lon="7.24969">
        <ele>674</ele>
        <time>2016-05-15T13:06:23.000Z</time>
      </trkpt>
      <trkpt lat="43.77301" lon="7.24972">
        <ele>674</ele>
        <time>2016-05-15T13:06:31.000Z</time>
      </trkpt>
      <trkpt lat="43.77297" lon="7.24973">
        <ele>674</ele>
        <time>2016-05-15T13:06:35.000Z</time>
      </trkpt>
      <trkpt lat="43.77293" lon="7.24973">
        <ele>674</ele>
        <time>2016-05-15T13:06:38.000Z</time>
      </trkpt>
      <trkpt lat="43.77288" lon="7.24974">
        <ele>674</ele>
        <time>2016-05-15T13:06:44.000Z</time>
      </trkpt>
      <trkpt lat="43.77286" lon="7.24974">
        <ele>674</ele>
        <time>2016-05-15T13:06:45.000Z</time>
      </trkpt>
      <trkpt lat="43.77275" lon="7.24974">
        <ele>675</ele>
        <time>2016-05-15T13:06:51.000Z</time>
      </trkpt>
      <trkpt lat="43.77253" lon="7.24977">
        <ele>677</ele>
        <time>2016-05-15T13:07:00.000Z</time>
      </trkpt>
      <trkpt lat="43.77249" lon="7.24978">
        <ele>676</ele>
        <time>2016-05-15T13:07:02.000Z</time>
      </trkpt>
      <trkpt lat="43.77237" lon="7.24981">
        <ele>676</ele>
        <time>2016-05-15T13:07:07.000Z</time>
      </trkpt>
      <trkpt lat="43.7722" lon="7.24987">
        <ele>675</ele>
        <time>2016-05-15T13:07:14.000Z</time>
      </trkpt>
      <trkpt lat="43.77212" lon="7.24988">
        <ele>675</ele>
        <time>2016-05-15T13:07:17.000Z</time>
      </trkpt>
      <trkpt lat="43.77202" lon="7.24989">
        <ele>675</ele>
        <time>2016-05-15T13:07:20.000Z</time>
      </trkpt>
      <trkpt lat="43.77179" lon="7.2499">
        <ele>678</ele>
        <time>2016-05-15T13:07:27.000Z</time>
      </trkpt>
      <trkpt lat="43.7716" lon="7.24993">
        <ele>680</ele>
        <time>2016-05-15T13:07:33.000Z</time>
      </trkpt>
      <trkpt lat="43.77139" lon="7.24993">
        <ele>675</ele>
        <time>2016-05-15T13:07:39.000Z</time>
      </trkpt>
      <trkpt lat="43.77119" lon="7.24993">
        <ele>674</ele>
        <time>2016-05-15T13:07:45.000Z</time>
      </trkpt>
      <trkpt lat="43.771" lon="7.24995">
        <ele>676</ele>
        <time>2016-05-15T13:07:51.000Z</time>
      </trkpt>
      <trkpt lat="43.77083" lon="7.24995">
        <ele>680</ele>
        <time>2016-05-15T13:07:56.000Z</time>
      </trkpt>
      <trkpt lat="43.77071" lon="7.24987">
        <ele>677</ele>
        <time>2016-05-15T13:08:00.000Z</time>
      </trkpt>
      <trkpt lat="43.7706" lon="7.24979">
        <ele>675</ele>
        <time>2016-05-15T13:08:04.000Z</time>
      </trkpt>
      <trkpt lat="43.77046" lon="7.24971">
        <ele>673</ele>
        <time>2016-05-15T13:08:10.000Z</time>
      </trkpt>
      <trkpt lat="43.77033" lon="7.24966">
        <ele>673</ele>
        <time>2016-05-15T13:08:15.000Z</time>
      </trkpt>
      <trkpt lat="43.77025" lon="7.2497">
        <ele>674</ele>
        <time>2016-05-15T13:08:20.000Z</time>
      </trkpt>
      <trkpt lat="43.77023" lon="7.24971">
        <ele>674</ele>
        <time>2016-05-15T13:08:22.000Z</time>
      </trkpt>
      <trkpt lat="43.7702" lon="7.24974">
        <ele>675</ele>
        <time>2016-05-15T13:08:24.000Z</time>
      </trkpt>
      <trkpt lat="43.77018" lon="7.24976">
        <ele>675</ele>
        <time>2016-05-15T13:08:29.000Z</time>
      </trkpt>
      <trkpt lat="43.77014" lon="7.24978">
        <ele>676</ele>
        <time>2016-05-15T13:08:35.000Z</time>
      </trkpt>
      <trkpt lat="43.77011" lon="7.2498">
        <ele>677</ele>
        <time>2016-05-15T13:08:37.000Z</time>
      </trkpt>
      <trkpt lat="43.77003" lon="7.24984">
        <ele>679</ele>
        <time>2016-05-15T13:08:41.000Z</time>
      </trkpt>
      <trkpt lat="43.76983" lon="7.24994">
        <ele>677</ele>
        <time>2016-05-15T13:08:49.000Z</time>
      </trkpt>
      <trkpt lat="43.7696" lon="7.25002">
        <ele>683</ele>
        <time>2016-05-15T13:08:55.000Z</time>
      </trkpt>
      <trkpt lat="43.76957" lon="7.25003">
        <ele>683</ele>
        <time>2016-05-15T13:08:56.000Z</time>
      </trkpt>
      <trkpt lat="43.76949" lon="7.25005">
        <ele>682</ele>
        <time>2016-05-15T13:08:59.000Z</time>
      </trkpt>
      <trkpt lat="43.76944" lon="7.25007">
        <ele>681</ele>
        <time>2016-05-15T13:09:01.000Z</time>
      </trkpt>
      <trkpt lat="43.76942" lon="7.25007">
        <ele>681</ele>
        <time>2016-05-15T13:09:02.000Z</time>
      </trkpt>
      <trkpt lat="43.76932" lon="7.2501">
        <ele>679</ele>
        <time>2016-05-15T13:09:05.000Z</time>
      </trkpt>
      <trkpt lat="43.76928" lon="7.25012">
        <ele>679</ele>
        <time>2016-05-15T13:09:06.000Z</time>
      </trkpt>
      <trkpt lat="43.7692" lon="7.25018">
        <ele>679</ele>
        <time>2016-05-15T13:09:08.000Z</time>
      </trkpt>
      <trkpt lat="43.76909" lon="7.25025">
        <ele>672</ele>
        <time>2016-05-15T13:09:11.000Z</time>
      </trkpt>
      <trkpt lat="43.76895" lon="7.25032">
        <ele>672</ele>
        <time>2016-05-15T13:09:14.000Z</time>
      </trkpt>
      <trkpt lat="43.76884" lon="7.25034">
        <ele>671</ele>
        <time>2016-05-15T13:09:16.000Z</time>
      </trkpt>
      <trkpt lat="43.76873" lon="7.25035">
        <ele>671</ele>
        <time>2016-05-15T13:09:18.000Z</time>
      </trkpt>
      <trkpt lat="43.76857" lon="7.25034">
        <ele>670</ele>
        <time>2016-05-15T13:09:21.000Z</time>
      </trkpt>
      <trkpt lat="43.7685" lon="7.25034">
        <ele>669</ele>
        <time>2016-05-15T13:09:23.000Z</time>
      </trkpt>
      <trkpt lat="43.76847" lon="7.25037">
        <ele>669</ele>
        <time>2016-05-15T13:09:25.000Z</time>
      </trkpt>
      <trkpt lat="43.76847" lon="7.25036">
        <ele>669</ele>
        <time>2016-05-15T13:09:27.000Z</time>
      </trkpt>
      <trkpt lat="43.76847" lon="7.25036">
        <ele>669</ele>
        <time>2016-05-15T13:09:29.000Z</time>
      </trkpt>
      <trkpt lat="43.76847" lon="7.25036">
        <ele>669</ele>
        <time>2016-05-15T13:09:30.000Z</time>
      </trkpt>
      <trkpt lat="43.76846" lon="7.25035">
        <ele>669</ele>
        <time>2016-05-15T13:09:38.000Z</time>
      </trkpt>
      <trkpt lat="43.76845" lon="7.25037">
        <ele>669</ele>
        <time>2016-05-15T13:09:41.000Z</time>
      </trkpt>
      <trkpt lat="43.7684" lon="7.2504">
        <ele>669</ele>
        <time>2016-05-15T13:09:43.000Z</time>
      </trkpt>
      <trkpt lat="43.76823" lon="7.25047">
        <ele>662</ele>
        <time>2016-05-15T13:09:47.000Z</time>
      </trkpt>
      <trkpt lat="43.76818" lon="7.25048">
        <ele>662</ele>
        <time>2016-05-15T13:09:48.000Z</time>
      </trkpt>
      <trkpt lat="43.76814" lon="7.25046">
        <ele>662</ele>
        <time>2016-05-15T13:09:49.000Z</time>
      </trkpt>
      <trkpt lat="43.76806" lon="7.2504">
        <ele>662</ele>
        <time>2016-05-15T13:09:51.000Z</time>
      </trkpt>
      <trkpt lat="43.76803" lon="7.25036">
        <ele>662</ele>
        <time>2016-05-15T13:09:52.000Z</time>
      </trkpt>
      <trkpt lat="43.76789" lon="7.2503">
        <ele>662</ele>
        <time>2016-05-15T13:09:56.000Z</time>
      </trkpt>
      <trkpt lat="43.76786" lon="7.25032">
        <ele>661</ele>
        <time>2016-05-15T13:09:57.000Z</time>
      </trkpt>
      <trkpt lat="43.76778" lon="7.25036">
        <ele>661</ele>
        <time>2016-05-15T13:09:59.000Z</time>
      </trkpt>
      <trkpt lat="43.76764" lon="7.25041">
        <ele>660</ele>
        <time>2016-05-15T13:10:02.000Z</time>
      </trkpt>
      <trkpt lat="43.76759" lon="7.25043">
        <ele>660</ele>
        <time>2016-05-15T13:10:03.000Z</time>
      </trkpt>
      <trkpt lat="43.76755" lon="7.25046">
        <ele>660</ele>
        <time>2016-05-15T13:10:04.000Z</time>
      </trkpt>
      <trkpt lat="43.7675" lon="7.25048">
        <ele>653</ele>
        <time>2016-05-15T13:10:05.000Z</time>
      </trkpt>
      <trkpt lat="43.7674" lon="7.25052">
        <ele>653</ele>
        <time>2016-05-15T13:10:08.000Z</time>
      </trkpt>
      <trkpt lat="43.76737" lon="7.25052">
        <ele>653</ele>
        <time>2016-05-15T13:10:09.000Z</time>
      </trkpt>
      <trkpt lat="43.76728" lon="7.25054">
        <ele>652</ele>
        <time>2016-05-15T13:10:12.000Z</time>
      </trkpt>
      <trkpt lat="43.76726" lon="7.25053">
        <ele>652</ele>
        <time>2016-05-15T13:10:13.000Z</time>
      </trkpt>
      <trkpt lat="43.76722" lon="7.25053">
        <ele>652</ele>
        <time>2016-05-15T13:10:15.000Z</time>
      </trkpt>
      <trkpt lat="43.76716" lon="7.25052">
        <ele>651</ele>
        <time>2016-05-15T13:10:17.000Z</time>
      </trkpt>
      <trkpt lat="43.76707" lon="7.25053">
        <ele>651</ele>
        <time>2016-05-15T13:10:20.000Z</time>
      </trkpt>
      <trkpt lat="43.767" lon="7.25052">
        <ele>650</ele>
        <time>2016-05-15T13:10:22.000Z</time>
      </trkpt>
      <trkpt lat="43.76693" lon="7.25048">
        <ele>650</ele>
        <time>2016-05-15T13:10:24.000Z</time>
      </trkpt>
      <trkpt lat="43.76684" lon="7.2505">
        <ele>649</ele>
        <time>2016-05-15T13:10:27.000Z</time>
      </trkpt>
      <trkpt lat="43.76678" lon="7.25066">
        <ele>648</ele>
        <time>2016-05-15T13:10:30.000Z</time>
      </trkpt>
      <trkpt lat="43.76676" lon="7.25072">
        <ele>648</ele>
        <time>2016-05-15T13:10:31.000Z</time>
      </trkpt>
      <trkpt lat="43.76672" lon="7.25083">
        <ele>647</ele>
        <time>2016-05-15T13:10:33.000Z</time>
      </trkpt>
      <trkpt lat="43.76666" lon="7.2509">
        <ele>644</ele>
        <time>2016-05-15T13:10:35.000Z</time>
      </trkpt>
      <trkpt lat="43.76662" lon="7.25091">
        <ele>643</ele>
        <time>2016-05-15T13:10:36.000Z</time>
      </trkpt>
      <trkpt lat="43.76652" lon="7.25093">
        <ele>641</ele>
        <time>2016-05-15T13:10:38.000Z</time>
      </trkpt>
      <trkpt lat="43.76641" lon="7.25095">
        <ele>640</ele>
        <time>2016-05-15T13:10:40.000Z</time>
      </trkpt>
      <trkpt lat="43.76637" lon="7.25095">
        <ele>639</ele>
        <time>2016-05-15T13:10:41.000Z</time>
      </trkpt>
      <trkpt lat="43.76629" lon="7.25095">
        <ele>639</ele>
        <time>2016-05-15T13:10:43.000Z</time>
      </trkpt>
      <trkpt lat="43.76625" lon="7.25096">
        <ele>638</ele>
        <time>2016-05-15T13:10:44.000Z</time>
      </trkpt>
      <trkpt lat="43.76615" lon="7.25098">
        <ele>638</ele>
        <time>2016-05-15T13:10:46.000Z</time>
      </trkpt>
      <trkpt lat="43.76605" lon="7.251">
        <ele>637</ele>
        <time>2016-05-15T13:10:48.000Z</time>
      </trkpt>
      <trkpt lat="43.76601" lon="7.25101">
        <ele>637</ele>
        <time>2016-05-15T13:10:49.000Z</time>
      </trkpt>
      <trkpt lat="43.76588" lon="7.25105">
        <ele>637</ele>
        <time>2016-05-15T13:10:53.000Z</time>
      </trkpt>
      <trkpt lat="43.76584" lon="7.25107">
        <ele>637</ele>
        <time>2016-05-15T13:10:54.000Z</time>
      </trkpt>
      <trkpt lat="43.76579" lon="7.25108">
        <ele>633</ele>
        <time>2016-05-15T13:10:55.000Z</time>
      </trkpt>
      <trkpt lat="43.7657" lon="7.25112">
        <ele>632</ele>
        <time>2016-05-15T13:10:57.000Z</time>
      </trkpt>
      <trkpt lat="43.76566" lon="7.25113">
        <ele>632</ele>
        <time>2016-05-15T13:10:58.000Z</time>
      </trkpt>
      <trkpt lat="43.76557" lon="7.2512">
        <ele>631</ele>
        <time>2016-05-15T13:11:00.000Z</time>
      </trkpt>
      <trkpt lat="43.76544" lon="7.25128">
        <ele>631</ele>
        <time>2016-05-15T13:11:03.000Z</time>
      </trkpt>
      <trkpt lat="43.76534" lon="7.25132">
        <ele>631</ele>
        <time>2016-05-15T13:11:05.000Z</time>
      </trkpt>
      <trkpt lat="43.76529" lon="7.25131">
        <ele>631</ele>
        <time>2016-05-15T13:11:06.000Z</time>
      </trkpt>
      <trkpt lat="43.76524" lon="7.25128">
        <ele>630</ele>
        <time>2016-05-15T13:11:07.000Z</time>
      </trkpt>
      <trkpt lat="43.76518" lon="7.25126">
        <ele>630</ele>
        <time>2016-05-15T13:11:08.000Z</time>
      </trkpt>
      <trkpt lat="43.76513" lon="7.25123">
        <ele>630</ele>
        <time>2016-05-15T13:11:09.000Z</time>
      </trkpt>
      <trkpt lat="43.76504" lon="7.25119">
        <ele>629</ele>
        <time>2016-05-15T13:11:11.000Z</time>
      </trkpt>
      <trkpt lat="43.76499" lon="7.25118">
        <ele>624</ele>
        <time>2016-05-15T13:11:12.000Z</time>
      </trkpt>
      <trkpt lat="43.76496" lon="7.25115">
        <ele>623</ele>
        <time>2016-05-15T13:11:13.000Z</time>
      </trkpt>
      <trkpt lat="43.76488" lon="7.25112">
        <ele>623</ele>
        <time>2016-05-15T13:11:15.000Z</time>
      </trkpt>
      <trkpt lat="43.76481" lon="7.25112">
        <ele>622</ele>
        <time>2016-05-15T13:11:17.000Z</time>
      </trkpt>
      <trkpt lat="43.76478" lon="7.25111">
        <ele>622</ele>
        <time>2016-05-15T13:11:18.000Z</time>
      </trkpt>
      <trkpt lat="43.76474" lon="7.25114">
        <ele>622</ele>
        <time>2016-05-15T13:11:20.000Z</time>
      </trkpt>
      <trkpt lat="43.76471" lon="7.25115">
        <ele>622</ele>
        <time>2016-05-15T13:11:21.000Z</time>
      </trkpt>
      <trkpt lat="43.76462" lon="7.25115">
        <ele>621</ele>
        <time>2016-05-15T13:11:24.000Z</time>
      </trkpt>
      <trkpt lat="43.76458" lon="7.25115">
        <ele>621</ele>
        <time>2016-05-15T13:11:25.000Z</time>
      </trkpt>
      <trkpt lat="43.76447" lon="7.2512">
        <ele>621</ele>
        <time>2016-05-15T13:11:28.000Z</time>
      </trkpt>
      <trkpt lat="43.76444" lon="7.2512">
        <ele>620</ele>
        <time>2016-05-15T13:11:29.000Z</time>
      </trkpt>
      <trkpt lat="43.76432" lon="7.25126">
        <ele>620</ele>
        <time>2016-05-15T13:11:33.000Z</time>
      </trkpt>
      <trkpt lat="43.76426" lon="7.25128">
        <ele>621</ele>
        <time>2016-05-15T13:11:35.000Z</time>
      </trkpt>
      <trkpt lat="43.7642" lon="7.25129">
        <ele>621</ele>
        <time>2016-05-15T13:11:37.000Z</time>
      </trkpt>
      <trkpt lat="43.76412" lon="7.25132">
        <ele>610</ele>
        <time>2016-05-15T13:11:40.000Z</time>
      </trkpt>
      <trkpt lat="43.7641" lon="7.25134">
        <ele>610</ele>
        <time>2016-05-15T13:11:41.000Z</time>
      </trkpt>
      <trkpt lat="43.76407" lon="7.25135">
        <ele>610</ele>
        <time>2016-05-15T13:11:42.000Z</time>
      </trkpt>
      <trkpt lat="43.76393" lon="7.25145">
        <ele>610</ele>
        <time>2016-05-15T13:11:47.000Z</time>
      </trkpt>
      <trkpt lat="43.7639" lon="7.25149">
        <ele>610</ele>
        <time>2016-05-15T13:11:48.000Z</time>
      </trkpt>
      <trkpt lat="43.76383" lon="7.25156">
        <ele>610</ele>
        <time>2016-05-15T13:11:50.000Z</time>
      </trkpt>
      <trkpt lat="43.76376" lon="7.25163">
        <ele>609</ele>
        <time>2016-05-15T13:11:52.000Z</time>
      </trkpt>
      <trkpt lat="43.76374" lon="7.25167">
        <ele>618</ele>
        <time>2016-05-15T13:11:53.000Z</time>
      </trkpt>
      <trkpt lat="43.76365" lon="7.25174">
        <ele>616</ele>
        <time>2016-05-15T13:11:56.000Z</time>
      </trkpt>
      <trkpt lat="43.7636" lon="7.25183">
        <ele>616</ele>
        <time>2016-05-15T13:11:58.000Z</time>
      </trkpt>
      <trkpt lat="43.76358" lon="7.25188">
        <ele>616</ele>
        <time>2016-05-15T13:11:59.000Z</time>
      </trkpt>
      <trkpt lat="43.76355" lon="7.25193">
        <ele>616</ele>
        <time>2016-05-15T13:12:00.000Z</time>
      </trkpt>
      <trkpt lat="43.76352" lon="7.25196">
        <ele>616</ele>
        <time>2016-05-15T13:12:01.000Z</time>
      </trkpt>
      <trkpt lat="43.76347" lon="7.25199">
        <ele>616</ele>
        <time>2016-05-15T13:12:02.000Z</time>
      </trkpt>
      <trkpt lat="43.7634" lon="7.25203">
        <ele>616</ele>
        <time>2016-05-15T13:12:04.000Z</time>
      </trkpt>
      <trkpt lat="43.76327" lon="7.252">
        <ele>606</ele>
        <time>2016-05-15T13:12:08.000Z</time>
      </trkpt>
      <trkpt lat="43.76319" lon="7.25198">
        <ele>605</ele>
        <time>2016-05-15T13:12:10.000Z</time>
      </trkpt>
      <trkpt lat="43.76314" lon="7.25198">
        <ele>605</ele>
        <time>2016-05-15T13:12:11.000Z</time>
      </trkpt>
      <trkpt lat="43.76309" lon="7.252">
        <ele>605</ele>
        <time>2016-05-15T13:12:12.000Z</time>
      </trkpt>
      <trkpt lat="43.76304" lon="7.25201">
        <ele>605</ele>
        <time>2016-05-15T13:12:13.000Z</time>
      </trkpt>
      <trkpt lat="43.76299" lon="7.25201">
        <ele>604</ele>
        <time>2016-05-15T13:12:14.000Z</time>
      </trkpt>
      <trkpt lat="43.76294" lon="7.25203">
        <ele>604</ele>
        <time>2016-05-15T13:12:15.000Z</time>
      </trkpt>
      <trkpt lat="43.76286" lon="7.25205">
        <ele>604</ele>
        <time>2016-05-15T13:12:17.000Z</time>
      </trkpt>
      <trkpt lat="43.76277" lon="7.25205">
        <ele>603</ele>
        <time>2016-05-15T13:12:19.000Z</time>
      </trkpt>
      <trkpt lat="43.76268" lon="7.25205">
        <ele>602</ele>
        <time>2016-05-15T13:12:21.000Z</time>
      </trkpt>
      <trkpt lat="43.7626" lon="7.25206">
        <ele>602</ele>
        <time>2016-05-15T13:12:23.000Z</time>
      </trkpt>
      <trkpt lat="43.76247" lon="7.2521">
        <ele>593</ele>
        <time>2016-05-15T13:12:26.000Z</time>
      </trkpt>
      <trkpt lat="43.7624" lon="7.2521">
        <ele>592</ele>
        <time>2016-05-15T13:12:28.000Z</time>
      </trkpt>
      <trkpt lat="43.76238" lon="7.25211">
        <ele>592</ele>
        <time>2016-05-15T13:12:29.000Z</time>
      </trkpt>
      <trkpt lat="43.76226" lon="7.25211">
        <ele>591</ele>
        <time>2016-05-15T13:12:33.000Z</time>
      </trkpt>
      <trkpt lat="43.76223" lon="7.25211">
        <ele>591</ele>
        <time>2016-05-15T13:12:34.000Z</time>
      </trkpt>
      <trkpt lat="43.76211" lon="7.25214">
        <ele>590</ele>
        <time>2016-05-15T13:12:37.000Z</time>
      </trkpt>
      <trkpt lat="43.76207" lon="7.25216">
        <ele>590</ele>
        <time>2016-05-15T13:12:38.000Z</time>
      </trkpt>
      <trkpt lat="43.76193" lon="7.25227">
        <ele>590</ele>
        <time>2016-05-15T13:12:43.000Z</time>
      </trkpt>
      <trkpt lat="43.76191" lon="7.25227">
        <ele>590</ele>
        <time>2016-05-15T13:12:44.000Z</time>
      </trkpt>
      <trkpt lat="43.7619" lon="7.25227">
        <ele>590</ele>
        <time>2016-05-15T13:12:45.000Z</time>
      </trkpt>
      <trkpt lat="43.76189" lon="7.25227">
        <ele>590</ele>
        <time>2016-05-15T13:12:47.000Z</time>
      </trkpt>
      <trkpt lat="43.76187" lon="7.25227">
        <ele>589</ele>
        <time>2016-05-15T13:12:48.000Z</time>
      </trkpt>
      <trkpt lat="43.76186" lon="7.25228">
        <ele>590</ele>
        <time>2016-05-15T13:12:50.000Z</time>
      </trkpt>
      <trkpt lat="43.76182" lon="7.25229">
        <ele>590</ele>
        <time>2016-05-15T13:12:52.000Z</time>
      </trkpt>
      <trkpt lat="43.76166" lon="7.25238">
        <ele>583</ele>
        <time>2016-05-15T13:12:57.000Z</time>
      </trkpt>
      <trkpt lat="43.76154" lon="7.25245">
        <ele>582</ele>
        <time>2016-05-15T13:13:01.000Z</time>
      </trkpt>
      <trkpt lat="43.76149" lon="7.25249">
        <ele>580</ele>
        <time>2016-05-15T13:13:03.000Z</time>
      </trkpt>
      <trkpt lat="43.7614" lon="7.25251">
        <ele>588</ele>
        <time>2016-05-15T13:13:07.000Z</time>
      </trkpt>
      <trkpt lat="43.76138" lon="7.25252">
        <ele>588</ele>
        <time>2016-05-15T13:13:08.000Z</time>
      </trkpt>
      <trkpt lat="43.76127" lon="7.25261">
        <ele>586</ele>
        <time>2016-05-15T13:13:12.000Z</time>
      </trkpt>
      <trkpt lat="43.76121" lon="7.25263">
        <ele>585</ele>
        <time>2016-05-15T13:13:14.000Z</time>
      </trkpt>
      <trkpt lat="43.76113" lon="7.25268">
        <ele>584</ele>
        <time>2016-05-15T13:13:16.000Z</time>
      </trkpt>
      <trkpt lat="43.7611" lon="7.2527">
        <ele>583</ele>
        <time>2016-05-15T13:13:17.000Z</time>
      </trkpt>
      <trkpt lat="43.76099" lon="7.2528">
        <ele>583</ele>
        <time>2016-05-15T13:13:21.000Z</time>
      </trkpt>
      <trkpt lat="43.76097" lon="7.25282">
        <ele>583</ele>
        <time>2016-05-15T13:13:22.000Z</time>
      </trkpt>
      <trkpt lat="43.76095" lon="7.25284">
        <ele>583</ele>
        <time>2016-05-15T13:13:23.000Z</time>
      </trkpt>
      <trkpt lat="43.76088" lon="7.25284">
        <ele>583</ele>
        <time>2016-05-15T13:13:26.000Z</time>
      </trkpt>
      <trkpt lat="43.7608" lon="7.25286">
        <ele>569</ele>
        <time>2016-05-15T13:13:29.000Z</time>
      </trkpt>
      <trkpt lat="43.76071" lon="7.2529">
        <ele>569</ele>
        <time>2016-05-15T13:13:31.000Z</time>
      </trkpt>
      <trkpt lat="43.76062" lon="7.25293">
        <ele>569</ele>
        <time>2016-05-15T13:13:33.000Z</time>
      </trkpt>
      <trkpt lat="43.76053" lon="7.25298">
        <ele>568</ele>
        <time>2016-05-15T13:13:35.000Z</time>
      </trkpt>
      <trkpt lat="43.76046" lon="7.25303">
        <ele>568</ele>
        <time>2016-05-15T13:13:37.000Z</time>
      </trkpt>
      <trkpt lat="43.76039" lon="7.25308">
        <ele>567</ele>
        <time>2016-05-15T13:13:40.000Z</time>
      </trkpt>
      <trkpt lat="43.76036" lon="7.25308">
        <ele>567</ele>
        <time>2016-05-15T13:13:41.000Z</time>
      </trkpt>
      <trkpt lat="43.76024" lon="7.25309">
        <ele>566</ele>
        <time>2016-05-15T13:13:44.000Z</time>
      </trkpt>
      <trkpt lat="43.76019" lon="7.25312">
        <ele>566</ele>
        <time>2016-05-15T13:13:45.000Z</time>
      </trkpt>
      <trkpt lat="43.76012" lon="7.25317">
        <ele>565</ele>
        <time>2016-05-15T13:13:47.000Z</time>
      </trkpt>
      <trkpt lat="43.76009" lon="7.25319">
        <ele>566</ele>
        <time>2016-05-15T13:13:48.000Z</time>
      </trkpt>
      <trkpt lat="43.76006" lon="7.25321">
        <ele>566</ele>
        <time>2016-05-15T13:13:49.000Z</time>
      </trkpt>
      <trkpt lat="43.76003" lon="7.25323">
        <ele>566</ele>
        <time>2016-05-15T13:13:50.000Z</time>
      </trkpt>
      <trkpt lat="43.76001" lon="7.25325">
        <ele>566</ele>
        <time>2016-05-15T13:13:51.000Z</time>
      </trkpt>
      <trkpt lat="43.75999" lon="7.25324">
        <ele>559</ele>
        <time>2016-05-15T13:13:52.000Z</time>
      </trkpt>
      <trkpt lat="43.75999" lon="7.25324">
        <ele>559</ele>
        <time>2016-05-15T13:13:53.000Z</time>
      </trkpt>
      <trkpt lat="43.75998" lon="7.25325">
        <ele>560</ele>
        <time>2016-05-15T13:13:54.000Z</time>
      </trkpt>
      <trkpt lat="43.75996" lon="7.25326">
        <ele>560</ele>
        <time>2016-05-15T13:13:55.000Z</time>
      </trkpt>
      <trkpt lat="43.7599" lon="7.25333">
        <ele>559</ele>
        <time>2016-05-15T13:13:58.000Z</time>
      </trkpt>
      <trkpt lat="43.75986" lon="7.25336">
        <ele>565</ele>
        <time>2016-05-15T13:14:00.000Z</time>
      </trkpt>
      <trkpt lat="43.75976" lon="7.25342">
        <ele>565</ele>
        <time>2016-05-15T13:14:04.000Z</time>
      </trkpt>
      <trkpt lat="43.75969" lon="7.25345">
        <ele>564</ele>
        <time>2016-05-15T13:14:06.000Z</time>
      </trkpt>
      <trkpt lat="43.75957" lon="7.25352">
        <ele>563</ele>
        <time>2016-05-15T13:14:09.000Z</time>
      </trkpt>
      <trkpt lat="43.75952" lon="7.25355">
        <ele>562</ele>
        <time>2016-05-15T13:14:10.000Z</time>
      </trkpt>
      <trkpt lat="43.75942" lon="7.25362">
        <ele>562</ele>
        <time>2016-05-15T13:14:12.000Z</time>
      </trkpt>
      <trkpt lat="43.75937" lon="7.25366">
        <ele>562</ele>
        <time>2016-05-15T13:14:13.000Z</time>
      </trkpt>
      <trkpt lat="43.75933" lon="7.25368">
        <ele>562</ele>
        <time>2016-05-15T13:14:14.000Z</time>
      </trkpt>
      <trkpt lat="43.75923" lon="7.25375">
        <ele>562</ele>
        <time>2016-05-15T13:14:16.000Z</time>
      </trkpt>
      <trkpt lat="43.7592" lon="7.25377">
        <ele>563</ele>
        <time>2016-05-15T13:14:17.000Z</time>
      </trkpt>
      <trkpt lat="43.75918" lon="7.25381">
        <ele>563</ele>
        <time>2016-05-15T13:14:18.000Z</time>
      </trkpt>
      <trkpt lat="43.7591" lon="7.25385">
        <ele>552</ele>
        <time>2016-05-15T13:14:21.000Z</time>
      </trkpt>
      <trkpt lat="43.75908" lon="7.25387">
        <ele>552</ele>
        <time>2016-05-15T13:14:22.000Z</time>
      </trkpt>
      <trkpt lat="43.75898" lon="7.25393">
        <ele>552</ele>
        <time>2016-05-15T13:14:25.000Z</time>
      </trkpt>
      <trkpt lat="43.75893" lon="7.25399">
        <ele>553</ele>
        <time>2016-05-15T13:14:27.000Z</time>
      </trkpt>
      <trkpt lat="43.75888" lon="7.25404">
        <ele>552</ele>
        <time>2016-05-15T13:14:29.000Z</time>
      </trkpt>
      <trkpt lat="43.75883" lon="7.25408">
        <ele>552</ele>
        <time>2016-05-15T13:14:31.000Z</time>
      </trkpt>
      <trkpt lat="43.75871" lon="7.2542">
        <ele>560</ele>
        <time>2016-05-15T13:14:35.000Z</time>
      </trkpt>
      <trkpt lat="43.75865" lon="7.25426">
        <ele>559</ele>
        <time>2016-05-15T13:14:39.000Z</time>
      </trkpt>
      <trkpt lat="43.75864" lon="7.25426">
        <ele>559</ele>
        <time>2016-05-15T13:14:46.000Z</time>
      </trkpt>
      <trkpt lat="43.7586" lon="7.25428">
        <ele>559</ele>
        <time>2016-05-15T13:14:50.000Z</time>
      </trkpt>
      <trkpt lat="43.75858" lon="7.25428">
        <ele>558</ele>
        <time>2016-05-15T13:14:52.000Z</time>
      </trkpt>
      <trkpt lat="43.75858" lon="7.25428">
        <ele>558</ele>
        <time>2016-05-15T13:14:53.000Z</time>
      </trkpt>
      <trkpt lat="43.75853" lon="7.25429">
        <ele>557</ele>
        <time>2016-05-15T13:15:00.000Z</time>
      </trkpt>
      <trkpt lat="43.75853" lon="7.25429">
        <ele>557</ele>
        <time>2016-05-15T13:15:01.000Z</time>
      </trkpt>
      <trkpt lat="43.75848" lon="7.2543">
        <ele>556</ele>
        <time>2016-05-15T13:15:04.000Z</time>
      </trkpt>
      <trkpt lat="43.75847" lon="7.25431">
        <ele>556</ele>
        <time>2016-05-15T13:15:05.000Z</time>
      </trkpt>
      <trkpt lat="43.75836" lon="7.25434">
        <ele>555</ele>
        <time>2016-05-15T13:15:09.000Z</time>
      </trkpt>
      <trkpt lat="43.75827" lon="7.25439">
        <ele>546</ele>
        <time>2016-05-15T13:15:11.000Z</time>
      </trkpt>
      <trkpt lat="43.75823" lon="7.25443">
        <ele>546</ele>
        <time>2016-05-15T13:15:12.000Z</time>
      </trkpt>
      <trkpt lat="43.75819" lon="7.25447">
        <ele>546</ele>
        <time>2016-05-15T13:15:13.000Z</time>
      </trkpt>
      <trkpt lat="43.75814" lon="7.2545">
        <ele>545</ele>
        <time>2016-05-15T13:15:15.000Z</time>
      </trkpt>
      <trkpt lat="43.75812" lon="7.2545">
        <ele>545</ele>
        <time>2016-05-15T13:15:16.000Z</time>
      </trkpt>
      <trkpt lat="43.75808" lon="7.25452">
        <ele>545</ele>
        <time>2016-05-15T13:15:17.000Z</time>
      </trkpt>
      <trkpt lat="43.75798" lon="7.25457">
        <ele>544</ele>
        <time>2016-05-15T13:15:19.000Z</time>
      </trkpt>
      <trkpt lat="43.75793" lon="7.25461">
        <ele>544</ele>
        <time>2016-05-15T13:15:20.000Z</time>
      </trkpt>
      <trkpt lat="43.75788" lon="7.25466">
        <ele>543</ele>
        <time>2016-05-15T13:15:22.000Z</time>
      </trkpt>
      <trkpt lat="43.75785" lon="7.25466">
        <ele>543</ele>
        <time>2016-05-15T13:15:23.000Z</time>
      </trkpt>
      <trkpt lat="43.75783" lon="7.25468">
        <ele>543</ele>
        <time>2016-05-15T13:15:24.000Z</time>
      </trkpt>
      <trkpt lat="43.7578" lon="7.2547">
        <ele>543</ele>
        <time>2016-05-15T13:15:25.000Z</time>
      </trkpt>
      <trkpt lat="43.75777" lon="7.25473">
        <ele>543</ele>
        <time>2016-05-15T13:15:26.000Z</time>
      </trkpt>
      <trkpt lat="43.75774" lon="7.25476">
        <ele>543</ele>
        <time>2016-05-15T13:15:27.000Z</time>
      </trkpt>
      <trkpt lat="43.75762" lon="7.25486">
        <ele>542</ele>
        <time>2016-05-15T13:15:30.000Z</time>
      </trkpt>
      <trkpt lat="43.75754" lon="7.25492">
        <ele>542</ele>
        <time>2016-05-15T13:15:32.000Z</time>
      </trkpt>
      <trkpt lat="43.75745" lon="7.25498">
        <ele>537</ele>
        <time>2016-05-15T13:15:34.000Z</time>
      </trkpt>
      <trkpt lat="43.75735" lon="7.25498">
        <ele>532</ele>
        <time>2016-05-15T13:15:37.000Z</time>
      </trkpt>
      <trkpt lat="43.75731" lon="7.255">
        <ele>531</ele>
        <time>2016-05-15T13:15:39.000Z</time>
      </trkpt>
      <trkpt lat="43.75727" lon="7.25503">
        <ele>539</ele>
        <time>2016-05-15T13:15:41.000Z</time>
      </trkpt>
      <trkpt lat="43.75713" lon="7.2551">
        <ele>537</ele>
        <time>2016-05-15T13:15:45.000Z</time>
      </trkpt>
      <trkpt lat="43.75709" lon="7.25513">
        <ele>537</ele>
        <time>2016-05-15T13:15:46.000Z</time>
      </trkpt>
      <trkpt lat="43.757" lon="7.25518">
        <ele>536</ele>
        <time>2016-05-15T13:15:49.000Z</time>
      </trkpt>
      <trkpt lat="43.75697" lon="7.25517">
        <ele>535</ele>
        <time>2016-05-15T13:15:50.000Z</time>
      </trkpt>
      <trkpt lat="43.75687" lon="7.2552">
        <ele>534</ele>
        <time>2016-05-15T13:15:53.000Z</time>
      </trkpt>
      <trkpt lat="43.75683" lon="7.25523">
        <ele>534</ele>
        <time>2016-05-15T13:15:54.000Z</time>
      </trkpt>
      <trkpt lat="43.75679" lon="7.25526">
        <ele>534</ele>
        <time>2016-05-15T13:15:55.000Z</time>
      </trkpt>
      <trkpt lat="43.75667" lon="7.25534">
        <ele>535</ele>
        <time>2016-05-15T13:15:58.000Z</time>
      </trkpt>
      <trkpt lat="43.7566" lon="7.25537">
        <ele>524</ele>
        <time>2016-05-15T13:16:00.000Z</time>
      </trkpt>
      <trkpt lat="43.75657" lon="7.25538">
        <ele>524</ele>
        <time>2016-05-15T13:16:01.000Z</time>
      </trkpt>
      <trkpt lat="43.75641" lon="7.25543">
        <ele>523</ele>
        <time>2016-05-15T13:16:06.000Z</time>
      </trkpt>
      <trkpt lat="43.7564" lon="7.25545">
        <ele>523</ele>
        <time>2016-05-15T13:16:07.000Z</time>
      </trkpt>
      <trkpt lat="43.75638" lon="7.25548">
        <ele>523</ele>
        <time>2016-05-15T13:16:08.000Z</time>
      </trkpt>
      <trkpt lat="43.75632" lon="7.25552">
        <ele>523</ele>
        <time>2016-05-15T13:16:10.000Z</time>
      </trkpt>
      <trkpt lat="43.75625" lon="7.25557">
        <ele>523</ele>
        <time>2016-05-15T13:16:12.000Z</time>
      </trkpt>
      <trkpt lat="43.75617" lon="7.25562">
        <ele>522</ele>
        <time>2016-05-15T13:16:14.000Z</time>
      </trkpt>
      <trkpt lat="43.75603" lon="7.2557">
        <ele>521</ele>
        <time>2016-05-15T13:16:18.000Z</time>
      </trkpt>
      <trkpt lat="43.75595" lon="7.25572">
        <ele>520</ele>
        <time>2016-05-15T13:16:20.000Z</time>
      </trkpt>
      <trkpt lat="43.75588" lon="7.25575">
        <ele>520</ele>
        <time>2016-05-15T13:16:22.000Z</time>
      </trkpt>
      <trkpt lat="43.75585" lon="7.25575">
        <ele>520</ele>
        <time>2016-05-15T13:16:23.000Z</time>
      </trkpt>
      <trkpt lat="43.7558" lon="7.25576">
        <ele>514</ele>
        <time>2016-05-15T13:16:24.000Z</time>
      </trkpt>
      <trkpt lat="43.75575" lon="7.25579">
        <ele>514</ele>
        <time>2016-05-15T13:16:25.000Z</time>
      </trkpt>
      <trkpt lat="43.75567" lon="7.25585">
        <ele>515</ele>
        <time>2016-05-15T13:16:27.000Z</time>
      </trkpt>
      <trkpt lat="43.75558" lon="7.2559">
        <ele>513</ele>
        <time>2016-05-15T13:16:30.000Z</time>
      </trkpt>
      <trkpt lat="43.75556" lon="7.25594">
        <ele>512</ele>
        <time>2016-05-15T13:16:31.000Z</time>
      </trkpt>
      <trkpt lat="43.75553" lon="7.25596">
        <ele>512</ele>
        <time>2016-05-15T13:16:32.000Z</time>
      </trkpt>
      <trkpt lat="43.75547" lon="7.25604">
        <ele>510</ele>
        <time>2016-05-15T13:16:34.000Z</time>
      </trkpt>
      <trkpt lat="43.75544" lon="7.25609">
        <ele>510</ele>
        <time>2016-05-15T13:16:35.000Z</time>
      </trkpt>
      <trkpt lat="43.75538" lon="7.25621">
        <ele>509</ele>
        <time>2016-05-15T13:16:37.000Z</time>
      </trkpt>
      <trkpt lat="43.75531" lon="7.25637">
        <ele>509</ele>
        <time>2016-05-15T13:16:40.000Z</time>
      </trkpt>
      <trkpt lat="43.75529" lon="7.25651">
        <ele>509</ele>
        <time>2016-05-15T13:16:43.000Z</time>
      </trkpt>
      <trkpt lat="43.7553" lon="7.25657">
        <ele>509</ele>
        <time>2016-05-15T13:16:44.000Z</time>
      </trkpt>
      <trkpt lat="43.75529" lon="7.25663">
        <ele>508</ele>
        <time>2016-05-15T13:16:45.000Z</time>
      </trkpt>
      <trkpt lat="43.75529" lon="7.2567">
        <ele>508</ele>
        <time>2016-05-15T13:16:46.000Z</time>
      </trkpt>
      <trkpt lat="43.75528" lon="7.25677">
        <ele>508</ele>
        <time>2016-05-15T13:16:47.000Z</time>
      </trkpt>
      <trkpt lat="43.75527" lon="7.25692">
        <ele>508</ele>
        <time>2016-05-15T13:16:49.000Z</time>
      </trkpt>
      <trkpt lat="43.75526" lon="7.25698">
        <ele>508</ele>
        <time>2016-05-15T13:16:50.000Z</time>
      </trkpt>
      <trkpt lat="43.75523" lon="7.25708">
        <ele>508</ele>
        <time>2016-05-15T13:16:52.000Z</time>
      </trkpt>
      <trkpt lat="43.75522" lon="7.2571">
        <ele>508</ele>
        <time>2016-05-15T13:16:53.000Z</time>
      </trkpt>
      <trkpt lat="43.7552" lon="7.25713">
        <ele>508</ele>
        <time>2016-05-15T13:16:54.000Z</time>
      </trkpt>
      <trkpt lat="43.75518" lon="7.25715">
        <ele>507</ele>
        <time>2016-05-15T13:16:55.000Z</time>
      </trkpt>
      <trkpt lat="43.75515" lon="7.25716">
        <ele>507</ele>
        <time>2016-05-15T13:16:56.000Z</time>
      </trkpt>
      <trkpt lat="43.75512" lon="7.25718">
        <ele>507</ele>
        <time>2016-05-15T13:16:57.000Z</time>
      </trkpt>
      <trkpt lat="43.75508" lon="7.25719">
        <ele>507</ele>
        <time>2016-05-15T13:16:59.000Z</time>
      </trkpt>
      <trkpt lat="43.75502" lon="7.25723">
        <ele>506</ele>
        <time>2016-05-15T13:17:02.000Z</time>
      </trkpt>
      <trkpt lat="43.75496" lon="7.25733">
        <ele>498</ele>
        <time>2016-05-15T13:17:04.000Z</time>
      </trkpt>
      <trkpt lat="43.75493" lon="7.25739">
        <ele>498</ele>
        <time>2016-05-15T13:17:05.000Z</time>
      </trkpt>
      <trkpt lat="43.75491" lon="7.25748">
        <ele>499</ele>
        <time>2016-05-15T13:17:06.000Z</time>
      </trkpt>
      <trkpt lat="43.75489" lon="7.25763">
        <ele>499</ele>
        <time>2016-05-15T13:17:08.000Z</time>
      </trkpt>
      <trkpt lat="43.75487" lon="7.2577">
        <ele>499</ele>
        <time>2016-05-15T13:17:09.000Z</time>
      </trkpt>
      <trkpt lat="43.75485" lon="7.25777">
        <ele>499</ele>
        <time>2016-05-15T13:17:10.000Z</time>
      </trkpt>
      <trkpt lat="43.75482" lon="7.25782">
        <ele>498</ele>
        <time>2016-05-15T13:17:11.000Z</time>
      </trkpt>
      <trkpt lat="43.75474" lon="7.25785">
        <ele>498</ele>
        <time>2016-05-15T13:17:13.000Z</time>
      </trkpt>
      <trkpt lat="43.75462" lon="7.25791">
        <ele>498</ele>
        <time>2016-05-15T13:17:16.000Z</time>
      </trkpt>
      <trkpt lat="43.75459" lon="7.25794">
        <ele>498</ele>
        <time>2016-05-15T13:17:17.000Z</time>
      </trkpt>
      <trkpt lat="43.75443" lon="7.25802">
        <ele>498</ele>
        <time>2016-05-15T13:17:22.000Z</time>
      </trkpt>
      <trkpt lat="43.75439" lon="7.25803">
        <ele>498</ele>
        <time>2016-05-15T13:17:23.000Z</time>
      </trkpt>
      <trkpt lat="43.75428" lon="7.25801">
        <ele>497</ele>
        <time>2016-05-15T13:17:27.000Z</time>
      </trkpt>
      <trkpt lat="43.7542" lon="7.25804">
        <ele>498</ele>
        <time>2016-05-15T13:17:30.000Z</time>
      </trkpt>
      <trkpt lat="43.75418" lon="7.25805">
        <ele>498</ele>
        <time>2016-05-15T13:17:31.000Z</time>
      </trkpt>
      <trkpt lat="43.75405" lon="7.25808">
        <ele>496</ele>
        <time>2016-05-15T13:17:36.000Z</time>
      </trkpt>
      <trkpt lat="43.754" lon="7.25805">
        <ele>495</ele>
        <time>2016-05-15T13:17:39.000Z</time>
      </trkpt>
      <trkpt lat="43.75396" lon="7.25802">
        <ele>495</ele>
        <time>2016-05-15T13:17:41.000Z</time>
      </trkpt>
      <trkpt lat="43.75382" lon="7.258">
        <ele>495</ele>
        <time>2016-05-15T13:17:47.000Z</time>
      </trkpt>
      <trkpt lat="43.75379" lon="7.25799">
        <ele>495</ele>
        <time>2016-05-15T13:17:48.000Z</time>
      </trkpt>
      <trkpt lat="43.75372" lon="7.2579">
        <ele>494</ele>
        <time>2016-05-15T13:17:52.000Z</time>
      </trkpt>
      <trkpt lat="43.75368" lon="7.25785">
        <ele>494</ele>
        <time>2016-05-15T13:17:55.000Z</time>
      </trkpt>
      <trkpt lat="43.75365" lon="7.25786">
        <ele>494</ele>
        <time>2016-05-15T13:17:56.000Z</time>
      </trkpt>
      <trkpt lat="43.75354" lon="7.25784">
        <ele>494</ele>
        <time>2016-05-15T13:17:59.000Z</time>
      </trkpt>
      <trkpt lat="43.7535" lon="7.25785">
        <ele>494</ele>
        <time>2016-05-15T13:18:00.000Z</time>
      </trkpt>
      <trkpt lat="43.75341" lon="7.2579">
        <ele>494</ele>
        <time>2016-05-15T13:18:02.000Z</time>
      </trkpt>
      <trkpt lat="43.75334" lon="7.258">
        <ele>494</ele>
        <time>2016-05-15T13:18:04.000Z</time>
      </trkpt>
      <trkpt lat="43.75329" lon="7.25811">
        <ele>491</ele>
        <time>2016-05-15T13:18:06.000Z</time>
      </trkpt>
      <trkpt lat="43.75326" lon="7.25814">
        <ele>491</ele>
        <time>2016-05-15T13:18:07.000Z</time>
      </trkpt>
      <trkpt lat="43.75322" lon="7.25816">
        <ele>491</ele>
        <time>2016-05-15T13:18:08.000Z</time>
      </trkpt>
      <trkpt lat="43.75315" lon="7.25816">
        <ele>491</ele>
        <time>2016-05-15T13:18:10.000Z</time>
      </trkpt>
      <trkpt lat="43.75307" lon="7.25821">
        <ele>490</ele>
        <time>2016-05-15T13:18:12.000Z</time>
      </trkpt>
      <trkpt lat="43.75304" lon="7.25824">
        <ele>490</ele>
        <time>2016-05-15T13:18:13.000Z</time>
      </trkpt>
      <trkpt lat="43.75294" lon="7.25829">
        <ele>489</ele>
        <time>2016-05-15T13:18:17.000Z</time>
      </trkpt>
      <trkpt lat="43.75283" lon="7.25836">
        <ele>493</ele>
        <time>2016-05-15T13:18:22.000Z</time>
      </trkpt>
      <trkpt lat="43.75281" lon="7.25836">
        <ele>493</ele>
        <time>2016-05-15T13:18:23.000Z</time>
      </trkpt>
      <trkpt lat="43.75269" lon="7.25839">
        <ele>492</ele>
        <time>2016-05-15T13:18:27.000Z</time>
      </trkpt>
      <trkpt lat="43.75265" lon="7.25846">
        <ele>492</ele>
        <time>2016-05-15T13:18:31.000Z</time>
      </trkpt>
      <trkpt lat="43.75264" lon="7.25847">
        <ele>492</ele>
        <time>2016-05-15T13:18:32.000Z</time>
      </trkpt>
      <trkpt lat="43.75258" lon="7.25853">
        <ele>492</ele>
        <time>2016-05-15T13:18:35.000Z</time>
      </trkpt>
      <trkpt lat="43.75247" lon="7.25855">
        <ele>487</ele>
        <time>2016-05-15T13:18:39.000Z</time>
      </trkpt>
      <trkpt lat="43.75231" lon="7.25855">
        <ele>487</ele>
        <time>2016-05-15T13:18:43.000Z</time>
      </trkpt>
      <trkpt lat="43.75227" lon="7.25856">
        <ele>487</ele>
        <time>2016-05-15T13:18:44.000Z</time>
      </trkpt>
      <trkpt lat="43.75212" lon="7.25861">
        <ele>486</ele>
        <time>2016-05-15T13:18:47.000Z</time>
      </trkpt>
      <trkpt lat="43.75207" lon="7.25863">
        <ele>486</ele>
        <time>2016-05-15T13:18:48.000Z</time>
      </trkpt>
      <trkpt lat="43.75203" lon="7.25867">
        <ele>486</ele>
        <time>2016-05-15T13:18:49.000Z</time>
      </trkpt>
      <trkpt lat="43.75198" lon="7.25869">
        <ele>486</ele>
        <time>2016-05-15T13:18:50.000Z</time>
      </trkpt>
      <trkpt lat="43.75186" lon="7.25871">
        <ele>486</ele>
        <time>2016-05-15T13:18:53.000Z</time>
      </trkpt>
      <trkpt lat="43.75171" lon="7.25875">
        <ele>485</ele>
        <time>2016-05-15T13:18:57.000Z</time>
      </trkpt>
      <trkpt lat="43.75164" lon="7.25874">
        <ele>480</ele>
        <time>2016-05-15T13:18:59.000Z</time>
      </trkpt>
      <trkpt lat="43.75153" lon="7.25873">
        <ele>480</ele>
        <time>2016-05-15T13:19:02.000Z</time>
      </trkpt>
      <trkpt lat="43.75144" lon="7.25874">
        <ele>480</ele>
        <time>2016-05-15T13:19:04.000Z</time>
      </trkpt>
      <trkpt lat="43.75132" lon="7.25871">
        <ele>479</ele>
        <time>2016-05-15T13:19:07.000Z</time>
      </trkpt>
      <trkpt lat="43.75127" lon="7.25873">
        <ele>479</ele>
        <time>2016-05-15T13:19:08.000Z</time>
      </trkpt>
      <trkpt lat="43.75123" lon="7.25875">
        <ele>479</ele>
        <time>2016-05-15T13:19:09.000Z</time>
      </trkpt>
      <trkpt lat="43.75114" lon="7.25873">
        <ele>478</ele>
        <time>2016-05-15T13:19:11.000Z</time>
      </trkpt>
      <trkpt lat="43.7511" lon="7.25874">
        <ele>478</ele>
        <time>2016-05-15T13:19:12.000Z</time>
      </trkpt>
      <trkpt lat="43.75106" lon="7.25875">
        <ele>478</ele>
        <time>2016-05-15T13:19:13.000Z</time>
      </trkpt>
      <trkpt lat="43.75102" lon="7.25875">
        <ele>478</ele>
        <time>2016-05-15T13:19:14.000Z</time>
      </trkpt>
      <trkpt lat="43.75088" lon="7.25872">
        <ele>477</ele>
        <time>2016-05-15T13:19:18.000Z</time>
      </trkpt>
      <trkpt lat="43.75079" lon="7.25865">
        <ele>473</ele>
        <time>2016-05-15T13:19:20.000Z</time>
      </trkpt>
      <trkpt lat="43.75071" lon="7.2586">
        <ele>473</ele>
        <time>2016-05-15T13:19:22.000Z</time>
      </trkpt>
      <trkpt lat="43.75067" lon="7.25861">
        <ele>473</ele>
        <time>2016-05-15T13:19:23.000Z</time>
      </trkpt>
      <trkpt lat="43.75054" lon="7.2586">
        <ele>473</ele>
        <time>2016-05-15T13:19:26.000Z</time>
      </trkpt>
      <trkpt lat="43.75045" lon="7.25859">
        <ele>473</ele>
        <time>2016-05-15T13:19:28.000Z</time>
      </trkpt>
      <trkpt lat="43.75036" lon="7.25858">
        <ele>473</ele>
        <time>2016-05-15T13:19:30.000Z</time>
      </trkpt>
      <trkpt lat="43.75031" lon="7.25858">
        <ele>472</ele>
        <time>2016-05-15T13:19:31.000Z</time>
      </trkpt>
      <trkpt lat="43.75018" lon="7.25855">
        <ele>472</ele>
        <time>2016-05-15T13:19:35.000Z</time>
      </trkpt>
      <trkpt lat="43.75013" lon="7.25854">
        <ele>471</ele>
        <time>2016-05-15T13:19:36.000Z</time>
      </trkpt>
      <trkpt lat="43.74998" lon="7.25852">
        <ele>469</ele>
        <time>2016-05-15T13:19:40.000Z</time>
      </trkpt>
      <trkpt lat="43.7499" lon="7.25853">
        <ele>469</ele>
        <time>2016-05-15T13:19:42.000Z</time>
      </trkpt>
      <trkpt lat="43.74986" lon="7.25854">
        <ele>469</ele>
        <time>2016-05-15T13:19:43.000Z</time>
      </trkpt>
      <trkpt lat="43.74979" lon="7.25857">
        <ele>469</ele>
        <time>2016-05-15T13:19:45.000Z</time>
      </trkpt>
      <trkpt lat="43.74974" lon="7.25854">
        <ele>469</ele>
        <time>2016-05-15T13:19:47.000Z</time>
      </trkpt>
      <trkpt lat="43.74972" lon="7.25851">
        <ele>469</ele>
        <time>2016-05-15T13:19:48.000Z</time>
      </trkpt>
      <trkpt lat="43.74964" lon="7.25842">
        <ele>469</ele>
        <time>2016-05-15T13:19:51.000Z</time>
      </trkpt>
      <trkpt lat="43.74956" lon="7.2584">
        <ele>469</ele>
        <time>2016-05-15T13:19:53.000Z</time>
      </trkpt>
      <trkpt lat="43.74937" lon="7.25837">
        <ele>468</ele>
        <time>2016-05-15T13:19:57.000Z</time>
      </trkpt>
      <trkpt lat="43.74929" lon="7.25837">
        <ele>467</ele>
        <time>2016-05-15T13:19:59.000Z</time>
      </trkpt>
      <trkpt lat="43.74916" lon="7.25839">
        <ele>466</ele>
        <time>2016-05-15T13:20:03.000Z</time>
      </trkpt>
      <trkpt lat="43.74901" lon="7.25843">
        <ele>467</ele>
        <time>2016-05-15T13:20:09.000Z</time>
      </trkpt>
      <trkpt lat="43.74882" lon="7.25842">
        <ele>467</ele>
        <time>2016-05-15T13:20:15.000Z</time>
      </trkpt>
      <trkpt lat="43.74867" lon="7.25841">
        <ele>467</ele>
        <time>2016-05-15T13:20:19.000Z</time>
      </trkpt>
      <trkpt lat="43.74858" lon="7.25842">
        <ele>467</ele>
        <time>2016-05-15T13:20:21.000Z</time>
      </trkpt>
      <trkpt lat="43.74843" lon="7.25843">
        <ele>467</ele>
        <time>2016-05-15T13:20:25.000Z</time>
      </trkpt>
      <trkpt lat="43.74821" lon="7.25842">
        <ele>465</ele>
        <time>2016-05-15T13:20:31.000Z</time>
      </trkpt>
      <trkpt lat="43.74803" lon="7.2584">
        <ele>464</ele>
        <time>2016-05-15T13:20:37.000Z</time>
      </trkpt>
      <trkpt lat="43.74788" lon="7.25843">
        <ele>463</ele>
        <time>2016-05-15T13:20:42.000Z</time>
      </trkpt>
      <trkpt lat="43.74784" lon="7.25844">
        <ele>463</ele>
        <time>2016-05-15T13:20:43.000Z</time>
      </trkpt>
      <trkpt lat="43.74776" lon="7.25846">
        <ele>463</ele>
        <time>2016-05-15T13:20:45.000Z</time>
      </trkpt>
      <trkpt lat="43.74772" lon="7.25847">
        <ele>462</ele>
        <time>2016-05-15T13:20:46.000Z</time>
      </trkpt>
      <trkpt lat="43.74768" lon="7.25846">
        <ele>462</ele>
        <time>2016-05-15T13:20:48.000Z</time>
      </trkpt>
      <trkpt lat="43.74762" lon="7.25849">
        <ele>462</ele>
        <time>2016-05-15T13:20:50.000Z</time>
      </trkpt>
      <trkpt lat="43.74756" lon="7.25855">
        <ele>462</ele>
        <time>2016-05-15T13:20:52.000Z</time>
      </trkpt>
      <trkpt lat="43.7474" lon="7.25864">
        <ele>455</ele>
        <time>2016-05-15T13:20:57.000Z</time>
      </trkpt>
      <trkpt lat="43.7473" lon="7.25872">
        <ele>454</ele>
        <time>2016-05-15T13:21:00.000Z</time>
      </trkpt>
      <trkpt lat="43.74724" lon="7.25874">
        <ele>453</ele>
        <time>2016-05-15T13:21:02.000Z</time>
      </trkpt>
      <trkpt lat="43.74721" lon="7.25875">
        <ele>453</ele>
        <time>2016-05-15T13:21:03.000Z</time>
      </trkpt>
      <trkpt lat="43.74716" lon="7.25879">
        <ele>452</ele>
        <time>2016-05-15T13:21:05.000Z</time>
      </trkpt>
      <trkpt lat="43.74713" lon="7.25884">
        <ele>452</ele>
        <time>2016-05-15T13:21:07.000Z</time>
      </trkpt>
      <trkpt lat="43.74713" lon="7.25886">
        <ele>452</ele>
        <time>2016-05-15T13:21:08.000Z</time>
      </trkpt>
      <trkpt lat="43.74713" lon="7.25891">
        <ele>452</ele>
        <time>2016-05-15T13:21:10.000Z</time>
      </trkpt>
      <trkpt lat="43.74711" lon="7.25892">
        <ele>452</ele>
        <time>2016-05-15T13:21:11.000Z</time>
      </trkpt>
      <trkpt lat="43.74709" lon="7.25891">
        <ele>451</ele>
        <time>2016-05-15T13:21:12.000Z</time>
      </trkpt>
      <trkpt lat="43.74702" lon="7.25889">
        <ele>451</ele>
        <time>2016-05-15T13:21:14.000Z</time>
      </trkpt>
      <trkpt lat="43.74697" lon="7.25888">
        <ele>450</ele>
        <time>2016-05-15T13:21:17.000Z</time>
      </trkpt>
      <trkpt lat="43.74694" lon="7.25889">
        <ele>450</ele>
        <time>2016-05-15T13:21:20.000Z</time>
      </trkpt>
      <trkpt lat="43.74694" lon="7.25889">
        <ele>450</ele>
        <time>2016-05-15T13:21:21.000Z</time>
      </trkpt>
      <trkpt lat="43.74696" lon="7.25889">
        <ele>450</ele>
        <time>2016-05-15T13:21:22.000Z</time>
      </trkpt>
      <trkpt lat="43.74695" lon="7.25889">
        <ele>450</ele>
        <time>2016-05-15T13:21:23.000Z</time>
      </trkpt>
      <trkpt lat="43.74695" lon="7.25888">
        <ele>450</ele>
        <time>2016-05-15T13:21:24.000Z</time>
      </trkpt>
      <trkpt lat="43.74694" lon="7.25888">
        <ele>450</ele>
        <time>2016-05-15T13:21:27.000Z</time>
      </trkpt>
      <trkpt lat="43.74693" lon="7.25889">
        <ele>450</ele>
        <time>2016-05-15T13:21:29.000Z</time>
      </trkpt>
      <trkpt lat="43.74689" lon="7.25893">
        <ele>449</ele>
        <time>2016-05-15T13:21:36.000Z</time>
      </trkpt>
      <trkpt lat="43.74688" lon="7.25894">
        <ele>449</ele>
        <time>2016-05-15T13:21:38.000Z</time>
      </trkpt>
      <trkpt lat="43.74685" lon="7.25891">
        <ele>449</ele>
        <time>2016-05-15T13:21:43.000Z</time>
      </trkpt>
      <trkpt lat="43.74685" lon="7.2589">
        <ele>449</ele>
        <time>2016-05-15T13:21:47.000Z</time>
      </trkpt>
      <trkpt lat="43.74684" lon="7.25888">
        <ele>449</ele>
        <time>2016-05-15T13:21:49.000Z</time>
      </trkpt>
      <trkpt lat="43.74685" lon="7.25886">
        <ele>449</ele>
        <time>2016-05-15T13:21:50.000Z</time>
      </trkpt>
      <trkpt lat="43.74685" lon="7.25875">
        <ele>449</ele>
        <time>2016-05-15T13:21:53.000Z</time>
      </trkpt>
      <trkpt lat="43.74683" lon="7.25872">
        <ele>449</ele>
        <time>2016-05-15T13:21:54.000Z</time>
      </trkpt>
      <trkpt lat="43.74675" lon="7.25867">
        <ele>449</ele>
        <time>2016-05-15T13:21:56.000Z</time>
      </trkpt>
      <trkpt lat="43.74672" lon="7.25864">
        <ele>449</ele>
        <time>2016-05-15T13:21:57.000Z</time>
      </trkpt>
      <trkpt lat="43.74657" lon="7.2585">
        <ele>441</ele>
        <time>2016-05-15T13:22:02.000Z</time>
      </trkpt>
      <trkpt lat="43.74653" lon="7.2585">
        <ele>440</ele>
        <time>2016-05-15T13:22:04.000Z</time>
      </trkpt>
      <trkpt lat="43.74651" lon="7.25852">
        <ele>440</ele>
        <time>2016-05-15T13:22:05.000Z</time>
      </trkpt>
      <trkpt lat="43.7465" lon="7.25853">
        <ele>440</ele>
        <time>2016-05-15T13:22:06.000Z</time>
      </trkpt>
      <trkpt lat="43.74636" lon="7.25862">
        <ele>438</ele>
        <time>2016-05-15T13:22:10.000Z</time>
      </trkpt>
      <trkpt lat="43.74632" lon="7.25864">
        <ele>438</ele>
        <time>2016-05-15T13:22:11.000Z</time>
      </trkpt>
      <trkpt lat="43.74619" lon="7.25872">
        <ele>437</ele>
        <time>2016-05-15T13:22:15.000Z</time>
      </trkpt>
      <trkpt lat="43.74604" lon="7.25877">
        <ele>436</ele>
        <time>2016-05-15T13:22:20.000Z</time>
      </trkpt>
      <trkpt lat="43.74602" lon="7.25876">
        <ele>436</ele>
        <time>2016-05-15T13:22:21.000Z</time>
      </trkpt>
      <trkpt lat="43.74595" lon="7.25874">
        <ele>435</ele>
        <time>2016-05-15T13:22:24.000Z</time>
      </trkpt>
      <trkpt lat="43.74591" lon="7.25873">
        <ele>435</ele>
        <time>2016-05-15T13:22:26.000Z</time>
      </trkpt>
      <trkpt lat="43.74589" lon="7.25873">
        <ele>435</ele>
        <time>2016-05-15T13:22:27.000Z</time>
      </trkpt>
      <trkpt lat="43.74586" lon="7.25872">
        <ele>435</ele>
        <time>2016-05-15T13:22:28.000Z</time>
      </trkpt>
      <trkpt lat="43.74582" lon="7.2587">
        <ele>424</ele>
        <time>2016-05-15T13:22:30.000Z</time>
      </trkpt>
      <trkpt lat="43.74581" lon="7.25871">
        <ele>424</ele>
        <time>2016-05-15T13:22:31.000Z</time>
      </trkpt>
      <trkpt lat="43.74581" lon="7.25873">
        <ele>424</ele>
        <time>2016-05-15T13:22:32.000Z</time>
      </trkpt>
      <trkpt lat="43.74575" lon="7.25872">
        <ele>423</ele>
        <time>2016-05-15T13:22:35.000Z</time>
      </trkpt>
      <trkpt lat="43.74573" lon="7.25872">
        <ele>423</ele>
        <time>2016-05-15T13:22:36.000Z</time>
      </trkpt>
      <trkpt lat="43.74565" lon="7.2587">
        <ele>422</ele>
        <time>2016-05-15T13:22:39.000Z</time>
      </trkpt>
      <trkpt lat="43.74562" lon="7.25871">
        <ele>422</ele>
        <time>2016-05-15T13:22:40.000Z</time>
      </trkpt>
      <trkpt lat="43.74559" lon="7.25869">
        <ele>422</ele>
        <time>2016-05-15T13:22:41.000Z</time>
      </trkpt>
      <trkpt lat="43.74556" lon="7.25868">
        <ele>421</ele>
        <time>2016-05-15T13:22:42.000Z</time>
      </trkpt>
      <trkpt lat="43.74553" lon="7.25873">
        <ele>421</ele>
        <time>2016-05-15T13:22:44.000Z</time>
      </trkpt>
      <trkpt lat="43.74553" lon="7.25882">
        <ele>421</ele>
        <time>2016-05-15T13:22:46.000Z</time>
      </trkpt>
      <trkpt lat="43.74552" lon="7.25888">
        <ele>421</ele>
        <time>2016-05-15T13:22:48.000Z</time>
      </trkpt>
      <trkpt lat="43.74551" lon="7.25891">
        <ele>420</ele>
        <time>2016-05-15T13:22:49.000Z</time>
      </trkpt>
      <trkpt lat="43.74551" lon="7.25897">
        <ele>420</ele>
        <time>2016-05-15T13:22:51.000Z</time>
      </trkpt>
      <trkpt lat="43.74552" lon="7.25902">
        <ele>421</ele>
        <time>2016-05-15T13:22:52.000Z</time>
      </trkpt>
      <trkpt lat="43.74552" lon="7.25906">
        <ele>421</ele>
        <time>2016-05-15T13:22:53.000Z</time>
      </trkpt>
      <trkpt lat="43.74553" lon="7.2591">
        <ele>421</ele>
        <time>2016-05-15T13:22:54.000Z</time>
      </trkpt>
      <trkpt lat="43.74554" lon="7.25916">
        <ele>421</ele>
        <time>2016-05-15T13:22:56.000Z</time>
      </trkpt>
      <trkpt lat="43.74552" lon="7.25917">
        <ele>415</ele>
        <time>2016-05-15T13:22:57.000Z</time>
      </trkpt>
      <trkpt lat="43.7455" lon="7.25917">
        <ele>414</ele>
        <time>2016-05-15T13:22:59.000Z</time>
      </trkpt>
      <trkpt lat="43.74548" lon="7.25921">
        <ele>413</ele>
        <time>2016-05-15T13:23:01.000Z</time>
      </trkpt>
      <trkpt lat="43.74549" lon="7.25924">
        <ele>413</ele>
        <time>2016-05-15T13:23:03.000Z</time>
      </trkpt>
      <trkpt lat="43.74547" lon="7.25927">
        <ele>413</ele>
        <time>2016-05-15T13:23:05.000Z</time>
      </trkpt>
      <trkpt lat="43.7454" lon="7.25931">
        <ele>411</ele>
        <time>2016-05-15T13:23:08.000Z</time>
      </trkpt>
      <trkpt lat="43.74538" lon="7.25932">
        <ele>410</ele>
        <time>2016-05-15T13:23:09.000Z</time>
      </trkpt>
      <trkpt lat="43.74533" lon="7.25936">
        <ele>409</ele>
        <time>2016-05-15T13:23:11.000Z</time>
      </trkpt>
      <trkpt lat="43.74531" lon="7.2594">
        <ele>409</ele>
        <time>2016-05-15T13:23:13.000Z</time>
      </trkpt>
      <trkpt lat="43.74532" lon="7.25942">
        <ele>409</ele>
        <time>2016-05-15T13:23:14.000Z</time>
      </trkpt>
      <trkpt lat="43.7453" lon="7.25944">
        <ele>408</ele>
        <time>2016-05-15T13:23:15.000Z</time>
      </trkpt>
      <trkpt lat="43.74526" lon="7.25945">
        <ele>408</ele>
        <time>2016-05-15T13:23:17.000Z</time>
      </trkpt>
      <trkpt lat="43.74523" lon="7.25946">
        <ele>407</ele>
        <time>2016-05-15T13:23:18.000Z</time>
      </trkpt>
      <trkpt lat="43.74521" lon="7.25946">
        <ele>407</ele>
        <time>2016-05-15T13:23:19.000Z</time>
      </trkpt>
      <trkpt lat="43.74516" lon="7.25947">
        <ele>406</ele>
        <time>2016-05-15T13:23:21.000Z</time>
      </trkpt>
      <trkpt lat="43.74512" lon="7.25947">
        <ele>406</ele>
        <time>2016-05-15T13:23:23.000Z</time>
      </trkpt>
      <trkpt lat="43.74509" lon="7.25951">
        <ele>406</ele>
        <time>2016-05-15T13:23:25.000Z</time>
      </trkpt>
      <trkpt lat="43.74505" lon="7.25951">
        <ele>405</ele>
        <time>2016-05-15T13:23:27.000Z</time>
      </trkpt>
      <trkpt lat="43.74501" lon="7.25952">
        <ele>405</ele>
        <time>2016-05-15T13:23:29.000Z</time>
      </trkpt>
      <trkpt lat="43.74497" lon="7.25951">
        <ele>391</ele>
        <time>2016-05-15T13:23:31.000Z</time>
      </trkpt>
      <trkpt lat="43.74493" lon="7.25952">
        <ele>390</ele>
        <time>2016-05-15T13:23:33.000Z</time>
      </trkpt>
      <trkpt lat="43.74492" lon="7.25952">
        <ele>390</ele>
        <time>2016-05-15T13:23:35.000Z</time>
      </trkpt>
      <trkpt lat="43.7449" lon="7.25953">
        <ele>390</ele>
        <time>2016-05-15T13:23:37.000Z</time>
      </trkpt>
      <trkpt lat="43.74488" lon="7.25956">
        <ele>389</ele>
        <time>2016-05-15T13:23:39.000Z</time>
      </trkpt>
      <trkpt lat="43.74483" lon="7.25957">
        <ele>388</ele>
        <time>2016-05-15T13:23:41.000Z</time>
      </trkpt>
      <trkpt lat="43.7448" lon="7.25958">
        <ele>388</ele>
        <time>2016-05-15T13:23:43.000Z</time>
      </trkpt>
      <trkpt lat="43.74475" lon="7.25961">
        <ele>387</ele>
        <time>2016-05-15T13:23:45.000Z</time>
      </trkpt>
      <trkpt lat="43.74474" lon="7.25963">
        <ele>387</ele>
        <time>2016-05-15T13:23:46.000Z</time>
      </trkpt>
      <trkpt lat="43.74472" lon="7.25964">
        <ele>386</ele>
        <time>2016-05-15T13:23:47.000Z</time>
      </trkpt>
      <trkpt lat="43.74469" lon="7.25966">
        <ele>386</ele>
        <time>2016-05-15T13:23:49.000Z</time>
      </trkpt>
      <trkpt lat="43.74468" lon="7.25965">
        <ele>386</ele>
        <time>2016-05-15T13:23:50.000Z</time>
      </trkpt>
      <trkpt lat="43.74466" lon="7.25966">
        <ele>385</ele>
        <time>2016-05-15T13:23:51.000Z</time>
      </trkpt>
      <trkpt lat="43.74461" lon="7.25968">
        <ele>385</ele>
        <time>2016-05-15T13:23:53.000Z</time>
      </trkpt>
      <trkpt lat="43.74455" lon="7.25968">
        <ele>384</ele>
        <time>2016-05-15T13:23:55.000Z</time>
      </trkpt>
      <trkpt lat="43.7445" lon="7.25966">
        <ele>383</ele>
        <time>2016-05-15T13:23:57.000Z</time>
      </trkpt>
      <trkpt lat="43.74447" lon="7.25964">
        <ele>383</ele>
        <time>2016-05-15T13:23:59.000Z</time>
      </trkpt>
      <trkpt lat="43.74449" lon="7.25965">
        <ele>383</ele>
        <time>2016-05-15T13:24:00.000Z</time>
      </trkpt>
      <trkpt lat="43.74447" lon="7.25965">
        <ele>383</ele>
        <time>2016-05-15T13:24:02.000Z</time>
      </trkpt>
      <trkpt lat="43.7445" lon="7.25971">
        <ele>383</ele>
        <time>2016-05-15T13:24:07.000Z</time>
      </trkpt>
      <trkpt lat="43.74458" lon="7.25979">
        <ele>383</ele>
        <time>2016-05-15T13:24:11.000Z</time>
      </trkpt>
      <trkpt lat="43.74465" lon="7.25995">
        <ele>384</ele>
        <time>2016-05-15T13:24:15.000Z</time>
      </trkpt>
      <trkpt lat="43.74467" lon="7.26001">
        <ele>375</ele>
        <time>2016-05-15T13:24:17.000Z</time>
      </trkpt>
      <trkpt lat="43.74468" lon="7.26011">
        <ele>375</ele>
        <time>2016-05-15T13:24:19.000Z</time>
      </trkpt>
      <trkpt lat="43.74474" lon="7.26026">
        <ele>374</ele>
        <time>2016-05-15T13:24:22.000Z</time>
      </trkpt>
      <trkpt lat="43.74475" lon="7.26036">
        <ele>373</ele>
        <time>2016-05-15T13:24:24.000Z</time>
      </trkpt>
      <trkpt lat="43.74477" lon="7.26042">
        <ele>372</ele>
        <time>2016-05-15T13:24:25.000Z</time>
      </trkpt>
      <trkpt lat="43.74478" lon="7.26047">
        <ele>372</ele>
        <time>2016-05-15T13:24:26.000Z</time>
      </trkpt>
      <trkpt lat="43.7448" lon="7.26053">
        <ele>371</ele>
        <time>2016-05-15T13:24:27.000Z</time>
      </trkpt>
      <trkpt lat="43.74485" lon="7.26064">
        <ele>371</ele>
        <time>2016-05-15T13:24:29.000Z</time>
      </trkpt>
      <trkpt lat="43.74488" lon="7.2607">
        <ele>370</ele>
        <time>2016-05-15T13:24:30.000Z</time>
      </trkpt>
      <trkpt lat="43.74491" lon="7.26075">
        <ele>370</ele>
        <time>2016-05-15T13:24:31.000Z</time>
      </trkpt>
      <trkpt lat="43.74495" lon="7.26079">
        <ele>369</ele>
        <time>2016-05-15T13:24:32.000Z</time>
      </trkpt>
      <trkpt lat="43.74498" lon="7.26082">
        <ele>369</ele>
        <time>2016-05-15T13:24:33.000Z</time>
      </trkpt>
      <trkpt lat="43.74505" lon="7.26091">
        <ele>368</ele>
        <time>2016-05-15T13:24:35.000Z</time>
      </trkpt>
      <trkpt lat="43.74509" lon="7.26098">
        <ele>367</ele>
        <time>2016-05-15T13:24:36.000Z</time>
      </trkpt>
      <trkpt lat="43.74518" lon="7.26109">
        <ele>366</ele>
        <time>2016-05-15T13:24:38.000Z</time>
      </trkpt>
      <trkpt lat="43.74523" lon="7.26113">
        <ele>365</ele>
        <time>2016-05-15T13:24:39.000Z</time>
      </trkpt>
      <trkpt lat="43.74533" lon="7.26124">
        <ele>364</ele>
        <time>2016-05-15T13:24:41.000Z</time>
      </trkpt>
      <trkpt lat="43.74545" lon="7.26137">
        <ele>363</ele>
        <time>2016-05-15T13:24:43.000Z</time>
      </trkpt>
      <trkpt lat="43.74549" lon="7.26142">
        <ele>362</ele>
        <time>2016-05-15T13:24:44.000Z</time>
      </trkpt>
      <trkpt lat="43.74553" lon="7.26148">
        <ele>362</ele>
        <time>2016-05-15T13:24:45.000Z</time>
      </trkpt>
      <trkpt lat="43.74555" lon="7.26153">
        <ele>361</ele>
        <time>2016-05-15T13:24:46.000Z</time>
      </trkpt>
      <trkpt lat="43.74557" lon="7.26156">
        <ele>361</ele>
        <time>2016-05-15T13:24:47.000Z</time>
      </trkpt>
      <trkpt lat="43.74558" lon="7.26158">
        <ele>360</ele>
        <time>2016-05-15T13:24:48.000Z</time>
      </trkpt>
      <trkpt lat="43.74559" lon="7.2616">
        <ele>360</ele>
        <time>2016-05-15T13:24:49.000Z</time>
      </trkpt>
      <trkpt lat="43.74562" lon="7.26163">
        <ele>360</ele>
        <time>2016-05-15T13:24:51.000Z</time>
      </trkpt>
      <trkpt lat="43.74566" lon="7.26167">
        <ele>350</ele>
        <time>2016-05-15T13:24:53.000Z</time>
      </trkpt>
      <trkpt lat="43.74566" lon="7.26169">
        <ele>350</ele>
        <time>2016-05-15T13:24:54.000Z</time>
      </trkpt>
      <trkpt lat="43.74566" lon="7.26171">
        <ele>349</ele>
        <time>2016-05-15T13:24:55.000Z</time>
      </trkpt>
      <trkpt lat="43.74567" lon="7.26173">
        <ele>349</ele>
        <time>2016-05-15T13:24:56.000Z</time>
      </trkpt>
      <trkpt lat="43.74566" lon="7.26175">
        <ele>349</ele>
        <time>2016-05-15T13:24:57.000Z</time>
      </trkpt>
      <trkpt lat="43.74565" lon="7.26176">
        <ele>349</ele>
        <time>2016-05-15T13:24:58.000Z</time>
      </trkpt>
      <trkpt lat="43.74563" lon="7.26176">
        <ele>349</ele>
        <time>2016-05-15T13:25:00.000Z</time>
      </trkpt>
      <trkpt lat="43.74563" lon="7.26178">
        <ele>348</ele>
        <time>2016-05-15T13:25:01.000Z</time>
      </trkpt>
      <trkpt lat="43.74565" lon="7.2618">
        <ele>348</ele>
        <time>2016-05-15T13:25:04.000Z</time>
      </trkpt>
      <trkpt lat="43.74565" lon="7.26181">
        <ele>348</ele>
        <time>2016-05-15T13:25:05.000Z</time>
      </trkpt>
      <trkpt lat="43.74563" lon="7.26182">
        <ele>348</ele>
        <time>2016-05-15T13:25:08.000Z</time>
      </trkpt>
      <trkpt lat="43.74562" lon="7.26183">
        <ele>348</ele>
        <time>2016-05-15T13:25:09.000Z</time>
      </trkpt>
      <trkpt lat="43.74561" lon="7.26185">
        <ele>347</ele>
        <time>2016-05-15T13:25:10.000Z</time>
      </trkpt>
      <trkpt lat="43.74557" lon="7.26189">
        <ele>347</ele>
        <time>2016-05-15T13:25:13.000Z</time>
      </trkpt>
      <trkpt lat="43.74554" lon="7.26197">
        <ele>346</ele>
        <time>2016-05-15T13:25:16.000Z</time>
      </trkpt>
      <trkpt lat="43.74554" lon="7.262">
        <ele>345</ele>
        <time>2016-05-15T13:25:17.000Z</time>
      </trkpt>
      <trkpt lat="43.74551" lon="7.26203">
        <ele>345</ele>
        <time>2016-05-15T13:25:19.000Z</time>
      </trkpt>
      <trkpt lat="43.74547" lon="7.26204">
        <ele>345</ele>
        <time>2016-05-15T13:25:21.000Z</time>
      </trkpt>
      <trkpt lat="43.74544" lon="7.26211">
        <ele>344</ele>
        <time>2016-05-15T13:25:24.000Z</time>
      </trkpt>
      <trkpt lat="43.74545" lon="7.26214">
        <ele>344</ele>
        <time>2016-05-15T13:25:25.000Z</time>
      </trkpt>
      <trkpt lat="43.74546" lon="7.26216">
        <ele>343</ele>
        <time>2016-05-15T13:25:26.000Z</time>
      </trkpt>
      <trkpt lat="43.74545" lon="7.26222">
        <ele>343</ele>
        <time>2016-05-15T13:25:28.000Z</time>
      </trkpt>
      <trkpt lat="43.74547" lon="7.26229">
        <ele>342</ele>
        <time>2016-05-15T13:25:30.000Z</time>
      </trkpt>
      <trkpt lat="43.74551" lon="7.26233">
        <ele>342</ele>
        <time>2016-05-15T13:25:32.000Z</time>
      </trkpt>
      <trkpt lat="43.74554" lon="7.26234">
        <ele>342</ele>
        <time>2016-05-15T13:25:33.000Z</time>
      </trkpt>
      <trkpt lat="43.74556" lon="7.26234">
        <ele>342</ele>
        <time>2016-05-15T13:25:34.000Z</time>
      </trkpt>
      <trkpt lat="43.74558" lon="7.26237">
        <ele>341</ele>
        <time>2016-05-15T13:25:36.000Z</time>
      </trkpt>
      <trkpt lat="43.74559" lon="7.26239">
        <ele>341</ele>
        <time>2016-05-15T13:25:37.000Z</time>
      </trkpt>
      <trkpt lat="43.7456" lon="7.26236">
        <ele>341</ele>
        <time>2016-05-15T13:25:39.000Z</time>
      </trkpt>
      <trkpt lat="43.74561" lon="7.26236">
        <ele>341</ele>
        <time>2016-05-15T13:25:40.000Z</time>
      </trkpt>
      <trkpt lat="43.74568" lon="7.26239">
        <ele>341</ele>
        <time>2016-05-15T13:25:42.000Z</time>
      </trkpt>
      <trkpt lat="43.74577" lon="7.26247">
        <ele>339</ele>
        <time>2016-05-15T13:25:44.000Z</time>
      </trkpt>
      <trkpt lat="43.74579" lon="7.26262">
        <ele>331</ele>
        <time>2016-05-15T13:25:47.000Z</time>
      </trkpt>
      <trkpt lat="43.74579" lon="7.2627">
        <ele>329</ele>
        <time>2016-05-15T13:25:48.000Z</time>
      </trkpt>
      <trkpt lat="43.74581" lon="7.26275">
        <ele>328</ele>
        <time>2016-05-15T13:25:49.000Z</time>
      </trkpt>
      <trkpt lat="43.74587" lon="7.26284">
        <ele>327</ele>
        <time>2016-05-15T13:25:51.000Z</time>
      </trkpt>
      <trkpt lat="43.74598" lon="7.26288">
        <ele>327</ele>
        <time>2016-05-15T13:25:54.000Z</time>
      </trkpt>
      <trkpt lat="43.74603" lon="7.26288">
        <ele>327</ele>
        <time>2016-05-15T13:25:55.000Z</time>
      </trkpt>
      <trkpt lat="43.74617" lon="7.26286">
        <ele>327</ele>
        <time>2016-05-15T13:25:58.000Z</time>
      </trkpt>
      <trkpt lat="43.74633" lon="7.26286">
        <ele>327</ele>
        <time>2016-05-15T13:26:01.000Z</time>
      </trkpt>
      <trkpt lat="43.74638" lon="7.26284">
        <ele>328</ele>
        <time>2016-05-15T13:26:02.000Z</time>
      </trkpt>
      <trkpt lat="43.74643" lon="7.26285">
        <ele>328</ele>
        <time>2016-05-15T13:26:03.000Z</time>
      </trkpt>
      <trkpt lat="43.74646" lon="7.2629">
        <ele>327</ele>
        <time>2016-05-15T13:26:04.000Z</time>
      </trkpt>
      <trkpt lat="43.74641" lon="7.26303">
        <ele>325</ele>
        <time>2016-05-15T13:26:06.000Z</time>
      </trkpt>
      <trkpt lat="43.74627" lon="7.26306">
        <ele>324</ele>
        <time>2016-05-15T13:26:08.000Z</time>
      </trkpt>
      <trkpt lat="43.74617" lon="7.26314">
        <ele>323</ele>
        <time>2016-05-15T13:26:10.000Z</time>
      </trkpt>
      <trkpt lat="43.74617" lon="7.2632">
        <ele>322</ele>
        <time>2016-05-15T13:26:11.000Z</time>
      </trkpt>
      <trkpt lat="43.7462" lon="7.26325">
        <ele>322</ele>
        <time>2016-05-15T13:26:12.000Z</time>
      </trkpt>
      <trkpt lat="43.74626" lon="7.26327">
        <ele>322</ele>
        <time>2016-05-15T13:26:13.000Z</time>
      </trkpt>
      <trkpt lat="43.74637" lon="7.26327">
        <ele>322</ele>
        <time>2016-05-15T13:26:15.000Z</time>
      </trkpt>
      <trkpt lat="43.74641" lon="7.26328">
        <ele>322</ele>
        <time>2016-05-15T13:26:16.000Z</time>
      </trkpt>
      <trkpt lat="43.74644" lon="7.2633">
        <ele>322</ele>
        <time>2016-05-15T13:26:17.000Z</time>
      </trkpt>
      <trkpt lat="43.74646" lon="7.26336">
        <ele>311</ele>
        <time>2016-05-15T13:26:19.000Z</time>
      </trkpt>
    </trkseg>
  </trk>
</gpx>